     2              OBSERVATION DATA    GPS                 RINEX VERSION / TYPE
teqc 1997Sep28 Simon McClusky 98/06/22                      PGM / RUN BY / DATE
                                                            COMMENT
BIT 2 OF LLI FLAGS DATA COLLECTED UNDER A-S CONDITION       COMMENT
BIT 2 OF LLI FLAGS DATA COLLECTED UNDER A-S CONDITION       COMMENT
Original Marker Name: GS21                                  COMMENT
Campaign Name: China Lake May 1998                          COMMENT
4-Character Station Name: GS21                              COMMENT
6-Character Antenna Code: ASHGD3                            COMMENT
Vertical Measurement Point: TGP                             COMMENT
Vertical Offset to Rinex Ref. Point: 0.0640                 COMMENT
Radial Measurement Point: RRP                               COMMENT
Radial Offset to Rinex Ref. Point: 0.0000                   COMMENT
Antenna Height from Field Measurement: 0.2110 m             COMMENT
Additional Antenna Identification Info.:                    COMMENT
The Whopper (700718AB)                                      COMMENT
Original XYZ: -2410820.5500 -4582668.8600 3712695.9600      COMMENT
New XYZ position is based on association with SCEC monument COMMENT
E1F4E6D8+0011. Position of that monument is believed to be  COMMENT
valid to within 1 m horizontally; vertical accuracy         COMMENT
should be no worse than 3-times this value.                 COMMENT
                                                            COMMENT
Revised Rinex header created by UCSD GPS archive for        COMMENT
GSAC on 01-Aug-2000 (2000:214) 05:21:19 GMT                 COMMENT
For assistance contact dagnew@ucsd.edu                      COMMENT
or anderson@python.ucsd.edu                                 COMMENT
                                                            COMMENT
GO21                                                        MARKER NAME
_BT US NATIONAL IMAGERY MAPPING AGENCY                      OBSERVER / AGENCY
448 ASHTECH Z-XII3 1G00                                     REC # / TYPE / VERS
812 ASHTECH GEODETIC III                                    ANT # / TYPE
 -2410766.6622 -4582613.3469  3712691.8208                  APPROX POSITION XYZ
        0.1470        0.0000        0.0000                  ANTENNA: DELTA H/E/N
     1     1     0                                          WAVELENGTH FACT L1/2
     5    L1    L2    C1    P2    P1                        # / TYPES OF OBSERV
    30                                                      INTERVAL
  1998     5    13    15    20    0.000000                  TIME OF FIRST OBS
  1998     5    13    21    30    0.000000                  TIME OF LAST OBS
                                                            END OF HEADER
 98  5 13 15 20  0.0000000  0  7G19G 2G15G27G 7G26G13
    317158.19949    218283.58745  23852453.888    23852463.738    23852454.873
      1145.49647                  21295899.207    21295907.482
     13318.41059      9305.94556  23517356.578    23517365.313    23517356.573
    192501.09859    129963.18957  21036541.284    21036550.690    21036543.327
    -95378.37959    -69208.44757  20502715.535    20502723.295
                                  20502715.655    22717430.879
    309560.87449    219732.32846  22985351.454    22985360.268    22985353.704
 98  5 13 15 20 30.0000000  0  7G19G 2G15G27G 7G26G13
    414762.19859    294338.53955  23871027.874    23871037.288    23871028.471
     31236.51359      6654.92357  21297244.483    21297252.204    21297245.098
     18512.30949     13353.10546  23518344.124    23518353.818    23518344.847
    251289.01549    175771.93247  21047728.313    21047737.674    21047730.300
   -121493.26249    -89557.70647  20497746.071    20497753.747    20497746.154
     -6346.08957                  22715507.680    22715515.803
    407848.00259    296319.64056  23004057.800    23004063.762    23004057.161
 98  5 13 15 21  0.0000000  0  7G19G 2G15G27G 7G26G13
    512528.40949    370519.90945  23889632.115    23889641.772    23889633.152
     38445.74249     12272.49047  21298616.378    21298624.121    21298616.967
     24269.91449     17839.52346  23519440.032    23519449.497    23519440.566
    310518.98049    221925.11947  21058999.897    21059008.795    21059001.420
   -147120.37349   -109526.87447  20492869.003    20492877.090    20492869.550
    -56630.41459    -13806.14447  22713685.213    22713693.931    22713686.117
    506270.77749    373012.65846  23022785.914    23022793.141    23022786.466
 98  5 13 15 21 30.0000000  0  7G19G 2G15G27G 7G26G13
    610473.25349    446840.46345  23908269.865    23908280.283    23908271.347
     45810.50249     18011.25047  21300017.836    21300025.608    21300018.487
     30602.20649     22773.74546  23520644.896    23520654.534    23520645.545
    370196.41749    268426.98647  21070356.307    21070365.067    21070357.713
   -172246.32049   -129105.53147  20488087.689    20488095.819    20488088.345
    -65651.91049    -20835.90147  22711968.400    22711977.258    22711969.502
    604821.47049    449805.34646  23041539.250    23041546.844    23041540.118
 98  5 13 15 22  0.0000000  0  7G19G 2G15G27G 7G26G13
    708613.27849    523313.10345  23926945.765    23926955.749    23926946.806
     53334.46549     23874.06347  21301449.635    21301457.407    21301450.328
     37515.71449     28160.86446  23521960.305    23521970.245    23521961.133
    430338.46449    315290.88347  21081801.067    21081809.766    21081802.377
   -196878.15249   -148299.15647  20483400.384    20483408.503    20483401.121
    -74129.86549    -27442.11747  22710355.092    22710363.998    22710356.283
    703490.30349    526690.09646  23060315.315    23060323.003    23060316.241
 98  5 13 15 22 30.0000000  0  7G19G 2G15G27G 7G26G13
    806987.48649    599968.24645  23945665.393    23945675.804    23945666.807
     61038.40949     29877.12647  21302915.692    21302923.470    21302916.401
     45026.67149     34013.50446  23523389.380    23523399.550    23523390.385
    490964.46849    362531.89347  21093337.867    21093346.561    21093339.135
   -221028.63049   -167117.70847  20478804.722    20478812.831    20478805.487
    -82049.85849    -33613.55647  22708848.064    22708856.981    22708849.239
    802281.25149    603669.99346  23079114.398    23079122.360    23079115.508
 98  5 13 15 23  0.0000000  0  7G19G 2G15G27G 7G26G13
    905591.28349    676802.28245  23964429.335    23964439.617    23964430.562
     68926.56249     36023.72447  21304416.736    21304424.578    21304417.498
     53138.15049     40334.10846  23524933.224    23524943.122    23524934.007
    552078.77149    410153.38747  21104967.741    21104976.272    21104968.849
   -244704.39049   -185566.34647  20474299.410    20474307.492    20474300.163
    -89415.49449    -39353.03947  22707446.423    22707455.395    22707447.620
    901212.28549    680759.03846  23097940.145    23097948.441    23097941.460
 98  5 13 15 23 30.0000000  0  7G19G 2G15G27G 7G26G13
   1004407.67049    753801.97245  23983233.518    23983243.862    23983234.696
     76984.50549     42302.62447  21305950.103    21305957.994    21305950.881
     61848.82149     47121.59646  23526591.070    23526600.780    23526591.677
    613670.30549    458146.75847  21116688.363    21116696.815    21116689.408
   -267917.38249   -203654.39347  20469882.084    20469890.262    20469882.898
    -96242.24149    -44672.61347  22706147.397    22706156.341    22706148.562
   1000303.36449    757972.80646  23116796.699    23116804.941    23116797.901
 98  5 13 15 24  0.0000000  0  7G19G 2G15G27G 7G26G13
   1103442.89249    830972.17145  24002079.211    24002089.815    24002080.543
     85213.54049     48714.84047  21307516.011    21307523.957    21307516.834
     71165.00949     54380.92446  23528363.944    23528373.593    23528364.504
    675738.37649    506511.44747  21128499.724    21128508.015    21128500.662
   -290672.86249   -221385.93847  20465551.923    20465560.114    20465552.710
   -102518.54749    -49563.26747  22704952.979    22704962.011    22704954.283
   1099581.13749    835332.03646  23135688.669    23135697.014    23135689.937
 98  5 13 15 24 30.0000000  0  7G19G 2G15G27G 7G26G13
   1202696.89749    908312.85345  24020966.860    24020977.300    24020967.974
     93624.43349     55268.76347  21309116.730    21309124.569    21309117.393
     81098.97249     62121.64146  23530254.340    23530263.957    23530254.914
    738270.95449    555238.10047  21140399.497    21140407.617    21140400.327
   -312959.16949   -238751.89247  20461310.887    20461319.196    20461311.749
   -108213.46949    -54000.89147  22703869.503    22703878.348    22703870.657
   1199065.37449    912852.15146  23154619.822    23154628.358    23154621.243
 98  5 13 15 25  0.0000000  0  7G19G 2G15G27G 7G26G13
   1302148.04649    985807.13745  24039891.535    24039902.302    24039892.907
    102210.14649     61958.91147  21310750.704    21310758.430    21310751.263
     91650.96849     70343.93946  23532262.357    23532272.009    23532262.956
    801264.67849    604324.07547  21152386.971    21152395.001    21152387.728
   -334761.98649   -255741.10647  20457161.938    20457170.262    20457162.766
   -113332.41449    -57989.71247  22702895.532    22702904.309    22702896.619
   1298747.29249    990526.29546  23173588.542    23173597.291    23173590.119
 98  5 13 15 25 30.0000000  0  7G19G 2G15G27G 7G26G13
   1401820.17849   1063473.62745  24058858.868    24058869.379    24058859.931
    111007.74149     68814.16347  21312424.926    21312432.609    21312425.461
    102845.18649     79066.68046  23534392.925    23534402.229    23534393.265
    864741.15749    653786.23147  21164466.208    21164474.256    21164466.999
   -356052.62449   -272331.21747  20453110.294    20453118.818    20453111.278
   -117845.91849    -61506.75547  22702036.644    22702045.404    22702037.805
   1398621.27449   1068350.08746  23192594.305    23192602.715    23192595.583
 98  5 13 15 26  0.0000000  0  8G19G 2G15G27G 7G26G 4G13
   1501706.48349   1141306.99745  24077866.448    24077877.301    24077867.752
    120014.50749     75832.40847  21314138.819    21314146.565    21314139.445
    114671.91049     88282.27746  23536643.408    23536652.829    23536643.885
    928689.91049    703616.39347  21176635.414    21176643.345    21176636.097
   -376824.92249   -288517.42647  20449157.566    20449165.984    20449158.455
   -121759.83649    -64556.59247  22701291.965    22701300.578    22701293.045
                                  25209302.804
   1498645.76949   1146291.18746  23211628.559    23211636.813    23211629.700
 98  5 13 15 26 30.0000000  0  8G19G 2G15G27G 7G26G 4G13
   1601807.64349   1219307.79945  24096915.319    24096926.050    24096916.524
    129236.41249     83018.29447  21315893.782    21315901.467    21315894.370
    127135.13949     97993.85046  23539015.342    23539024.545    23539015.656
    993119.36749    753821.11747  21188895.974    21188903.961    21188896.671
   -397055.50049   -304281.51647  20445307.957    20445316.265    20445308.735
   -125081.99049    -67145.31047  22700659.822    22700668.402    22700660.939
   -243540.17645                  25189948.512    25189957.039
   1598800.39249   1224333.67846  23230687.485    23230695.642    23230688.550
 98  5 13 15 27  0.0000000  0  8G19G 2G15G27G 7G26G 4G13
   1702146.71149   1297493.98245  24116009.599    24116020.120    24116010.442
    138685.99049     90381.59147  21317692.030    21317699.689    21317692.587
    140241.94449    108206.90746  23541509.415    23541518.718    23541509.790
   1058046.96049    804414.01147  21201251.426    21201259.364    21201252.001
   -416722.30849   -319606.30347  20441565.474    20441573.817    20441566.333
   -127819.27049    -69278.28347  22700138.902    22700147.555    22700140.072
   -433072.20349   -322861.07745  25170578.195    25170587.235    25170577.568
   1699082.34149   1302475.40346  23249770.486    23249778.696    23249771.616
 98  5 13 15 27 30.0000000  0  8G19G 2G15G27G 7G26G 4G13
   1802744.69249   1375881.92245  24135152.779    24135163.298    24135153.674
    148371.70549     97928.88347  21319535.055    21319542.861    21319535.703
    153999.58549    118927.13046  23544127.493    23544136.803    23544127.846
   1123475.90649    855397.56847  21213702.010    21213710.141    21213702.728
   -435815.25249   -334483.92347  20437932.337    20437940.561    20437933.117
   -129957.11449    -70944.16847  22699732.091    22699740.729    22699733.288
   -534921.28849   -402224.00055  25151196.761    25151207.090    25151196.490
   1799509.92549   1380730.58046  23268880.945    23268889.421    23268882.256
 98  5 13 15 28  0.0000000  0  8G19G 2G15G27G 7G26G 4G13
   1903597.47349   1454468.40345  24154344.890    24154355.067    24154345.465
    158283.84749    105652.61247  21321421.340    21321429.128    21321421.932
    168402.59949    130150.23346  23546868.349    23546877.634    23546868.683
   1189400.48249    906767.33047  21226247.080    21226255.232    21226247.792
   -454338.40949   -348917.55647  20434407.574    20434415.774    20434408.362
   -131503.33149    -72149.04947  22699437.958    22699446.567    22699439.135
   -636820.37658   -481625.86245  25131806.729    25131815.948    25131806.284
   1900097.75649   1459110.65346  23288022.482    23288030.704    23288023.519
 98  5 13 15 28 30.0000000  0  8G19G 2G15G27G 7G26G 4G13
   2004713.33749   1533259.89445  24173586.402    24173596.854    24173587.224
    168432.37349    113560.53647  21323352.643    21323360.399    21323353.167
    183462.13249    141884.90146  23549734.255    23549743.474    23549734.509
   1255831.99649    958532.10547  21238888.439    21238896.768    21238889.293
   -472293.06649   -362908.19747  20430991.043    20430999.221    20430991.778
   -132454.44849    -72890.21447  22699257.012    22699265.637    22699258.203
   -738760.13449   -561059.43945  25112407.818    25112417.722    25112407.535
   2000874.59849   1537637.98946  23307199.665    23307207.996    23307200.730
 98  5 13 15 29  0.0000000  0  8G19G 2G15G27G 7G26G 4G13
   2106077.87649   1612245.13845  24192875.484    24192885.978    24192876.395
    178806.54849    121644.29347  21325326.683    21325334.590    21325327.332
    199174.17149    154128.03146  23552724.284    23552733.415    23552724.402
   1322765.33249   1010687.91647  21251625.424    21251633.825    21251626.318
   -489693.75049   -376467.17647  20427679.792    20427688.046    20427680.567
   -132804.16849    -73162.74847  22699190.535    22699199.145    22699191.716
   -840725.93749   -640513.30745  25093003.964    25093014.490    25093004.285
   2101846.32249   1616317.18346  23326413.869    23326422.399    23326415.103
 98  5 13 15 29 30.0000000  0  8G19G 2G15G27G 7G26G 4G13
   2207686.97149   1691420.94045  24212211.495    24212221.652    24212211.961
    189417.84449    129912.82247  21327346.096    21327353.884    21327346.655
    215554.70249    166892.05046  23555841.436    23555850.539    23555841.614
   1390222.13849   1063251.62147  21264462.267    21264470.515    21264462.916
   -506541.16449   -389595.03747  20424473.784    20424482.148    20424474.640
   -132538.31149    -72955.61447  22699241.133    22699249.764    22699242.369
   -942694.13349   -719969.02945  25073599.587    25073610.818    25073600.706
   2203024.92449   1695157.59146  23345667.414    23345676.145    23345668.907
 98  5 13 15 30  0.0000000  0  8G19G 2G15G27G 7G26G 4G13
   2309517.48549   1770769.29445  24231588.941    24231599.505    24231589.869
    200260.55549    138361.66747  21329409.554    21329417.199    21329410.008
    232592.11049    180167.95246  23559083.797    23559092.654    23559083.751
   1458200.52749   1116221.75847  21277398.030    21277406.395    21277398.750
   -522858.17549   -402309.59647  20421368.807    20421377.174    20421369.578
   -131683.72449    -72289.73447  22699403.872    22699412.487    22699405.054
  -1044702.72249   -799456.18945  25054188.039    25054199.254    25054189.254
   2304386.78849   1774140.77146  23364955.836    23364964.778    23364957.513
 98  5 13 15 30 30.0000000  0  8G19G 2G15G27G 7G26G 4G13
   2411565.33549   1850286.99045  24251008.045    24251018.673    24251008.991
    211326.83349    146984.72447  21331515.413    21331523.043    21331515.874
    250280.46849    193951.06846  23562449.706    23562458.691    23562449.709
   1526695.93149   1169594.76147  21290432.278    21290440.673    21290433.007
   -538655.17549   -414618.95447  20418362.632    20418371.115    20418363.426
   -130248.28649    -71171.23847  22699677.033    22699685.748    22699678.288
  -1146764.08249   -878984.47945  25034765.925    25034777.590    25034767.601
   2405905.61449   1853246.29646  23384274.342    23384283.287    23384275.939
 98  5 13 15 31  0.0000000  0  8G19G 2G15G27G 7G26G 4G13
   2513861.76549   1929998.38845  24270474.946    24270485.252    24270475.476
    222638.20349    155798.76647  21333668.002    21333675.508    21333668.384
    268643.65349    208260.02146  23565943.954    23565953.075    23565944.102
   1595728.38349   1223386.23547  21303568.804    21303577.162    21303569.521
   -553910.42349   -426506.16947  20415459.564    20415468.143    20415460.409
   -128198.70149    -69574.19147  22700067.166    22700075.815    22700068.385
  -1248857.13549   -958537.46545  25015338.100    25015349.897    25015339.724
   2507591.64749   1932482.08146  23403624.418    23403633.563    23403626.148
 98  5 13 15 31 30.0000000  0  8G19G 2G15G27G 7G26G 4G13
   2616395.67949   2009894.84445  24289986.492    24289997.029    24289987.145
    234192.55349    164802.13647  21335866.657    21335874.260    21335867.111
    287666.19849    223082.76946  23569563.558    23569572.959    23569563.931
   1665272.23049   1277576.20547  21316802.403    21316810.924    21316803.314
   -568650.34449   -437991.83547  20412654.647    20412663.231    20412655.482
   -125558.78449    -67517.14647  22700569.642    22700578.220    22700570.802
  -1351018.70148  -1038143.86345  24995897.256    24995909.409    24995899.081
   2609430.59849   2011837.04346  23423004.179    23423012.995    23423005.476
 98  5 13 15 32  0.0000000  0  8G19G 2G15G27G 7G26G 4G13
   2719189.30549   2089993.66345  24309547.682    24309558.181    24309548.245
    246004.82149    174006.48747  21338114.478    21338122.107    21338114.945
    307364.38949    238431.98346  23573312.152    23573321.427    23573312.331
   1735333.41649   1332169.29147  21330134.778    21330143.127    21330135.557
   -582842.39649   -449050.58547  20409954.031    20409962.542    20409954.847
   -122297.25449    -64975.72847  22701190.372    22701198.977    22701191.544
  -1453235.48549  -1117793.26545  24976446.078    24976457.988    24976447.666
   2711451.76349   2091333.97046  23442418.256    23442427.098    23442419.417
 98  5 13 15 32 30.0000000  0  8G19G 2G15G27G 7G26G 4G13
   2822230.48149   2170285.37945  24329155.731    24329166.321    24329156.457
    258061.62649    183401.38247  21340408.804    21340416.481    21340409.324
    327734.15649    254304.52846  23577188.342    23577197.673    23577188.629
   1805902.06649   1387157.80547  21343563.620    21343571.948    21343564.420
   -596483.43849   -459679.97947  20407358.273    20407366.682    20407359.047
   -118397.32849    -61936.86147  22701932.641    22701941.194    22701933.721
  -1555481.90249  -1197465.67145  24956989.331    24957000.933    24956990.926
   2813657.97649   2170975.09346  23461867.341    23461876.490    23461868.680
 98  5 13 15 33  0.0000000  0  8G19G 2G15G27G 7G26G 4G13
   2925496.12449   2250752.00745  24348806.859    24348817.114    24348807.269
    270361.65949    192985.80847  21342749.398    21342757.132    21342749.937
    348769.57349    270695.76046  23581191.238    23581200.648    23581191.547
   1876969.36349   1442534.87647  21357087.455    21357095.653    21357088.153
   -609572.74549   -469879.44147  20404867.424    20404875.854    20404868.285
   -113858.16549    -58399.89247  22702796.463    22702805.018    22702797.516
  -1657745.51049  -1277151.54745  24937528.705    24937540.651    24937530.624
   2916052.14549   2250762.67246  23481352.152    23481361.474    23481353.684
 98  5 13 15 33 30.0000000  0  8G19G 2G15G27G 7G26G 4G13
   3028960.12649   2331373.18345  24368495.467    24368505.547    24368495.885
    282892.17749    202749.82847  21345133.895    21345141.680    21345134.464
    370456.35749    287594.53446  23585317.965    23585327.481    23585318.422
   1948529.21349   1498295.75547  21370704.693    21370713.030    21370705.559
   -622116.96649   -479654.15847  20402480.505    20402488.780    20402481.310
   -108704.79149    -54384.31347  22703776.966    22703785.724    22703778.140
  -1760021.20549  -1356846.81245  24918066.403    24918077.861    24918068.085
   3018613.11349   2330680.22646  23500868.960    23500878.225    23500870.476
 98  5 13 15 34  0.0000000  0  8G19G 2G15G27G 7G26G 4G13
   3132626.22949   2412151.86445  24388222.475    24388232.625    24388222.989
    295636.63349    212680.55547  21347559.022    21347566.903    21347559.681
    392797.96849    305003.57246  23589569.512    23589579.033    23589569.934
   2020593.32449   1554449.55547  21384418.142    21384426.360    21384418.962
   -634108.04249   -488997.85947  20400198.835    20400206.990    20400199.588
   -102930.72349    -49885.07047  22704875.759    22704884.535    22704876.878
  -1862284.56949  -1436532.46445  24898606.238    24898617.834    24898608.336
   3121323.49749   2410714.22146  23520414.860    23520423.455    23520415.772
 98  5 13 15 34 30.0000000  0  8G19G 2G15G27G 7G26G 4G13
   3236509.20949   2493099.54845  24407991.225    24408001.150    24407991.353
    308610.42049    222789.98447  21350027.953    21350035.786    21350028.510
    415807.88249    322933.36046  23593948.415    23593957.706    23593948.563
   2093163.11249   1610997.39747  21398227.720    21398235.951    21398228.611
   -645540.95749   -497906.62947  20398023.371    20398031.398    20398024.049
    -96535.01249    -44901.43647  22706092.738    22706101.574    22706093.910
  -1964520.88449  -1516197.06145  24879151.837    24879162.840    24879153.427
   3224176.05449   2490858.99546  23539987.156    23539995.632    23539988.056
 98  5 13 15 35  0.0000000  0  8G19G 2G15G27G 7G26G 4G13
   3340609.75149   2574216.75445  24427800.852    24427811.084    24427801.058
    321810.63349    233075.85147  21352539.829    21352547.700    21352540.439
    439472.71249    341373.47546  23598451.732    23598461.003    23598451.865
   2166221.62649   1667926.06147  21412130.396    21412138.594    21412131.235
   -656429.89049   -506391.51547  20395951.252    20395959.351    20395951.994
    -89541.60749    -39452.06047  22707423.609    22707432.374    22707424.733
  -2066761.51149  -1595865.02545  24859695.901    24859706.904    24859697.645
   3327147.08149   2571096.09746  23559581.632    23559590.493    23559582.848
 98  5 13 15 35 30.0000000  0  8G19G 2G15G27G 7G26G 4G13
   3444940.45249   2655513.29745  24447654.080    24447664.558    24447654.578
    335231.27249    243533.47347  21355093.676    21355101.530    21355094.323
    463788.50349    360320.83546  23603078.477    23603088.138    23603078.960
   2239765.45649   1725232.90147  21426125.295    21426133.587    21426126.190
   -666782.48249   -514458.47247  20393981.314    20393989.390    20393981.986
    -81955.27149    -33540.67147  22708867.309    22708876.025    22708868.402
  -2169029.76749  -1675554.49545  24840235.045    24840245.637    24840236.568
   3430239.02749   2651427.40646  23579199.318    23579208.225    23579200.720
 98  5 13 15 36  0.0000000  0  8G19G 2G15G27G 7G26G 4G13
   3549493.10649   2736982.81145  24467549.483    24467560.437    24467550.327
    348866.71149    254158.47547  21357688.521    21357696.278    21357689.086
    488740.57049    379763.98146  23607826.556    23607836.395    23607827.154
   2313775.59449   1782903.08747  21440209.090    21440217.291    21440209.901
   -676617.57949   -522122.18947  20392109.703    20392117.890    20392110.407
    -73772.88949    -27164.82147  22710424.324    22710433.135    22710425.465
  -2271349.24649  -1755283.89845  24820764.671    24820775.205    24820765.937
   3533447.88149   2731849.78746  23598839.727    23598848.334    23598840.745
 98  5 13 15 36 30.0000000  0  8G19G 2G15G27G 7G26G 4G13
   3654286.09149   2818639.57045  24487490.584    24487501.905    24487491.884
    362749.62749    264976.31947  21360330.423    21360338.109    21360330.930
    514347.00849    399717.01946  23612699.356    23612709.129    23612699.880
   2388277.69149   1840956.62547  21454386.224    21454394.648    21454387.216
   -685913.67249   -529365.90747  20390340.604    20390348.881    20390341.349
    -64977.79949    -20311.53847  22712097.987    22712106.792    22712099.151
  -2373707.96749  -1835043.92945  24801286.303    24801297.086    24801287.693
   3636808.72949   2812390.64746  23618508.830    23618517.293    23618509.775
 98  5 13 15 37  0.0000000  0  8G19G 2G15G27G 7G26G 4G13
   3759306.63249   2900473.65945  24507475.668    24507486.716    24507476.469
    376867.89849    275977.55647  21363016.923    21363024.767    21363017.529
    540596.77349    420171.37446  23617694.683    23617704.324    23617695.087
   2463281.00149   1899400.71747  21468659.048    21468667.402    21468659.928
   -694687.56249   -536202.70747  20388670.913    20388679.280    20388671.714
    -55582.25349    -12990.36847  22713885.853    22713894.691    22713887.088
  -2476110.52849  -1914838.10545  24781799.482    24781810.414    24781801.006
   3740320.38549   2893049.00845  23638206.550    23638215.061    23638207.457
 98  5 13 15 37 30.0000000  0  9G19G 2G15G 9G27G 7G26G 4G13
   3864535.66649   2982470.20045  24527500.341    24527511.287    24527500.895
    391194.36249    287141.02247  21365743.091    21365751.093    21365743.780
    567475.62349    441115.90046  23622809.659    23622819.193    23622809.932
                                  24993544.210
   2538771.80049   1958224.67047  21483024.451    21483032.858    21483025.326
   -702956.98449   -542646.42147  20387097.272    20387105.654    20387098.066
    -45606.21249     -5216.86347  22715784.345    22715793.144    22715785.515
  -2578546.24049  -1994658.14145  24762306.852    24762317.590    24762308.071
   3843966.28449   2973811.94845  23657929.548    23657938.277    23657930.507
 98  5 13 15 38  0.0000000  0  9G19G 2G15G 9G27G 7G26G 4G13
   3969985.39249   3064638.73745  24547566.494    24547577.889    24547567.376
    405739.14149    298474.59647  21368510.887    21368518.942    21368511.567
    594998.33749    462562.13846  23628047.001    23628056.622    23628047.368
                                  24974681.263
   2614771.08749   2017444.84847  21497486.691    21497495.089    21497487.536
   -710710.15349   -548687.86047  20385621.949    20385630.266    20385622.722
    -35045.35249      3012.34547  22717794.035    22717802.856    22717795.190
  -2680979.06549  -2074475.91645  24742813.771    24742825.240    24742815.598
   3947743.73149   3054677.42945  23677677.587    23677686.467    23677678.748
 98  5 13 15 38 30.0000000  0  9G19G 2G15G 9G27G 7G26G 4G13
   4075624.43949   3146954.79845  24567669.106    24567680.659    24567669.816
    420478.52149    309959.81047  21371315.734    21371323.790    21371316.427
    623142.08449    484492.28646  23633402.428    23633412.237    23633403.063
                                  24955833.739
   2691247.91349   2077037.13747  21512039.748    21512048.222    21512040.639
   -717967.67249   -554343.07047  20384240.928    20384249.196    20384241.732
    -23943.03649     11663.46647  22719906.755    22719915.597    22719907.890
  -2783420.37149  -2154300.37645  24723319.235    24723331.138    24723321.844
   4051622.30249   3135621.67745  23697445.242    23697453.948    23697446.235
 98  5 13 15 39  0.0000000  0  9G19G 2G15G 9G27G 7G26G 4G13
   4181445.47949   3229412.64845  24587806.312    24587817.773    24587807.044
    435411.78849    321596.10747  21374157.591    21374165.557    21374158.172
    651900.04049    506901.04446  23638874.989    23638884.725    23638875.558
                                  24937011.982
   2768178.90649   2136983.31647  21526679.192    21526687.778    21526680.144
   -724740.61349   -559620.68847  20382952.105    20382960.328    20382952.935
    -12306.74949     20730.66547  22722121.160    22722129.896    22722122.250
  -2885868.24149  -2234129.91345  24703824.586    24703836.151    24703826.933
   4155576.80449   3216625.10345  23717227.359    23717235.817    23717228.178
 98  5 13 15 39 30.0000000  0  9G19G 2G15G 9G27G 7G26G 4G13
   4287446.04749   3312010.38945  24607977.683    24607988.738    24607978.404
    450552.67949    333394.18847  21377038.750    21377046.774    21377039.394
    681277.76449    529792.72246  23644465.366    23644475.135    23644465.992
   -231947.65145                  24918205.753    24918220.777
   2845559.98249   2197280.22347  21541404.282    21541412.944    21541405.307
   -731014.72349   -564509.60847  20381758.267    20381766.363    20381759.046
      -124.93749     30222.95347  22724439.298    22724448.062    22724440.388
  -2988314.98549  -2313958.61745  24684330.517    24684341.328    24684332.167
   4259603.44649   3297684.74845  23737023.150    23737031.457    23737023.890
 98  5 13 15 40  0.0000000  0  9G19G 2G15G 9G27G 7G26G 4G13
   4393620.03749   3394743.27245  24628182.521    24628193.135    24628183.028
    465918.76549    345367.74747  21379962.868    21379970.830    21379963.500
    711274.13949    553166.47846  23650173.686    23650183.277    23650174.188
   -721129.03049   -308887.44245  24899417.144    24899432.298    24899422.132
   2923380.57449   2257919.60647  21556213.239    21556221.775    21556214.135
   -736786.64449   -569007.21347  20380659.852    20380667.960    20380660.664
     12609.48149     40145.83647  22726862.629    22726871.425    22726863.730
  -3090785.61949  -2393805.94445  24664831.198    24664841.742    24664832.598
   4363699.32249   3378798.34745  23756831.793    23756840.389    23756832.836
 98  5 13 15 40 30.0000000  0  9G19G 2G15G 9G27G 7G26G 4G13
   4499954.28049   3477601.06645  24648417.770    24648427.767    24648418.025
    481520.19149    357524.68747  21382931.619    21382939.670    21382932.358
    741891.86349    577024.39446  23656000.297    23656009.690    23656000.523
   -819796.09749   -385770.90355  24880641.965    24880655.715    24880646.133
   3001623.54849   2318888.11047  21571102.423    21571110.970    21571103.329
   -742035.88949   -573097.53547  20379660.994    20379669.078    20379661.755
     25901.47849     50503.20247  22729391.990    22729400.900    22729393.177
  -3193279.21649  -2473671.16645  24645327.065    24645337.796    24645328.677
   4467858.40649   3459961.20845  23776652.677    23776661.237    23776653.743
 98  5 13 15 41  0.0000000  0  9G19G 2G15G 9G27G 7G26G 4G13
   4606429.90949   3560569.05345  24668679.259    24668689.658    24668679.685
    497333.42249    369846.67047  21385940.915    21385948.852    21385941.559
    773113.61049    601352.97846  23661941.631    23661950.976    23661941.875
   -918422.40959   -462622.59745  24861874.496    24861887.090    24861877.103
   3080277.50749   2380176.86347  21586069.966    21586078.381    21586070.754
   -746769.05749   -576785.72647  20378760.262    20378768.407    20378761.040
     39747.16549     61292.01347  22732026.768    22732035.704    22732027.987
  -3295811.30249  -2553566.34645  24625815.202    24625826.545    24625817.311
   4572057.02249   3541154.85445  23796481.243    23796489.676    23796482.259
 98  5 13 15 41 30.0000000  0  9G19G 2G15G 9G27G 7G26G 4G13
   4713039.94449   3643641.73145  24688966.074    24688977.154    24688967.056
    513349.85149    382326.98747  21388988.829    21388996.679    21388989.403
    804937.04549    626150.40446  23667997.534    23668006.786    23667997.702
  -1017006.95549   -539441.74645  24843115.120    24843126.845    24843116.843
   3159346.28749   2441788.85747  21601116.289    21601124.745    21601117.137
   -750986.58749   -580072.12147  20377957.639    20377965.893    20377958.465
     54136.84949     72504.71647  22734765.208    22734774.021    22734766.316
  -3398379.99049  -2633490.06045  24606297.728    24606308.393    24606299.470
   4676304.00849   3622386.18745  23816319.148    23816327.375    23816319.974
 98  5 13 15 42  0.0000000  0  9G19G 2G15G 9G27G 7G26G 4G13
   4819802.61149   3726833.35245  24709282.747    24709293.589    24709283.380
    529574.19149    394969.31647  21392076.206    21392084.111    21392076.793
    837373.00449    651425.11046  23674169.989    23674179.152    23674170.121
  -1115539.10949   -616220.07545  24824365.604    24824376.347    24824366.838
   3238841.94349   2503733.48447  21616243.740    21616252.342    21616244.696
   -754686.18549   -582954.93147  20377253.573    20377261.906    20377254.481
     69072.89649     84143.15147  22737607.567    22737616.337    22737608.626
  -3500966.51949  -2713427.68345  24586776.137    24586786.960    24586777.986
   4780604.00049   3703658.82445  23836166.750    23836175.219    23836167.782
 98  5 13 15 42 30.0000000  0  9G19G 2G15G 9G27G 7G26G 4G13
   4926693.30249   3810124.72645  24729624.242    24729634.082    24729624.263
    545978.35849    407751.76547  21395197.814    21395205.780    21395198.390
    870401.04749    677161.18846  23680455.009    23680464.214    23680455.201
  -1214029.56249   -692965.90145  24805623.821    24805634.254    24805624.642
   3318765.29049   2566011.36147  21631452.878    21631461.309    21631453.653
   -757897.39349   -585457.17947  20376642.563    20376650.864    20376643.471
     84531.33949     96188.65147  22740549.178    22740558.085    22740550.326
  -3603567.24849  -2793376.36345  24567251.830    24567262.650    24567253.761
   4884935.51749   3784956.03045  23856020.520    23856028.986    23856021.589
 98  5 13 15 43  0.0000000  0  9G19G 2G15G 9G27G 7G26G 4G13
   5033734.70849   3893533.54645  24749993.225    24750003.375    24749993.724
    562563.44149    420675.18947  21398353.867    21398361.849    21398354.409
    904025.24649    703361.80346  23686853.494    23686862.777    23686853.683
  -1312441.61249   -769650.60245  24786896.662    24786906.908    24786897.357
   3399137.48049   2628639.00047  21646746.977    21646755.694    21646747.990
   -760646.93749   -587599.68947  20376119.324    20376127.662    20376120.264
    100523.43149    108649.99347  22743592.322    22743601.305    22743593.508
  -3706177.04949  -2873332.04045  24547726.349    24547736.679    24547727.992
   4989318.76349   3866293.54845  23875884.413    23875892.621    23875885.172
 98  5 13 15 43 30.0000000  0  9G19G 2G15G 9G27G 7G26G 4G13
   5140942.19849   3977071.80145  24770393.992    24770404.317    24770394.820
    579337.79149    433746.09547  21401545.891    21401553.963    21401546.485
    938253.97849    730033.48246  23693367.046    23693376.364    23693367.303
  -1410748.48749   -846253.36145  24768189.445    24768199.881    24768190.180
   3479969.61749   2691625.03647  21662128.943    21662137.588    21662129.890
   -762945.06049   -589390.44047  20375682.069    20375690.393    20375683.015
    117055.57749    121532.14847  22746738.251    22746747.317    22746739.479
  -3808789.34049  -2953289.66945  24528200.114    24528210.183    24528201.658
   5093759.14549   3947675.56045  23895759.084    23895767.165    23895759.639
 98  5 13 15 44  0.0000000  0  9G19G 2G15G 9G27G 7G26G 4G13
   5248298.66949   4060726.11545  24790822.707    24790833.775    24790824.221
    596285.47549    446952.06347  21404771.097    21404779.051    21404771.611
    973076.71349    757168.03146  23699993.698    23700003.038    23699993.942
  -1508955.99749   -922778.68245  24749501.005    24749511.471    24749502.000
   3561252.31849   2754962.15747  21677596.706    21677605.206    21677597.476
   -764795.81549   -590832.59947  20375329.936    20375338.231    20375330.838
    134128.50649    134835.69547  22749987.219    22749996.160    22749988.346
  -3911418.96049  -3033260.75545  24508670.988    24508680.439    24508671.705
   5198227.71749   4029079.58445  23915638.793    23915646.957    23915639.412
 98  5 13 15 44 30.0000000  0  9G19G 2G15G 9G27G 7G26G 4G13
   5355813.10348   4144503.51545  24811281.525    24811293.267    24811283.337
    613412.09949    460297.47047  21408030.249    21408038.182    21408030.747
   1008503.39549    784773.16946  23706734.800    23706744.628    23706735.507
  -1607056.39149   -999220.53945  24730833.342    24730843.639    24730834.147
   3642987.39949   2818651.78347  21693150.289    21693158.933    21693151.141
   -766183.95349   -591914.27447  20375065.882    20375074.113    20375066.732
    151755.36349    148570.87247  22753341.479    22753350.458    22753342.667
  -4014064.93449  -3113244.57645  24489138.212    24489147.544    24489138.669
   5302747.67849   4110523.62645  23935528.230    23935536.543    23935528.840
 98  5 13 15 45  0.0000000  0  9G19G 2G15G 9G27G 7G26G 4G13
   5463504.79349   4228419.03145  24831774.833    24831786.518    24831776.390
    630732.01849    473793.49547  21411326.078    21411334.067    21411326.636
   1044552.75449    812863.50046  23713594.805    23713604.636    23713595.558
  -1705034.92549  -1075567.43945  24712188.743    24712199.052    24712189.483
   3725176.06649   2882694.85347  21708790.334    21708799.010    21708791.158
   -767081.28249   -592613.50247  20374895.082    20374903.322    20374895.929
    169955.35449    162752.64847  22756804.782    22756813.778    22756806.024
  -4116719.11449  -3193234.78145  24469603.136    24469613.129    24469604.199
   5407332.31249   4192018.07445  23955429.550    23955438.535    23955430.727
 98  5 13 15 45 30.0000000  0  9G19G 2G15G 9G27G 7G26G 4G13
   5571332.75748   4312440.69845  24852295.070    24852305.467    24852295.651
    648228.01049    487426.71947  21414655.472    21414663.477    21414656.005
   1081204.05749    841422.89046  23720569.333    23720579.187    23720570.078
  -1802921.64549  -1151842.79145  24693561.641    24693571.813    24693562.244
   3807789.21749   2947068.67947  21724511.098    21724519.833    21724511.933
   -767485.85649   -592928.76347  20374818.059    20374826.331    20374818.923
    188701.74849    177360.18547  22760372.127    22760381.095    22760373.370
  -4219400.71449  -3273246.32845  24450063.055    24450073.437    24450064.485
   5511947.67649   4273536.47545  23975336.726    23975346.290    23975338.388
 98  5 13 15 46  0.0000000  0  9G19G 2G15G 9G27G 7G26G 4G13
   5679295.76249   4396567.60345  24872840.091    24872850.195    24872840.154
    665913.50349    501207.60647  21418020.852    21418028.952    21418021.444
   1118461.61549    870454.67546  23727659.438    23727669.216    23727659.924
  -1900715.62849  -1228045.87045  24674951.977    24674962.258    24674952.625
   3890818.49049   3011766.76647  21740311.156    21740319.818    21740311.916
   -767376.69249   -592843.70547  20374838.846    20374847.111    20374839.669
    207993.34949    192392.56847  22764043.191    22764052.201    22764044.428
  -4322106.20649  -3353276.48345  24430518.303    24430529.180    24430520.336
   5616606.20949   4355088.50545  23995252.620    23995262.333    23995254.228
 98  5 13 15 46 30.0000000  0  9G19G 2G15G 9G27G 7G26G 4G13
   5787416.99149   4480817.84145  24893413.804    24893424.986    24893414.960
    683815.44849    515157.15947  21421427.483    21421435.592    21421428.070
   1156336.27249    899967.31346  23734866.635    23734876.628    23734867.212
  -1998411.03049  -1304172.14545  24656361.112    24656371.428    24656361.835
   3974268.45749   3076792.66047  21756191.134    21756199.854    21756191.973
   -766744.08449   -592350.77147  20374959.273    20374967.505    20374960.092
    227840.45449    207857.80547  22767820.024    22767828.958    22767821.250
  -4424809.53749  -3433304.93445  24410974.510    24410985.283    24410976.498
   5721330.34849   4436691.67045  24015180.945    24015190.735    24015182.545
 98  5 13 15 47  0.0000000  0  9G19G 2G15G 9G27G 7G26G 4G13
   5895694.23049   4565189.62045  24914018.278    24914029.528    24914019.540
    701949.58149    529287.63647  21424878.282    21424886.407    21424878.883
   1194828.20449    929960.96646  23742191.577    23742201.432    23742191.954
  -2095997.29749  -1380213.38345  24637790.857    24637801.341    24637791.723
   4058144.68749   3142150.70847  21772152.250    21772160.996    21772153.135
   -765587.19349   -591449.30547  20375179.480    20375187.667    20375180.276
    248246.78049    223758.80047  22771703.197    22771712.062    22771704.428
  -4527484.37849  -3513311.21845  24391436.384    24391447.048    24391438.022
   5826101.92249   4518331.78645  24035118.098    24035128.230    24035119.702
 98  5 13 15 47 30.0000000  0  9G19G 2G15G 9G27G 7G26G 4G13
   6004139.43349   4649692.27545  24934655.127    24934666.141    24934656.137
    720329.32949    543609.50147  21428375.818    21428383.947    21428376.451
   1233942.23449    960439.35646  23749634.857    23749644.636    23749635.156
  -2193469.31449  -1456165.58045  24619242.269    24619253.147    24619243.513
   4142459.79449   3207850.74047  21788196.938    21788205.667    21788197.763
   -763909.22049   -590141.80047  20375498.813    20375506.962    20375499.588
    269214.41349    240097.17947  22775693.333    22775701.995    22775694.473
  -4630103.43249  -3593274.01645  24371908.463    24371919.299    24371910.095
   5930929.55849   4600015.59145  24055066.137    24055076.305    24055067.680
 98  5 13 15 48  0.0000000  0  9G19G 2G15G 9G27G 7G26G 4G13
   6112772.60949   4734341.43345  24955327.367    24955338.325    24955328.425
    738966.83349    558132.21647  21431922.413    21431930.568    21431923.080
   1273686.41649    991408.77546  23757198.088    23757207.785    23757198.345
  -2290825.31549  -1532027.38845  24600715.784    24600727.002    24600717.258
   4227227.86049   3273903.71847  21804327.821    21804336.519    21804328.657
   -761714.55949   -588431.68247  20375916.504    20375924.635    20375917.237
    290752.21149    256879.83547  22779791.854    22779800.522    22779792.995
  -4732650.56249  -3673180.78645  24352394.359    24352405.219    24352395.911
   6035822.98949   4681750.65945  24075026.881    24075037.007    24075028.223
 98  5 13 15 48 30.0000000  0  9G19G 2G15G 9G27G 7G26G 4G13
   6221603.03349   4819144.27445  24976037.142    24976048.219    24976038.231
    757867.43549    572859.94147  21435519.134    21435527.258    21435519.780
   1314071.02949   1022877.23546  23764883.056    23764892.740    23764883.307
  -2388045.53949  -1607783.39145  24582215.387    24582226.646    24582216.839
   4312468.30949   3340324.79447  21820548.614    21820557.275    21820549.455
   -759012.85249   -586326.46747  20376430.635    20376438.808    20376431.399
    312870.34749    274114.71047  22784000.810    22784009.473    22784001.942
  -4835101.58049  -3753012.63345  24332898.402    24332909.416    24332899.989
   6140784.88149   4763539.09145  24095000.413    24095010.710    24095001.840
 98  5 13 15 49  0.0000000  0  9G19G 2G15G 9G27G 7G26G 4G13
   6330603.18049   4904079.37945  24996778.755    24996790.261    24996780.409
    777010.13049    587776.31547  21439161.834    21439170.021    21439162.511
   1355086.45449   1054837.22646  23772687.990    23772697.778    23772688.294
  -2485119.54249  -1683425.46445  24563742.993    24563754.078    24563744.250
   4398183.20949   3407115.57347  21836859.623    21836868.342    21836860.500
   -755823.70549   -583841.42347  20377037.517    20377045.714    20377038.255
    335554.71549    291790.80047  22788317.408    22788326.247    22788318.625
  -4937471.42449  -3832781.25245  24313418.453    24313429.081    24313419.615
   6245804.05449   4845372.14645  24114985.208    24114995.233    24114986.303
 98  5 13 15 49 30.0000000  0  9G19G 2G15G 9G27G 7G26G 4G13
   6439765.22949   4989140.63045  25017551.989    25017563.025    25017553.409
    796379.66249    602869.44147  21442847.804    21442855.961    21442848.408
   1396729.52649   1087286.30246  23780612.454    23780622.233    23780612.771
  -2582050.28249  -1758955.90046  24545297.637    24545308.862    24545298.874
   4484367.42449   3474272.04647  21853259.882    21853268.696    21853260.880
   -752159.78149   -580986.42847  20377734.763    20377742.945    20377735.450
    358800.41249    309904.28947  22792740.834    22792749.824    22792742.132
  -5039780.32149  -3912502.37445  24293949.629    24293960.307    24293950.822
   6350888.26249   4927255.87445  24134982.451    24134992.072    24134983.236
 98  5 13 15 50  0.0000000  0  9G19G 2G15G 9G27G 7G26G 4G13
   6549073.33349   5074315.73145  25038352.805    25038363.759    25038354.055
    815962.89049    618129.08447  21446574.359    21446582.558    21446574.944
   1438996.52849   1120221.54946  23788655.488    23788665.440    23788655.964
  -2678830.32049  -1834368.91345  24526880.745    24526892.256    24526882.170
   4571004.98049   3541781.77947  21869746.491    21869755.343    21869747.564
   -748019.96549   -577760.60847  20378522.463    20378530.759    20378523.193
    382604.91749    328453.21747  22797270.740    22797279.703    22797272.002
  -5142035.37549  -3992181.54845  24274490.748    24274501.869    24274492.272
   6456038.11649   5009190.75845  24154992.170    24155001.412    24154992.721
 98  5 13 15 50 30.0000000  0  9G19G 2G15G 9G27G 7G26G 4G13
   6658526.44349   5159603.80745  25059180.641    25059192.225    25059182.328
    835755.97249    633552.24147  21450340.731    21450349.100    21450341.407
   1481895.03349   1153648.88346  23796818.999    23796828.800    23796819.351
  -2775447.41449  -1909654.95246  24508495.279    24508506.735    24508496.593
   4658100.50549   3609648.37147  21886320.327    21886329.145    21886321.408
   -743385.60049   -574149.42847  20379404.180    20379412.674    20379405.032
    406975.99749    347443.62747  22801908.469    22801917.415    22801909.705
  -5244221.39049  -4071806.93645  24255045.394    24255056.520    24255046.887
   6561258.49449   5091180.63545  24175014.997    24175024.230    24175015.576
 98  5 13 15 51  0.0000000  0  9G19G 2G15G 9G27G 7G26G 4G13
   6768135.67749   5245013.50145  25080038.410    25080050.228    25080040.128
    855765.25549    649143.87447  21454148.418    21454156.792    21454149.044
   1525428.45649   1187570.97146  23805103.134    23805112.976    23805103.526
  -2871904.97949  -1984816.68946  24490140.194    24490151.553    24490141.393
   4745661.20149   3677877.43347  21902982.727    21902991.445    21902983.712
   -738240.25249   -570140.08047  20380383.274    20380391.841    20380384.114
    431922.92949    366882.76247  22806655.715    22806664.758    22806656.949
  -5346331.28649  -4151373.00045  24235614.214    24235625.678    24235616.001
   6666547.63749   5173224.04045  24195050.821    24195060.118    24195051.524
 98  5 13 15 51 30.0000000  0  9G19G 2G15G 9G27G 7G26G 4G13
   6877904.93749   5330547.89345  25100927.263    25100938.654    25100928.559
    875988.94349    664902.57447  21457996.867    21458005.232    21457997.476
   1569587.67549   1221980.67746  23813506.116    23813516.284    23813506.750
  -2968229.72349  -2059874.91646  24471810.353    24471821.574    24471811.265
   4833665.61149   3746452.24647  21919729.614    21919738.177    21919730.462
   -732575.76149   -565726.20547  20381461.149    20381469.743    20381462.031
    457430.87849    386759.04847  22811509.723    22811518.865    22811510.918
  -5448371.51549  -4230884.80145  24216196.715    24216208.049    24216198.344
   6771882.44649   5255303.07845  24215095.388    24215104.665    24215096.198
 98  5 13 15 52  0.0000000  0  9G19G 2G15G 9G27G 7G26G 4G13
   6987846.46249   5416216.52145  25121849.123    25121859.933    25121849.880
    896453.64849    680849.08147  21461891.234    21461899.568    21461891.818
   1614381.33549   1256884.75646  23822030.140    23822040.270    23822030.691
  -3064406.11049  -2134817.52246  24453508.601    24453519.829    24453509.478
   4922128.08949   3815383.99047  21936563.233    21936572.109    21936564.313
   -726362.23049   -560884.50347  20382643.460    20382652.143    20382644.427
    483501.06649    407073.44347  22816470.739    22816479.904    22816471.907
  -5550334.45549  -4310336.34745  24196794.113    24196805.046    24196795.413
   6877257.05249   5337413.06845  24235147.633    24235156.853    24235148.151
 98  5 13 15 52 30.0000000  0  9G19G 2G15G 9G27G 7G26G 4G13
   7097960.88749   5502019.89445  25142802.291    25142814.221    25142803.976
    917170.54249    696992.09547  21465833.480    21465841.869    21465834.125
   1659794.83949   1292271.83246  23830672.279    23830682.226    23830672.587
  -3160451.78349  -2209658.28646  24435231.783    24435242.922    24435232.593
   5011045.94249   3884670.57647  21953483.847    21953492.699    21953484.835
   -719613.67749   -555625.90047  20383927.672    20383936.350    20383928.639
    510122.39749    427817.29547  22821536.663    22821545.805    22821537.791
  -5652240.49749  -4389743.59245  24177402.271    24177412.958    24177403.299
   6982638.14949   5419528.20045  24255201.240    24255210.165    24255201.640
 98  5 13 15 53  0.0000000  0  9G19G 2G15G 9G27G 7G26G 4G13
   7208252.29749   5587961.13545  25163789.561    25163801.999    25163791.737
    938151.72949    713341.05047  21469826.176    21469834.453    21469826.744
   1705821.06449   1328136.35046  23839430.656    23839440.870    23839431.081
  -3256355.44349  -2284388.39346  24416982.067    24416993.068    24416982.746
   5100403.25549   3954299.59547  21970488.055    21970496.903    21970488.977
   -712342.19649   -549959.82047  20385311.470    20385320.059    20385312.389
    537287.99549    448985.26347  22826706.055    22826715.254    22826707.226
  -5754097.19849  -4469112.38845  24158019.190    24158030.162    24158020.546
   7088018.99249   5501643.05845  24275254.322    24275263.547    24275255.073
 98  5 13 15 53 30.0000000  0  8G 2G15G 9G27G 7G26G 4G13
    959384.81649    729886.29547  21473866.768    21473874.985    21473867.318
   1752448.27349   1364469.16946  23848303.495    23848313.796    23848304.030
  -3352113.67349  -2359005.18446  24398759.877    24398770.901    24398760.593
   5190172.45949   4024249.56847  21987570.635    21987579.445    21987571.479
   -704552.97049   -543890.30347  20386793.720    20386802.224    20386794.619
    564986.06949    470568.14847  22831976.752    22831986.052    22831978.061
  -5855911.50349  -4548448.16345  24138644.282    24138655.410    24138645.876
   7193396.39149   5583755.28045  24295306.798    24295316.141    24295307.801
 98  5 13 15 54  0.0000000  0  8G 2G15G 9G27G 7G26G 4G13
    980859.31749    746619.65047  21477953.132    21477961.441    21477953.780
   1799670.18749   1401265.40746  23857289.577    23857299.891    23857290.142
  -3447726.71749  -2433508.83446  24380565.233    24380576.312    24380566.013
   5280348.51449   4094516.56847  22004730.547    22004739.418    22004731.422
   -696273.78549   -537438.99547  20388369.289    20388377.684    20388370.125
    593222.54349    492570.55747  22837350.014    22837359.324    22837351.386
  -5957674.37049  -4627743.84645  24119279.390    24119290.577    24119280.945
   7298774.66549   5665868.20245  24315359.697    24315368.685    24315360.702
 98  5 13 15 54 30.0000000  0  8G 2G15G 9G27G 7G26G 4G13
   1002576.29949    763541.94347  21482085.775    21482094.070    21482086.407
   1847500.48549   1438535.70046  23866391.118    23866401.793    23866391.993
  -3543183.18849  -2507890.48746  24362400.584    24362411.469    24362401.193
   5370938.54149   4165106.13747  22021969.631    22021978.169    22021970.167
   -687508.47149   -530608.88847  20390037.268    20390045.685    20390038.126
    622015.30649    515006.43647  22842829.224    22842838.483    22842830.531
  -6059340.08949  -4706963.84145  24099933.282    24099944.158    24099934.500
   7404169.19649   5747993.73545  24335415.488    24335424.843    24335416.694
 98  5 13 15 55  0.0000000  0  8G 2G15G 9G27G 7G26G 4G13
   1024501.54949    780626.52847  21486258.036    21486266.289    21486258.666
   1895932.79149   1476275.11346  23875607.896    23875618.238    23875608.417
  -3638489.33049  -2582155.01046  24344264.467    24344275.254    24344265.074
   5461927.69949   4236006.72447  22039284.242    22039292.932    22039284.835
   -678268.00249   -523408.53047  20391795.652    20391804.048    20391796.484
    651342.91549    537859.08247  22848410.106    22848419.424    22848411.472
  -6160902.70149  -4786103.49445  24080606.136    24080617.341    24080607.646
   7509582.15749   5830133.63445  24355474.390    24355484.162    24355476.126
 98  5 13 15 55 30.0000000  0  8G 2G15G 9G27G 7G26G 4G13
   1046620.68849    797862.19647  21490467.186    21490475.419    21490467.838
   1944955.86449   1514474.86946  23884936.960    23884947.069    23884937.208
  -3733673.59649  -2656324.56446  24326151.461    24326162.257    24326152.147
   5553321.97349   4307222.98347  22056675.941    22056684.765    22056676.608
   -668565.30749   -515847.99447  20393641.984    20393650.453    20393642.826
    681192.51249    561118.47447  22854090.392    22854099.711    22854091.737
  -6262371.77649  -4865170.28945  24061297.147    24061308.443    24061298.572
   7615000.68549   5912277.87645  24375535.227    24375544.546    24375536.668
 98  5 13 15 56  0.0000000  0  8G 2G15G 9G27G 7G26G 4G13
   1068944.91149    815257.67147  21494715.341    21494723.606    21494715.998
   1994569.56049   1553134.83046  23894377.894    23894388.310    23894378.451
  -3828739.01549  -2730401.51246  24308061.194    24308071.938    24308061.805
   5645134.88449   4378765.46247  22074147.168    22074156.243    22074148.047
   -658410.54849   -507935.20647  20395574.385    20395582.890    20395575.240
    711557.67649    584779.59847  22859868.746    22859878.075    22859870.112
  -6363737.24949  -4944156.35845  24042007.705    24042019.261    24042009.297
   7720410.23949   5994415.19045  24395593.594    24395603.300    24395595.464
 98  5 13 15 56 30.0000000  0  8G 2G15G 9G27G 7G26G 4G13
   1091462.78249    832804.03547  21499000.333    21499008.676    21499000.983
   2044753.34449   1592239.04646  23903927.548    23903938.090    23903928.175
  -3923689.71649  -2804389.05846  24289992.496    24290003.411    24289993.282
   5737344.18149   4450616.80247  22091693.970    22091703.149    22091694.896
   -647807.72049   -499673.27147  20397592.014    20397600.585    20397592.926
    742415.84549    608824.88347  22865741.040    22865750.252    22865742.293
  -6465025.65249  -5023082.37945  24022733.289    24022744.622    24022734.702
   7825784.27549   6076524.73045  24415645.276    24415655.542    24415647.519
 98  5 13 15 57  0.0000000  0  8G 2G15G 9G27G 7G26G 4G13
   1114188.18349    850512.11747  21503324.833    21503333.200    21503325.482
   2095516.12549   1631794.41746  23913587.534    23913597.944    23913588.067
  -4018504.75549  -2878270.88046  24271949.775    24271960.717    24271950.594
   5829953.69349   4522780.00847  22109317.148    22109326.217    22109317.982
   -636743.93149   -491052.14647  20399697.407    20399705.977    20399698.326
    773787.67549    633270.42147  22871710.951    22871720.182    22871712.143
  -6566253.09449  -5101960.89745  24003470.111    24003481.714    24003471.756
   7931145.19149   6158624.10845  24435694.605    24435705.346    24435696.978
 98  5 13 15 57 30.0000000  0  8G 2G15G 9G27G 7G26G 4G13
   1137119.40449    868380.57447  21507688.527    21507696.910    21507689.180
   2146834.87749   1671783.03346  23923353.208    23923363.617    23923353.824
  -4113199.52549  -2952058.98846  24253929.899    24253940.815    24253930.753
   5922931.68149   4595230.33646  22127010.279    22127019.312    22127011.142
   -625241.21349   -482089.00647  20401886.313    20401894.888    20401887.212
    805664.32449    658109.31647  22877776.834    22877786.136    22877778.025
  -6667438.19849  -5180806.42945  23984215.213    23984226.824    23984216.892
   8036469.67549   6240695.04945  24455737.540    24455747.867    24455739.205
 98  5 13 15 58  0.0000000  0  8G 2G15G 9G27G 7G26G 4G13
   1160263.96549    886415.27347  21512092.764    21512101.230    21512093.462
   2198718.83549   1712212.05646  23933226.474    23933236.897    23933227.066
  -4207742.65349  -3025728.92246  24235938.857    24235949.861    24235939.810
   6016270.90949   4667962.15346  22144772.263    22144781.183    22144773.085
   -613293.30949   -472778.96547  20404159.981    20404168.480    20404160.823
    838063.65149    683355.50247  22883942.205    22883951.555    22883943.405
  -6768568.97649  -5259609.63945  23964970.642    23964982.296    23964972.290
   8141756.18549   6322736.44045  24475772.413    24475783.370    24475774.500
 98  5 13 15 58 30.0000000  0  8G 2G15G 9G27G 7G26G 4G13
   1183628.86049    904621.66147  21516539.012    21516547.451    21516539.674
   2251178.47249   1753089.65246  23943209.444    23943219.740    23943209.889
  -4302112.33349  -3099263.72046  24217980.806    24217991.919    24217981.852
   6109980.00049   4740982.17146  22162604.331    22162613.434    22162605.302
   -600884.05749   -463109.43047  20406521.257    20406529.841    20406522.169
    871004.05149    709023.29347  22890210.507    22890219.954    22890211.767
  -6869646.36449  -5338371.23545  23945735.832    23945748.013    23945737.839
   8247023.43849   6404762.81345  24495804.625    24495815.150    24495806.143
 98  5 13 15 59  0.0000000  0  8G 2G15G 9G27G 7G26G 4G13
   1207192.58149    922982.98547  21521023.027    21521031.551    21521023.743
   2304196.98949   1794402.74246  23953298.634    23953308.842    23953299.020
  -4396331.84849  -3172681.48246  24200051.145    24200062.548    24200052.453
   6204047.92049   4814281.79246  22180504.911    22180513.990    22180505.891
   -588034.16049   -453096.53547  20408966.501    20408975.106    20408967.451
    904454.33249    735088.40347  22896575.808    22896585.379    22896577.102
  -6970671.69649  -5417092.27845  23926511.710    23926523.484    23926513.367
   8352251.69349   6486758.74845  24515828.945    24515839.580    24515830.539
 98  5 13 15 59 30.0000000  0  8G 2G15G 9G27G 7G26G 4G13
   1230965.52549    941507.33347  21525546.966    21525555.445    21525547.626
   2357783.85049   1836158.70846  23963495.719    23963506.157    23963496.264
  -4490394.15249  -3245976.75346  24182151.610    24182163.109    24182152.968
   6298499.71249   4887880.53846  22198478.451    22198487.658    22198479.528
   -574725.68449   -442726.31347  20411499.032    20411507.642    20411499.995
    938404.48149    761543.01747  22903036.238    22903045.942    22903037.640
  -7071610.94749  -5495746.24145  23907303.833    23907315.352    23907305.227
   8457430.21149   6568715.99145  24535843.654    24535854.645    24535845.411
 98  5 13 16  0  0.0000000  0  8G 2G15G 9G27G 7G26G 4G13
   1254935.23149    960185.00547  21530108.282    21530116.756    21530108.963
   2411927.06049   1878348.16846  23973798.901    23973809.381    23973799.354
  -4584307.14649  -3319155.66446  24164280.547    24164292.021    24164281.904
   6393341.35749   4961783.06646  22216526.188    22216535.491    22216527.374
   -560962.08249   -432001.44547  20414118.112    20414126.809    20414119.140
    972840.44149    788376.19347  22909589.215    22909598.906    22909590.634
  -7172476.89349  -5574343.05045  23888109.500    23888121.201    23888111.098
   8562544.91049   6650623.50645  24555846.333    24555857.430    24555848.351
 98  5 13 16  0 30.0000000  0  8G 2G15G 9G27G 7G26G 4G13
   1279107.30349    979020.36547  21534708.041    21534716.552    21534708.772
   2466626.89349   1920971.36046  23984208.108    23984218.425    23984208.396
  -4678076.75749  -3392222.85646  24146437.056    24146448.189    24146438.122
   6488575.16849   5035991.17946  22234648.719    22234657.970    22234649.890
   -546740.74749   -420919.90347  20416824.419    20416833.060    20416825.391
   1007743.36649    815573.23647  22916231.011    22916240.789    22916232.477
  -7273266.62349  -5652880.48245  23868930.467    23868941.541    23868931.494
   8667610.90449   6732492.99845  24575840.104    24575851.286    24575841.914
 98  5 13 16  1  0.0000000  0  8G 2G15G 9G27G 7G26G 4G13
   1303489.35849    998019.34947  21539347.772    21539356.292    21539348.500
   2521884.97249   1964029.57546  23994723.401    23994733.738    23994723.723
  -4771714.71349  -3465187.46446  24128618.653    24128629.471    24128619.451
   6584206.28849   5110508.87646  22252846.756    22252856.106    22252847.949
   -532062.46349   -409482.29647  20419617.621    20419626.270    20419618.591
   1043106.21149    843128.64947  22922960.175    22922970.145    22922961.837
  -7373968.46649  -5731349.41945  23849767.290    23849778.488    23849768.569
   8772630.75549   6814326.51645  24595825.086    24595835.856    24595826.556
 98  5 13 16  1 30.0000000  0  8G 2G15G 9G27G 7G26G 4G13
   1328083.70049   1017183.74647  21544027.967    21544036.464    21544028.690
   2577686.03449   2007510.87346  24005342.042    24005352.390    24005342.319
  -4865229.39949  -3538056.00646  24110823.492    24110834.122    24110824.219
   6680217.50849   5185322.76246  22271117.197    22271126.474    22271118.269
   -516954.25649   -397709.68647  20422492.572    20422501.301    20422493.602
   1078933.99749    871046.35647  22929778.144    22929788.028    22929779.699
  -7474592.58649  -5809757.78545  23830619.065    23830630.221    23830620.486
   8877593.43849   6896115.57745  24615799.301    24615809.841    24615800.582
 98  5 13 16  2  0.0000000  0  8G 2G15G 9G27G 7G26G 4G13
   1352889.35349   1036512.80447  21548748.402    21548756.852    21548749.088
   2634030.59049   2051415.67846  24016063.874    24016074.461    24016064.412
  -4958623.22349  -3610830.37846  24093051.061    24093061.758    24093051.931
   6776590.26749   5260418.35346  22289456.365    22289465.642    22289457.410
   -501428.93849   -385612.05447  20425447.033    20425455.681    20425448.033
   1115235.50749    899333.19647  22936685.993    22936696.019    22936687.656
  -7575137.28649  -5888104.24445  23811486.228    23811497.041    23811487.393
   8982502.92749   6977863.16145  24635763.300    24635773.587    24635764.363
 98  5 13 16  2 30.0000000  0  8G 2G15G 9G27G 7G26G 4G13
   1377906.05449   1056006.31547  21553508.834    21553517.410    21553509.585
   2690928.76749   2095751.87346  24026891.079    24026901.909    24026891.807
  -5051891.23249  -3683506.69846  24075302.626    24075313.426    24075303.583
   6873333.74949   5335802.83146  22307866.263    22307875.372    22307867.124
   -485474.15949   -373179.77047  20428483.174    20428491.786    20428484.125
   1152018.02449    927994.83947  22943685.550    22943695.587    22943687.164
  -7675572.71049  -5966365.55645  23792373.598    23792384.735    23792375.175
   9087360.83349   7059570.50545  24655717.681    24655727.446    24655718.363
 98  5 13 16  3  0.0000000  0  8G 2G15G 9G27G 7G26G 4G13
   1403123.94049   1075656.58847  21558307.635    21558316.255    21558308.391
   2748373.53149   2140513.97346  24037822.655    24037833.287    24037823.216
  -5145041.90449  -3756091.58646  24057576.688    24057587.396    24057577.594
   6970444.28449   5411473.31746  22326345.450    22326354.995    22326346.663
   -469087.42349   -360410.90147  20431601.493    20431610.121    20431602.490
   1189288.95049    957037.06547  22950778.153    22950788.178    22950779.688
  -7775883.85049  -6044530.00445  23773285.016    23773296.004    23773286.621
   9192148.81249   7141223.36245  24675658.796    24675668.064    24675659.141
 98  5 13 16  3 30.0000000  0  8G 2G15G 9G27G 7G26G 4G13
   1428520.65749   1095446.21647  21563140.557    21563149.122    21563141.238
   2806348.69149   2185689.37146  24048854.714    24048865.636    24048855.484
  -5238065.23249  -3828577.24746  24039874.837    24039885.584    24039875.779
   7067889.49049   5487404.59446  22344888.595    22344898.271    22344889.913
   -452279.00349   -347313.44047  20434800.083    20434808.645    20434801.030
   1227036.45049    986450.65547  22957961.495    22957971.384    22957962.879
  -7876079.62149  -6122604.56345  23754218.754    23754229.255    23754220.008
   9296842.55349   7222802.79645  24695581.924    24695590.602    24695581.885
 98  5 13 16  4  0.0000000  0  8G 2G15G 9G27G 7G26G 4G13
   1454055.58049   1115343.53747  21567999.700    21568008.271    21568000.393
   2864837.16849   2231264.76346  24059984.865    24059995.668    24059985.570
  -5330967.11049  -3900968.27946  24022196.007    24022206.901    24022197.105
   7165643.76549   5563576.69546  22363491.033    22363500.400    22363492.056
   -435050.92449   -333888.97747  20438078.509    20438087.056    20438079.457
   1265236.71349   1016217.04347  22965230.886    22965240.716    22965232.275
  -7976183.79949  -6200607.73045  23735169.400    23735179.962    23735170.817
   9401418.58848   7304290.52945  24715481.372    24715490.681    24715481.931
 98  5 13 16  4 30.0000000  0  8G 2G15G 9G27G 7G26G 4G13
   1479784.56849   1135392.07347  21572895.763    21572904.360    21572896.436
   2923875.50749   2277268.61845  24071219.297    24071230.330    24071220.200
  -5423691.09149  -3973220.68346  24004551.327    24004562.069    24004552.373
   7263754.09349   5640026.24946  22382160.861    22382170.253    22382161.878
   -417362.75049   -320105.99047  20441444.480    20441453.016    20441445.423
   1303926.76349   1046365.08947  22972593.437    22972603.224    22972594.783
  -8076176.10049  -6278523.74345  23716141.402    23716151.937    23716142.891
   9505926.59048   7385725.20845  24735367.695    24735377.987    24735368.914
 98  5 13 16  5  0.0000000  0  8G 2G15G 9G27G 7G26G 4G13
   1505707.95449   1155592.09647  21577828.861    21577837.446    21577829.541
   2983450.44049   2323690.59346  24082555.941    24082567.141    24082556.919
  -5516235.09349  -4045332.85246  23986941.179    23986951.478    23986941.846
   7362206.68049   5716742.49046  22400895.520    22400905.232    22400896.816
   -399237.07649   -305982.10047  20444893.689    20444902.237    20444894.608
   1343090.75749   1076882.43847  22980046.048    22980055.915    22980047.442
  -8176082.99749  -6356373.19545  23697129.936    23697140.080    23697131.208
   9610369.95649   7467109.54245  24755241.919    24755252.896    24755243.615
 98  5 13 16  5 30.0000000  0  8G 2G15G 9G27G 7G26G 4G13
   1531829.07149   1175946.19447  21582799.570    21582808.175    21582800.259
   3043568.42149   2370535.72445  24093995.915    24094007.278    24093997.061
  -5608586.21949  -4117294.71746  23969367.129    23969377.662    23969368.007
   7461008.58149   5793730.92646  22419696.838    22419706.729    22419698.256
   -380683.09049   -291524.45847  20448424.379    20448433.003    20448425.345
   1382735.73549   1107774.58347  22987590.293    22987600.152    22987591.682
  -8275911.97849  -6434161.92445  23678132.524    23678143.242    23678134.383
   9714758.60149   7548451.25345  24775106.778    24775117.396    24775108.302
 98  5 13 16  6  0.0000000  0  8G 2G15G 9G27G 7G26G 4G13
   1558145.17049   1196452.22547  21587807.335    21587815.962    21587808.083
   3104216.79249   2417794.13945  24105537.018    24105548.328    24105538.062
  -5700776.01849  -4189130.87346  23951823.894    23951834.458    23951824.824
   7560160.85849   5870992.37346  22438565.301    22438574.830    22438566.384
   -361722.36849   -276749.87947  20452032.474    20452041.149    20452033.457
   1422845.55849   1139028.94647  22995223.169    22995232.832    22995224.370
  -8375681.53849  -6511904.35446  23659147.696    23659157.708    23659148.937
   9819079.55948   7629740.24445  24794959.291    24794968.875    24794959.861
 98  5 13 16  6 30.0000000  0  8G 2G15G 9G27G 7G26G 4G13
   1584661.92049   1217114.61147  21592853.339    21592861.939    21592854.076
   3165384.46449   2465457.21845  24117176.837    24117188.200    24117177.978
  -5792821.10749  -4260854.26446  23934308.357    23934318.789    23934309.103
   7659662.85749   5948526.33746  22457500.021    22457509.472    22457501.084
   -342363.78549   -261665.28247  20455716.274    20455725.015    20455717.265
   1463390.75049   1170622.54847  23002938.668    23002948.358    23002939.880
  -8475392.53049  -6589601.13146  23640173.106    23640183.366    23640174.526
   9923313.91848   7710961.69645  24814794.249    24814804.351    24814794.999
 98  5 13 16  7  0.0000000  0  8G 2G15G 9G27G 7G26G 4G13
   1611383.44949   1237936.56347  21597938.274    21597946.860    21597939.029
   3227093.07149   2513541.80145  24128919.454    24128930.904    24128920.845
  -5884707.81349  -4332454.23646  23916823.097    23916833.304    23916823.547
   7759522.97649   6026339.35346  22476503.069    22476512.315    22476503.971
   -322585.97249   -246254.00847  20459479.857    20459488.603    20459480.848
   1504391.31849   1202570.98547  23010740.836    23010750.565    23010742.046
  -8574982.43949  -6667203.57646  23621221.599    23621231.962    23621223.203
  10027460.42949   7792114.69445  24834612.562    24834622.703    24834613.573
 98  5 13 16  7 30.0000000  0  8G 2G15G 9G27G 7G26G 4G13
   1638291.71149   1258904.01747  21603058.802    21603067.396    21603059.550
   3289318.69849   2562029.24145  24140760.762    24140772.060    24140761.999
  -5976453.22049  -4403944.09246  23899364.325    23899374.669    23899364.920
   7859702.88449   6104401.54746  22495566.698    22495575.994    22495567.649
   -302403.18949   -230527.17547  20463320.531    20463329.239    20463321.483
   1545836.14049   1234865.60847  23018627.459    23018637.284    23018628.767
  -8674462.24449  -6744720.23646  23602291.118    23602301.512    23602292.770
  10131478.25149   7873167.50045  24854405.550    24854416.690    24854407.402
 98  5 13 16  8  0.0000000  0  8G 2G15G 9G27G 7G26G 4G13
   1665404.77149   1280031.05447  21608218.223    21608226.917    21608219.033
   3352071.15549   2610927.20745  24152702.528    24152713.559    24152703.372
  -6068046.87549  -4475315.73146  23881934.376    23881944.935    23881935.281
   7960205.76649   6182715.41046  22514691.846    22514701.165    22514692.803
   -281780.50449   -214457.56047  20467244.932    20467253.565    20467245.840
   1587727.71049   1267508.33247  23026599.085    23026609.053    23026600.449
  -8773796.50549  -6822123.45546  23583388.330    23583398.812    23583389.972
  10235380.23749   7954130.04545  24874177.801    24874188.560    24874179.474
 98  5 13 16  8 30.0000000  0  8G 2G15G 9G27G 7G26G 4G13
   1692724.33349   1301319.00047  21613416.887    21613425.691    21613417.760
   3415341.58549   2660228.76745  24164742.400    24164753.584    24164743.321
  -6159478.88749  -4546561.40546  23864535.570    23864545.967    23864536.326
   8061014.36749   6261267.49646  22533875.120    22533884.515    22533876.113
   -260722.06549   -198048.39947  20471252.205    20471260.828    20471253.130
   1630063.64849   1300497.32647  23034655.299    23034665.345    23034656.665
  -8872968.04949  -6899399.90246  23564516.264    23564527.096    23564518.217
  10339176.44649   8035010.15945  24893929.993    24893940.439    24893931.460
 98  5 13 16  9  0.0000000  0  8G 2G15G 9G27G 7G26G 4G13
   1720256.43749   1322772.56247  21618656.082    21618664.930    21618656.931
   3479131.04249   2709934.77245  24176880.873    24176892.316    24176882.036
  -6250736.38349  -4617671.10546  23847169.656    23847180.192    23847170.461
   8162128.44149   6340057.61146  22553116.419    22553125.977    22553117.556
   -239234.45849   -181304.81947  20475341.233    20475349.738    20475342.114
   1672883.44149   1333863.35147  23042803.629    23042813.676    23042804.988
  -8971975.78849  -6976548.69946  23545675.609    23545686.431    23545677.580
  10442882.16849   8115819.75045  24913664.252    24913675.157    24913666.097
 98  5 13 16  9 30.0000000  0  8G 2G15G 9G27G 7G26G 4G13
   1748012.28049   1344400.46547  21623937.838    21623946.757    21623938.700
   3543439.42949   2760045.13846  24189118.358    24189129.813    24189119.510
  -6341813.91449  -4688640.53646  23829837.862    23829848.662    23829838.874
   8263561.31349   6419096.13946  22572418.642    22572428.093    22572419.668
   -217320.56449   -164229.07247  20479511.382    20479519.861    20479512.242
   1716188.88949   1367607.80047  23051044.348    23051054.423    23051045.692
  -9070830.11249  -7053577.96446  23526864.467    23526874.959    23526866.207
  10546508.05649   8196567.13945  24933383.391    24933394.509    24933385.594
 98  5 13 16 10  0.0000000  0  8G 2G15G 9G27G 7G26G 4G13
   1775975.65849   1366190.08647  21629259.097    21629268.064    21629259.966
   3608250.05749   2810546.86246  24201451.805    24201462.983    24201452.661
  -6432721.76349  -4759477.76446  23812538.368    23812549.420    23812539.614
   8365315.68649   6498385.18646  22591781.885    22591791.411    22591782.938
   -195009.53649   -146843.87247  20483756.941    20483765.552    20483757.871
   1759946.08949   1401704.26647  23059371.192    23059381.139    23059372.535
  -9169544.13149  -7130497.88846  23508079.575    23508090.274    23508081.471
  10650036.56949   8277238.71845  24953084.056    24953095.319    24953086.370
 98  5 13 16 10 30.0000000  0  8G 2G15G 9G27G 7G26G 4G13
   1804173.98049   1388162.77847  21634625.121    21634634.048    21634625.986
   3673588.58749   2861459.92946  24213885.344    24213896.654    24213886.200
  -6523414.35449  -4830147.26046  23795280.052    23795291.197    23795281.278
   8467432.27949   6577956.48646  22611213.797    22611223.648    22611215.111
   -172294.68449   -129144.00447  20488079.332    20488088.124    20488080.334
   1804191.40449   1436181.08047  23067790.744    23067800.739    23067792.162
  -9268107.60549  -7207300.52546  23489323.489    23489334.211    23489325.416
  10753476.26649   8357841.04745  24972768.399    24972779.616    24972770.065
 98  5 13 16 11  0.0000000  0  8G 2G15G 9G27G 7G26G 4G13
   1832560.29749   1410281.96147  21640026.941    21640035.787    21640027.750
   3739429.55349   2912764.52246  24226414.500    24226425.842    24226415.325
  -6613911.14949  -4900664.18746  23778058.796    23778070.235    23778060.233
   8569896.26149   6657798.47146  22630712.145    22630721.996    22630713.392
   -149192.82649   -111142.57547  20492475.429    20492484.311    20492476.451
   1848879.43849   1471002.88447  23076294.617    23076304.658    23076296.068
  -9366556.95849  -7284014.22446  23470589.362    23470599.810    23470591.045
  10856771.91149   8438331.09745  24992424.745    24992436.098    24992426.654
 98  5 13 16 11 30.0000000  0  8G 2G15G 9G27G 7G26G 4G13
   1861128.68249   1432543.02147  21645463.342    21645472.151    21645464.146
   3805775.88549   2964462.90345  24239039.703    24239051.221    24239040.630
  -6704204.06249  -4971022.23146  23760876.813    23760888.022    23760878.024
   8672707.23149   6737910.84246  22650276.454    22650286.310    22650277.706
   -125690.49249    -92829.08647  20496947.723    20496956.689    20496948.780
   1893975.15549   1506142.35247  23084876.058    23084886.066    23084877.499
  -9464874.51249  -7360625.23346  23451880.058    23451890.528    23451881.711
  10959923.91149   8518709.26545  25012053.734    25012065.336    25012055.756
 98  5 13 16 12  0.0000000  0  8G 2G15G 9G27G 7G26G 4G13
   1889873.56349   1454941.60447  21650933.334    21650942.147    21650934.111
   3872632.02749   3016558.54345  24251762.169    24251773.535    24251762.933
  -6794283.88349  -5041214.25146  23743735.301    23743746.330    23743736.398
   8775866.73649   6818294.79846  22669907.137    22669916.935    22669908.323
   -101776.68049    -74194.96547  20501498.285    20501507.336    20501499.419
   1939482.11949   1541602.27447  23093535.771    23093545.731    23093537.242
  -9563061.37649  -7437134.40846  23433195.720    23433206.157    23433197.303
  11062939.90249   8598981.46145  25031656.950    25031668.659    25031659.216
 98  5 13 16 12 30.0000000  0  8G 2G15G 9G27G 7G26G 4G13
   1918785.65449   1477470.48047  21656435.034    21656443.951    21656435.871
   3939988.32549   3069043.93045  24264579.802    24264590.958    24264580.523
  -6884166.65149  -5111252.70846  23726631.313    23726642.083    23726632.233
   8879348.95149   6898930.21446  22689599.146    22689608.955    22689600.343
    -77446.10849    -55236.09147  20506128.312    20506137.288    20506129.387
   1985396.74549   1577379.85047  23102273.096    23102283.023    23102274.591
  -9661124.77449  -7513547.36646  23414534.930    23414545.271    23414536.280
  11165819.75549   8679147.58545  25051233.619    25051245.952    25051236.496
 98  5 13 16 13  0.0000000  0  8G 2G15G 9G27G 7G26G 4G13
   1947886.30749   1500146.29447  21661972.632    21661981.665    21661973.533
   4007851.04449   3121923.89545  24277493.583    24277504.796    24277494.369
  -6973855.35249  -5181139.94746  23709564.320    23709574.746    23709564.918
   8983141.60749   6979807.52846  22709350.351    22709360.125    22709351.431
    -52692.44549    -35947.54247  20510838.815    20510847.790    20510839.905
   2031717.52049   1613473.89447  23111087.695    23111097.730    23111089.190
  -9759048.20149  -7589851.26546  23395900.303    23395910.994    23395901.924
  11268588.13449   8759226.83045  25070789.765    25070802.292    25070792.690
 98  5 13 16 13 30.0000000  0  8G 2G15G 9G27G 7G26G 4G13
   1977195.04849   1522984.24347  21667549.965    21667558.918    21667550.812
   4076214.01749   3175193.68845  24290502.750    24290513.900    24290503.437
  -7063371.63249  -5250892.83246  23692529.502    23692540.287    23692530.454
   9087233.09049   7060917.70246  22729158.293    22729168.138    22729159.382
    -27536.08149    -16345.19747  20515625.996    20515634.854    20515627.023
   2078467.50749   1649902.39447  23119983.965    23119993.991    23119985.476
  -9856831.56049  -7666046.04046  23377292.733    23377303.338    23377294.373
  11371251.13049   8839223.96145  25090325.512    25090338.532    25090329.022
 98  5 13 16 14  0.0000000  0  8G 2G15G 9G27G 7G26G 4G13
   2006728.15449   1545997.02447  21673170.026    21673178.922    21673170.810
   4145062.69649   3228841.95545  24303604.068    24303615.472    24303604.892
  -7152743.04349  -5320532.82546  23675522.370    23675533.439    23675523.524
   9191610.51449   7142250.67746  22749020.574    22749030.592    22749021.732
     -2000.91649      3552.32347  20520485.158    20520494.000    20520486.164
   2125648.03449   1686666.39247  23128962.000    23128972.255    23128963.627
  -9954492.61449  -7742145.50046  23358708.529    23358718.988    23358710.028
  11473786.72649   8919121.83645  25109838.192    25109850.537    25109840.875
 98  5 13 16 14 30.0000000  0  8G 2G15G 9G27G 7G26G 4G13
   2036503.95849   1569198.92147  21678836.263    21678845.142    21678836.979
   4214398.13349   3282869.51045  24316798.180    24316809.672    24316798.989
  -7241966.57349  -5390057.60046  23658543.867    23658554.643    23658544.757
   9296273.69249   7223806.32046  22768937.181    22768947.347    22768938.436
     23910.96549     23743.38247  20525416.030    20525424.879    20525417.016
   2173256.84049   1723764.10247  23138021.700    23138032.061    23138023.232
 -10052014.70649  -7818136.69146  23340150.333    23340161.101    23340152.064
  11576195.34549   8998920.75545  25129326.838    25129338.225    25129328.593
 98  5 13 16 15  0.0000000  0  8G 2G15G 9G27G 7G26G 4G13
   2066520.68249   1592588.54147  21684548.248    21684557.170    21684549.003
   4284221.44149   3337277.23145  24330085.217    24330096.703    24330086.011
  -7331034.36649  -5459461.02846  23641594.682    23641605.451    23641595.623
   9401231.74749   7305591.73346  22788910.215    22788920.232    22788911.346
     50191.37149     44221.60047  20530416.927    20530425.870    20530417.974
   2221291.04849   1761193.30347  23147162.279    23147172.733    23147163.865
 -10149377.00849  -7894003.35646  23321622.668    23321633.643    23321624.535
  11678468.05949   9078613.78445  25148789.375    25148799.808    25148790.489
 98  5 13 16 15 30.0000000  0  7G 2G15G 9G27G 7G26G 4
   2096758.39849   1616150.36847  21690302.313    21690311.230    21690303.098
   4354528.02649   3392061.52446  24343464.244    24343475.700    24343464.970
  -7419944.31649  -5528741.46846  23624675.662    23624686.196    23624676.497
   9506495.58849   7387615.42646  22808941.111    22808951.398    22808942.459
     76848.12149     64993.07547  20535489.489    20535498.468    20535490.548
   2269742.39949   1798947.54247  23156382.410    23156392.825    23156383.912
 -10246576.16549  -7969742.91046  23303126.438    23303137.201    23303128.073
 98  5 13 16 16  0.0000000  0  7G 2G15G 9G27G 7G26G 4
   2127220.27149   1639886.85747  21696099.038    21696107.946    21696099.857
   4425328.94249   3447231.02545  24356936.973    24356948.734    24356938.066
  -7508657.49149  -5597868.56346  23607794.137    23607804.506    23607794.901
   9612078.32449   7469887.59946  22829032.895    22829043.191    22829034.249
    103901.16449     86073.34447  20540637.492    20540646.504    20540638.513
   2318602.10149   1837019.98147  23165680.149    23165690.662    23165681.684
 -10343586.56149  -8045335.38046  23284665.887    23284676.699    23284667.581
 98  5 13 16 16 30.0000000  0  7G 2G15G 9G27G 7G26G 4
   2157862.33449   1663763.76147  21701930.133    21701938.954    21701930.904
   4496602.54749   3502768.83845  24370500.095    24370511.768    24370501.020
  -7597168.30849  -5666837.97846  23590951.017    23590961.408    23590951.812
   9717951.78349   7552386.30646  22849179.940    22849190.318    22849181.380
    131331.54749    107447.65147  20545857.371    20545866.349    20545858.362
   2367854.46849   1875398.39547  23175052.604    23175063.147    23175054.148
 -10440418.63349  -8120788.90346  23266239.547    23266250.182    23266241.067
 98  5 13 16 17  0.0000000  0  7G 2G15G 9G27G 7G26G 4
   2188694.43249   1687788.74047  21707797.313    21707806.122    21707798.125
   4568360.46949   3558684.01645  24384155.245    24384166.913    24384156.175
  -7685450.91149  -5735629.56746  23574151.399    23574161.829    23574152.222
   9824122.96849   7635117.01646  22869383.561    22869394.091    22869385.145
    159161.43649    129133.26047  20551153.312    20551162.252    20551154.286
   2417517.23049   1914096.59447  23184503.281    23184513.708    23184504.739
 -10537060.98449  -8196094.58946  23247848.868    23247859.756    23247850.580
 98  5 13 16 17 30.0000000  0  7G 2G15G 9G27G 7G26G 4
   2219710.88149   1711957.37747  21713699.484    21713708.356    21713700.359
   4640587.01649   3614964.38445  24397899.456    24397911.182    24397900.517
  -7773514.82849  -5804250.74546  23557393.489    23557403.885    23557394.193
   9930571.77049   7718064.03546  22889640.026    22889650.704    22889641.732
    187375.10649    151117.92247  20556522.313    20556531.164    20556523.240
   2467580.37149   1953106.76947  23194029.961    23194040.348    23194031.442
 -10633538.51049  -8271271.85646  23229489.728    23229500.642    23229491.359
 98  5 13 16 18  0.0000000  0  7G 2G15G 9G27G 7G26G 4
   2250948.10249   1736298.03947  21719643.742    21719652.661    21719644.632
   4713312.50749   3671633.51345  24411739.059    24411750.454    24411739.634
  -7861315.79649  -5872667.03946  23540685.540    23540695.788    23540686.242
  10037309.75449   7801236.40346  22909951.740    22909962.327    22909953.384
    215993.14149    173417.67047  20561968.133    20561977.010    20561969.101
   2518079.57149   1992456.73447  23203639.647    23203650.041    23203641.229
 -10729816.76849  -8346293.85546  23211168.048    23211179.421    23211170.110
 98  5 13 16 18 30.0000000  0  7G 2G15G 9G27G 7G26G 4
   2282364.45949   1760778.29147  21725622.091    21725631.043    21725622.991
   4786503.15549   3728665.08545  24425666.692    24425678.110    24425667.515
  -7948890.02849  -5940906.64846  23524020.459    23524030.889    23524021.401
  10144295.45849   7884601.80046  22930310.690    22930321.114    22930312.179
    244984.81149    196008.56747  20567485.121    20567493.980    20567486.065
   2568980.96949   2032120.09647  23213326.089    23213336.317    23213327.520
 -10825936.38149  -8421192.21846  23192877.069    23192888.440    23192879.070
 98  5 13 16 19  0.0000000  0  7G 2G15G 9G27G 7G26G 4
   2313963.09449   1785400.57547  21731635.179    21731644.098    21731636.047
   4860162.11249   3786061.62545  24439683.872    24439694.865    24439684.452
  -8036241.92549  -6008973.01146  23507398.080    23507408.250    23507398.943
  10251542.00949   7968170.45046  22950719.072    22950729.560    22950720.547
    274348.84649    218889.61647  20573073.002    20573081.797    20573073.895
   2620274.62749   2072089.11947  23223086.900    23223097.144    23223088.450
 -10921893.28849  -8495963.79446  23174617.000    23174628.447    23174619.025
 98  5 13 16 19 30.0000000  0  7G 2G15G 9G27G 7G26G 4
   2345738.49149   1810160.59347  21737681.896    21737690.790    21737682.727
   4934282.32949   3843817.54945  24453788.015    24453799.593    24453789.196
  -8123378.94049  -6076871.92646  23490816.360    23490826.616    23490817.298
  10359055.90049   8051947.41746  22971178.282    22971188.879    22971179.796
    304066.50849    242046.21447  20578728.052    20578736.882    20578728.999
   2671949.11249   2112354.89147  23232920.321    23232930.465    23232921.881
 -11017687.75549  -8570608.79546  23156387.945    23156399.317    23156389.913
 98  5 13 16 20  0.0000000  0  7G 2G15G 9G27G 7G26G 4
   2377689.27949   1835057.28347  21743761.846    21743770.846    21743762.762
   5008864.48049   3901933.43945  24467980.972    24467992.151    24467981.743
  -8210301.90149  -6144604.04446  23474275.379    23474285.649    23474276.378
  10466840.18649   8135935.07946  22991689.017    22991699.652    22991690.518
    334143.64049    265482.91947  20584451.562    20584460.377    20584452.500
   2724005.35949   2152918.15047  23242826.410    23242836.506    23242827.939
 -11113309.26249  -8645119.02246  23138191.485    23138203.102    23138193.715
 98  5 13 16 20 30.0000000  0  7G 2G15G 9G27G 7G26G 4
   2409821.77549   1860095.56247  21749876.556    21749885.489    21749877.403
   5083904.50849   3960406.10245  24482260.724    24482271.914    24482261.489
  -8297029.36549  -6212183.83746  23457771.690    23457781.801    23457772.664
  10574909.03649   8220144.47146  23012254.246    23012264.553    23012255.432
    364581.31549    289200.57047  20590243.705    20590252.475    20590244.599
   2776440.23549   2193776.44947  23252804.485    23252814.569    23252806.058
 -11208757.27349  -8719494.05346  23120028.348    23120039.948    23120030.534
 98  5 13 16 21  0.0000000  0  7G 2G15G 9G27G 7G26G 4
   2442149.10049   1885285.65447  21756028.246    21756037.244    21756029.120
   5159402.65749   4019235.74745  24496627.859    24496638.802    24496628.317
  -8383564.23049  -6279613.55946  23441304.460    23441314.620    23441305.600
  10683277.74449   8304587.52946  23032876.226    23032886.500    23032877.406
    395383.03049    313201.88547  20596105.014    20596113.848    20596105.943
   2829268.18349   2234941.02747  23262857.558    23262867.418    23262858.994
 -11304012.17649  -8793718.59546  23101901.882    23101913.520    23101904.115
 98  5 13 16 21 30.0000000  0  7G 2G15G 9G27G 7G26G 4
   2474673.66949   1910629.44447  21762217.527    21762226.503    21762218.366
   5235343.59249   4078410.41145  24511078.559    24511089.913    24511079.217
  -8469919.72749  -6346903.50646  23424871.671    23424881.676    23424872.761
  10791920.17749   8389243.87646  23053550.448    23053560.603    23053551.473
    426540.51749    337480.42747  20602034.110    20602042.953    20602035.069
   2882488.64149   2276411.48047  23272984.991    23272994.979    23272986.525
 -11399090.43949  -8867805.50046  23083809.685    23083820.680    23083811.360
 98  5 13 16 22  0.0000000  0  7G 2G15G 9G27G 7G26G 4
   2507414.74549   1936141.94147  21768448.013    21768456.943    21768448.858
   5311736.81149   4137937.51145  24525616.219    24525627.013    24525616.525
  -8556082.39149  -6414043.19446  23408475.541    23408485.519    23408476.565
  10900839.91949   8474116.31746  23074277.424    23074287.436    23074278.315
    458072.57149    362050.83947  20608034.543    20608043.322    20608035.482
   2936112.71249   2318196.41947  23283189.476    23283199.404    23283190.906
 -11493974.71449  -8941741.24246  23065753.886    23065764.759    23065755.500
 98  5 13 16 22 30.0000000  0  7G 2G15G 9G27G 7G26G 4
   2540381.12149   1961829.99847  21774721.353    21774730.236    21774722.165
   5388582.43849   4197817.15545  24540239.070    24540250.348    24540239.831
  -8642029.42349  -6481014.84946  23392120.505    23392130.354    23392121.371
  11010046.71849   8559212.43846  23095058.909    23095068.934    23095059.677
    489980.09949    386913.82847  20614106.354    20614115.097    20614107.312
   2990138.09549   2360294.07247  23293470.043    23293480.205    23293471.604
 -11588654.80649  -9015517.87246  23047736.958    23047747.750    23047738.528
 98  5 13 16 23  0.0000000  0  7G 2G15G 9G27G 7G26G 4
   2573560.71649   1987684.19747  21781035.200    21781044.091    21781036.064
   5465864.23149   4258036.64345  24554945.456    24554956.681    24554946.067
  -8727753.98449  -6547813.14146  23375807.584    23375817.534    23375808.478
  11119513.36949   8644511.04346  23115889.852    23115899.831    23115890.573
    522246.80349    412056.69247  20620246.586    20620255.234    20620247.498
   3044544.25449   2402688.42847  23303823.366    23303833.424    23303824.747
 -11683131.41149  -9089135.93346  23029758.767    23029769.410    23029760.278
 98  5 13 16 23 30.0000000  0  7G 2G15G 9G27G 7G26G 4
   2606969.17049   2013716.72847  21787392.727    21787401.557    21787393.550
   5543583.63649   4318597.15845  24569734.700    24569746.194    24569735.640
  -8813248.03749  -6614431.83246  23359538.553    23359548.471    23359539.499
  11229230.00349   8730004.43046  23136767.833    23136778.256    23136768.960
    554873.03049    437479.70847  20626455.242    20626463.821    20626456.127
   3099318.42749   2445369.55847  23314246.475    23314256.700    23314247.950
 -11777403.77449  -9162594.84846  23011819.639    23011829.892    23011820.830
 98  5 13 16 24  0.0000000  0  7G 2G15G 9G27G 7G26G 4
   2640593.89949   2039917.79047  21793791.371    21793800.153    21793792.186
   5621738.86049   4379497.26545  24584607.194    24584618.875    24584608.253
  -8898501.27649  -6680862.86746  23343315.640    23343325.258    23343316.320
  11339208.89449   8815702.18346  23157696.468    23157706.618    23157697.387
    587853.26249    463178.57347  20632731.177    20632739.749    20632732.051
   3154451.71549   2488330.51447  23324738.069    23324748.335    23324739.486
 -11871451.53149  -9235878.75546  22993923.029    22993933.127    22993924.113
 98  5 13 16 24 30.0000000  0  7G 2G15G 9G27G 7G26G 4
   2674429.28649   2066283.00147  21800230.037    21800238.838    21800230.895
   5700341.61249   4440746.08545  24599564.764    24599576.461    24599565.880
  -8983506.46449  -6747100.63846  23327139.518    23327149.230    23327140.352
  11449451.33149   8901605.30346  23178675.123    23178685.130    23178675.984
    621196.51349    489160.30747  20639076.128    20639084.820    20639077.104
   3209954.50349   2531579.38747  23335300.020    23335310.294    23335301.357
 -11965257.89449  -9308974.54746  22976072.255    22976082.294    22976073.308
 98  5 13 16 25  0.0000000  0  7G 2G15G 9G27G 7G26G 4
   2708455.65749   2092797.03047  21806705.022    21806713.867    21806705.925
   5779373.91749   4502329.60645  24614604.035    24614615.783    24614605.191
  -9068302.12249  -6813175.12546  23311003.394    23311013.155    23311004.202
  11559917.19249   8987682.50646  23199696.242    23199706.227    23199697.071
    654891.01049    515415.73747  20645488.107    20645496.751    20645488.991
   3265812.68749   2575105.20247  23345929.385    23345939.845    23345930.782
 -12058844.65549  -9381899.23246  22958263.309    22958273.264    22958264.296
 98  5 13 16 25 30.0000000  0  7G 2G15G 9G27G 7G26G 4
   2742674.64749   2119461.15647  21813216.676    21813225.527    21813217.572
   5858842.79549   4564253.33345  24629726.338    24629738.262    24629727.538
  -9152881.99349  -6879081.45346  23294908.145    23294918.157    23294909.078
  11670620.98449   9073945.11546  23220762.578    23220772.568    23220763.395
    688946.79149    541952.68947  20651968.648    20651977.395    20651969.624
   3322037.07049   2618916.35147  23356628.470    23356639.089    23356629.802
 -12152213.96349  -9454654.48546  22940495.153    22940505.593    22940496.641
 98  5 13 16 26  0.0000000  0  8G24G 2G15G 9G27G 7G26G 4
  -1484513.46859  -1141986.81855  25086759.674    25086771.815    25086760.945
   2777054.46449   2146250.59447  21819759.006    21819767.827    21819759.876
   5938727.91949   4626501.37645  24644928.279    24644940.061    24644929.100
  -9237254.14849  -6944825.94246  23278852.451    23278862.606    23278853.523
  11781548.08649   9160381.72546  23241871.458    23241881.437    23241872.183
    723340.73749    568753.15747  20658513.668    20658522.360    20658514.605
   3378603.82649   2662994.29747  23367392.531    23367403.489    23367394.081
 -12245380.38249  -9527251.63146  22922766.185    22922776.524    22922767.612
 98  5 13 16 26 30.0000000  0  8G24G 2G15G 9G27G 7G26G 4
  -1587982.43849  -1222612.07845  25067070.282    25067082.458    25067071.671
   2811624.50649   2173188.26847  21826337.513    21826346.350    21826338.385
   6019039.95449   4689082.04045  24660210.690    24660223.000    24660212.120
  -9321400.46549  -7010394.44846  23262839.990    23262850.021    23262840.947
  11892692.86949   9246987.96246  23263021.415    23263031.693    23263022.487
    758098.66249    595837.23247  20665127.892    20665136.548    20665128.784
   3435512.92949   2707338.99847  23378221.945    23378233.005    23378223.506
 -12338334.79849  -9599683.58646  22905077.433    22905087.798    22905078.932
 98  5 13 16 27  0.0000000  0  8G24G 2G15G 9G27G 7G26G 4
  -1691533.19249  -1303301.00045  25047365.577    25047377.583    25047366.854
   2846397.40749   2200284.00847  21832954.584    21832963.412    21832955.487
   6099770.35049   4751988.72445  24675573.372    24675585.583    24675574.597
  -9405307.27249  -7075776.31946  23246872.960    23246883.019    23246873.887
  12004060.13649   9333767.56446  23284213.933    23284224.225    23284215.083
    793204.07949    623192.08647  20671808.214    20671816.864    20671809.140
   3492758.55149   2751945.92947  23389115.340    23389126.641    23389116.897
 -12431081.24049  -9671953.48446  22887428.301    22887438.636    22887429.809
 98  5 13 16 27 30.0000000  0  8G24G 2G15G 9G27G 7G26G 4
  -1795146.87149  -1384038.96145  25027648.843    25027660.801    25027649.909
   2881376.23949   2227540.21847  21839610.792    21839619.716    21839611.722
   6180925.32949   4815226.24745  24691016.897    24691029.005    24691017.949
  -9488937.44749  -7140942.63246  23230958.316    23230968.676    23230959.466
  12115678.37649   9420742.72646  23305454.034    23305464.498    23305455.369
    828645.27049    650808.58047  20678552.512    20678561.105    20678553.432
   3550343.79049   2796817.48947  23400073.435    23400084.832    23400075.005
 -12523594.53249  -9744041.71746  22869823.684    22869833.881    22869825.045
 98  5 13 16 28  0.0000000  0  8G24G 2G15G 9G27G 7G26G 4
  -1898813.32749  -1464818.03045  25007922.124    25007933.804    25007922.960
   2916566.08249   2254960.85047  21846307.210    21846316.190    21846308.120
   6262501.33749   4878791.87845  24706540.854    24706552.424    24706541.659
  -9572293.57949  -7205895.41146  23215096.266    23215106.531    23215097.303
  12227535.24049   9507903.83146  23326739.742    23326750.219    23326741.060
    864413.23149    678679.70347  20685358.930    20685367.516    20685359.832
   3608263.93749   2841950.01647  23411095.197    23411106.750    23411096.847
 -12615865.06049  -9815940.79046  22852265.096    22852275.337    22852266.461
 98  5 13 16 28 30.0000000  0  8G24G 2G15G 9G27G 7G26G 4
  -2002543.61249  -1545646.83745  24988183.143    24988194.835    24988183.865
   2951967.40949   2282546.26947  21853043.902    21853052.907    21853044.812
   6344491.05349   4942679.89145  24722142.913    24722154.662    24722143.938
  -9655383.92149  -7270641.08146  23199284.580    23199294.898    23199285.725
  12339624.07949   9595245.69146  23348069.427    23348080.123    23348070.864
    900499.40849    706798.78447  20692225.841    20692234.413    20692226.752
   3666530.73149   2887352.66747  23422183.130    23422194.673    23422184.739
 -12707898.37149  -9887655.01946  22834751.494    22834761.947    22834753.059
 98  5 13 16 29  0.0000000  0  8G24G 2G15G 9G27G 7G26G 4
  -2106368.06749  -1626548.98045  24968426.196    24968437.562    24968426.957
   2987566.60349   2310285.87047  21859818.280    21859827.252    21859819.167
   6426881.96149   5006880.49845  24737821.052    24737833.318    24737822.403
  -9738231.24549  -7335197.38446  23183519.275    23183529.577    23183520.342
  12451943.39149   9682767.13646  23369442.870    23369453.906    23369444.523
    936883.72749    735150.17947  20699149.518    20699158.114    20699150.442
   3725143.11349   2933024.59946  23433336.907    23433348.328    23433338.332
 -12799707.40149  -9959194.50146  22817280.797    22817291.227    22817282.330
 98  5 13 16 29 30.0000000  0  8G24G 2G15G 9G27G 7G26G 4
  -2210280.69549  -1707519.81945  24948652.111    24948663.820    24948653.244
   3023375.62949   2338188.97547  21866632.609    21866641.507    21866633.429
   6509679.97749   5071398.36345  24753577.478    24753589.290    24753578.468
  -9820844.81649  -7399571.53546  23167798.419    23167808.769    23167799.496
  12564490.93749   9770466.42146  23390860.281    23390871.117    23390861.679
    973591.45849    763753.58647  20706134.771    20706143.407    20706135.714
   3784101.89149   2978966.45146  23444556.349    23444567.843    23444557.858
 -12891292.83449 -10030559.74546  22799852.323    22799863.106    22799854.141
 98  5 13 16 30  0.0000000  0  8G24G 2G15G 9G27G 7G26G 4
  -2314284.83049  -1788561.95145  24928859.861    24928872.609    24928861.908
   3059411.21149   2366268.62147  21873489.913    21873498.858    21873490.767
   6592889.23849   5136236.67545  24769411.909    24769423.591    24769412.709
  -9903233.08149  -7463770.12746  23152120.430    23152130.786    23152121.476
  12677264.04249   9858341.46646  23412320.842    23412331.180    23412321.664
   1010651.34349    792631.39547  20713187.044    20713195.728    20713188.026
   3843411.57349   3025181.73347  23455842.685    23455854.139    23455844.250
 -12982664.05049 -10101758.07046  22782465.042    22782475.753    22782466.736
 98  5 13 16 30 30.0000000  0  8G24G 2G15G 9G27G 7G26G 4
  -2418397.17149  -1869688.25345  24909047.300    24909060.488    24909049.847
   3095658.47449   2394513.21247  21880387.504    21880396.522    21880388.420
   6676500.08749   5201387.90745  24785322.446    24785334.384    24785323.457
  -9985402.41749  -7527798.13246  23136484.035    23136494.402    23136485.098
  12790252.72849   9946384.50846  23433822.066    23433832.248    23433822.760
   1048053.46249    821775.88147  20720304.424    20720313.147    20720305.440
   3903064.98849   3071664.85246  23467194.381    23467205.885    23467195.959
 -13073829.79049 -10172796.29846  22765116.450    22765127.438    22765118.500
 98  5 13 16 31  0.0000000  0  8G24G 2G15G 9G27G 7G26G 4
  -2522606.52849  -1950890.29845  24889217.449    24889230.313    24889219.520
   3132106.81349   2422914.48847  21887323.382    21887332.430    21887324.314
   6760504.92149   5266846.15945  24801308.435    24801320.215    24801309.212
 -10067356.34249  -7591658.28946  23120888.795    23120899.015    23120889.747
  12903450.24749  10034590.27346  23455362.710    23455373.174    23455363.635
   1085788.99549    851180.17347  20727485.342    20727494.020    20727486.317
   3963052.43349   3118408.25946  23478609.617    23478621.188    23478611.247
 -13164778.40049 -10243665.33246  22747809.579    22747820.471    22747811.549
 98  5 13 16 31 30.0000000  0  8G24G 2G15G 9G27G 7G26G 4
  -2626886.44249  -2032147.31545  24869373.695    24869386.355    24869375.579
   3168756.26749   2451472.46947  21894297.476    21894306.665    21894298.483
   6844906.31849   5332613.41645  24817369.283    24817381.374    24817370.248
 -10149072.28549  -7655332.98546  23105338.519    23105348.954    23105339.638
  13016858.91749  10122960.57046  23476943.489    23476954.262    23476944.649
   1123855.85249    880842.63947  20734729.219    20734737.867    20734730.169
   4023374.11449   3165412.11446  23490088.626    23490100.036    23490090.196
 -13255489.37249 -10314349.19746  22730547.945    22730558.735    22730549.892
 98  5 13 16 32  0.0000000  0  8G24G 2G15G 9G27G 7G26G 4
  -2731245.28949  -2113465.80245  24849515.074    24849527.549    24849516.526
   3205591.16949   2480174.95647  21901307.055    21901316.199    21901307.953
   6929694.76949   5398682.28245  24833504.073    24833516.110    24833505.061
 -10230537.79049  -7718812.54546  23089836.274    23089846.581    23089837.215
  13130465.31449  10211484.93746  23498562.072    23498573.010    23498563.291
   1162229.79449    910744.38947  20742031.517    20742040.201    20742032.513
   4084019.40349   3212668.12346  23501629.066    23501640.452    23501630.571
 -13345945.06349 -10384834.14446  22713334.825    22713345.567    22713336.792
 98  5 13 16 32 30.0000000  0  8G24G 2G15G 9G27G 7G26G 4
  -2835660.69249  -2194828.35445  24829645.677    24829657.985    24829646.933
   3242617.93849   2509026.95347  21908352.937    21908362.156    21908353.904
   7014869.17049   5465051.90245  24849712.196    24849724.385    24849713.267
 -10311746.83049  -7782092.26746  23074382.801    23074392.978    23074383.646
  13244269.81549  10300163.67046  23520218.434    23520229.449    23520219.703
   1200910.87149    940885.46647  20749392.381    20749401.003    20749393.318
   4144984.42649   3260173.27146  23513230.320    23513241.676    23513231.844
 -13436128.06649 -10455106.60446  22696173.673    22696184.330    22696175.570
 98  5 13 16 33  0.0000000  0  8G24G 2G15G 9G27G 7G26G 4
  -2940110.98349  -2276218.13545  24809769.491    24809781.919    24809770.720
   3279858.90449   2538045.85347  21915439.740    21915448.868    21915440.668
   7100434.54949   5531726.18545  24865994.541    24866006.852    24865995.876
 -10392678.75649  -7845156.06446  23058981.811    23058992.137    23058982.818
  13358282.70749  10389004.77446  23541914.237    23541925.527    23541915.665
   1239916.99249    971279.82347  20756815.046    20756823.646    20756815.943
   4206260.07749   3307920.47846  23524890.901    23524901.995    23524892.310
 -13526020.32649 -10525152.51546  22679067.755    22679078.393    22679069.708
 98  5 13 16 33 30.0000000  0  8G24G 2G15G 9G27G 7G26G 4
  -3044601.22049  -2357639.06245  24789885.962    24789898.116    24789886.776
   3317315.66249   2567232.90747  21922567.521    21922576.705    21922568.475
   7186383.36949   5598699.25245  24882350.492    24882362.325    24882351.499
 -10473325.37149  -7907997.53046  23043635.019    23043645.538    23043636.172
  13472487.43549  10477995.38346  23563646.748    23563658.001    23563648.243
   1279241.16649   1001922.01447  20764298.162    20764306.837    20764299.122
   4267821.85749   3355890.64346  23536605.795    23536616.771    23536607.222
 -13615639.74749 -10594985.81646  22662013.897    22662024.384    22662015.727
 98  5 13 16 34  0.0000000  0  8G24G 2G15G 9G27G 7G26G 4
  -3149131.09949  -2439090.82445  24769994.136    24770006.686    24769995.357
   3354987.47949   2596587.54547  21929736.149    21929745.472    21929737.127
   7272714.98749   5665970.60445  24898779.105    24898790.685    24898779.922
 -10553692.30749  -7970621.07546  23028341.528    23028352.135    23028342.751
  13586889.63249  10567139.85246  23585417.148    23585428.103    23585418.337
   1318887.48749   1032815.22647  20771842.694    20771851.281    20771843.610
   4329666.05949   3404080.85846  23548374.401    23548385.307    23548375.861
 -13704990.49549 -10664609.77046  22645011.032    22645021.523    22645012.891
 98  5 13 16 34 30.0000000  0  8G24G 2G15G 9G27G 7G26G 4
  -3253691.92949  -2520566.73945  24750096.793    24750109.473    24750098.075
   3392885.02949   2626118.07147  21936947.893    21936957.156    21936948.827
   7359436.30749   5733545.60245  24915281.115    24915293.190    24915282.428
 -10633779.27349  -8033026.45846  23013101.462    23013112.067    23013102.698
  13701510.30149  10656454.56246  23607229.027    23607239.785    23607230.051
   1358861.88649   1063964.08647  20779449.544    20779458.154    20779450.450
   4391805.05149   3452500.79646  23560199.005    23560209.930    23560200.571
 -13794074.30049 -10734025.70346  22628059.168    22628069.429    22628060.835
 98  5 13 16 35  0.0000000  0  8G24G 2G15G 9G27G 7G26G 4
  -3358302.46149  -2602081.38845  24730190.335    24730202.566    24730191.312
   3430993.43949   2655812.90547  21944199.644    21944208.987    21944200.631
   7446542.98849   5801420.87445  24931856.938    24931869.200    24931858.031
 -10713578.97049  -8095207.99347  22997916.091    22997926.685    22997917.330
  13816345.32649  10745936.28746  23629081.395    23629092.246    23629082.510
   1399128.53449   1095340.67147  20787112.172    20787120.623    20787112.958
   4454239.42949   3501150.90546  23572079.925    23572090.645    23572081.519
 -13882890.63949 -10803233.22446  22611157.799    22611168.267    22611159.673
 98  5 13 16 35 30.0000000  0  8G24G 2G15G 9G27G 7G26G 4
  -3462985.60749  -2683652.60445  24710269.378    24710281.911    24710270.469
   3469289.47949   2685653.94247  21951487.192    21951496.502    21951488.142
   7534016.87749   5869582.25745  24948502.558    24948514.998    24948503.826
 -10793116.56649  -8157185.30546  22982780.527    22982791.093    22982781.849
  13931377.95149  10835571.99546  23650971.461    23650982.353    23650972.638
   1439661.72549   1126924.95847  20794825.356    20794833.832    20794826.187
   4516968.42049   3550030.57946  23584017.085    23584027.435    23584018.512
 -13971464.57249 -10872251.84746  22594302.933    22594313.212    22594304.597
 98  5 13 16 36  0.0000000  0  8G24G 2G15G 9G27G 7G26G 4
  -3567747.87449  -2765285.49545  24690333.615    24690346.284    24690334.983
   3507767.47749   2715636.76147  21958809.367    21958818.632    21958810.326
   7621856.71649   5938028.81745  24965217.992    24965230.399    24965219.302
 -10872403.20549  -8218967.06847  22967692.733    22967703.297    22967694.065
  14046607.30349  10925360.97646  23672898.835    23672909.828    23672900.175
   1480469.12049   1158722.90647  20802590.840    20802599.281    20802591.621
   4580002.61549   3599148.07246  23596012.068    23596022.395    23596013.533
 -14059795.92549 -10941081.46246  22577493.937    22577504.297    22577495.666
 98  5 13 16 36 30.0000000  0  8G24G 2G15G 9G27G 7G26G 4
  -3672594.71249  -2846984.22645  24670381.566    24670394.624    24670383.231
   3546423.07449   2745757.97447  21966165.363    21966174.620    21966166.309
   7710049.64749   6006750.53545  24982000.688    24982013.049    24982001.901
 -10951442.06349  -8280555.74647  22952652.120    22952662.718    22952653.451
  14162002.01249  11015278.82246  23694857.796    23694868.821    23694859.136
   1521541.01749   1190726.95747  20810406.473    20810415.055    20810407.346
   4643336.18549   3648498.84146  23608064.239    23608074.323    23608065.549
 -14147884.85049 -11009722.14546  22560731.102    22560741.468    22560732.828
 98  5 13 16 37  0.0000000  0  8G24G 2G15G 9G27G 7G26G 4
  -3777482.40249  -2928714.86745  24650422.546    24650435.139    24650423.695
   3585295.94749   2776048.49247  21973562.665    21973571.962    21973563.650
   7798621.90249   6075767.81845  24998855.440    24998867.880    24998856.686
 -11030196.02349  -8341922.42847  22937665.809    22937676.322    22937667.067
  14277574.70149  11105335.34046  23716850.509    23716861.708    23716851.991
   1562925.61549   1222974.66647  20818281.714    20818290.344    20818282.590
   4707000.49849   3698107.32546  23620179.249    23620189.126    23620180.593
 -14235690.82849 -11078142.36746  22544022.039    22544032.525    22544023.888
 98  5 13 16 37 30.0000000  0  8G24G 2G15G 9G27G 7G26G 4
  -3882392.93849  -3010463.32645  24630458.945    24630471.238    24630459.958
   3624394.86349   2806515.15247  21981003.115    21981012.298    21981003.994
   7887570.49049   6145078.36045  25015781.986    25015794.338    25015783.156
 -11108670.81449  -8403071.57947  22922732.543    22922742.962    22922733.781
  14393325.10549  11195530.35646  23738877.039    23738888.390    23738878.695
   1604651.74649   1255488.50847  20826221.954    20826230.617    20826222.813
   4770990.67549   3747969.73646  23632356.311    23632365.905    23632357.580
 -14323207.76049 -11146337.34746  22527368.247    22527378.606    22527369.938
 98  5 13 16 38  0.0000000  0  8G24G 2G15G 9G27G 7G26G 4
  -3987328.84649  -3092231.43545  24610490.685    24610502.562    24610491.387
   3663706.46049   2837147.53547  21988483.945    21988493.121    21988484.823
   7976876.04949   6214667.06345  25032776.380    25032788.748    25032777.501
 -11186866.91849  -8464003.56747  22907852.158    22907862.592    22907853.494
  14509235.17249  11285849.77246  23760934.497    23760945.506    23760935.677
   1646715.47149   1288265.40947  20834226.358    20834235.116    20834227.290
   4835274.41049   3798060.89546  23644589.055    23644598.570    23644590.449
 -14410426.41549 -11214299.90046  22510771.100    22510781.458    22510772.759
 98  5 13 16 38 30.0000000  0  8G24G 2G15G 9G27G 7G26G 4
  -4092272.27249  -3174005.49545  24590520.495    24590532.481    24590521.368
   3703254.28949   2867963.99947  21996009.819    21996018.863    21996010.609
   8066542.14749   6284536.72145  25049839.441    25049851.656    25049840.342
 -11264758.41849  -8524698.20747  22893029.940    22893040.299    22893031.247
  14625327.06149  11376310.86846  23783026.866    23783037.143    23783027.417
   1689119.05649   1321307.13647  20842295.577    20842304.286    20842296.464
   4899857.58549   3848385.38846  23656879.089    23656888.332    23656880.418
 -14497317.19949 -11282006.96946  22494236.296    22494246.702    22494237.989
 98  5 13 16 39  0.0000000  0  8G24G 2G15G 9G27G 7G26G 4
  -4197247.94049  -3255804.70945  24570543.891    24570556.253    24570544.970
   3743002.87349   2898936.89847  22003573.652    22003582.788    22003574.509
   8156542.21449   6354666.62045  25066965.693    25066978.120    25066966.927
 -11342364.67749  -8585170.57547  22878261.966    22878272.299    22878263.240
  14741590.21849  11466905.40546  23805150.540    23805161.420    23805151.677
   1731823.98549   1354583.68347  20850422.108    20850430.811    20850422.999
   4964704.39149   3898915.31546  23669218.994    23669228.339    23669220.356
 -14583902.59549 -11349476.06646  22477759.702    22477770.031    22477761.319
 98  5 13 16 39 30.0000000  0  8G24G 2G15G 9G27G 7G26G 4
  -4302247.37449  -3337622.38345  24550563.153    24550575.387    24550564.223
   3782957.03449   2930069.98347  22011176.684    22011185.840    22011177.545
   8246899.31749   6425074.73945  25084160.447    25084172.535    25084161.513
 -11419655.52449  -8645397.16847  22863554.048    22863564.310    22863555.268
  14858050.78849  11557653.78846  23827312.067    23827323.215    23827313.489
   1774834.38249   1388098.25647  20858606.674    20858615.416    20858607.596
   5029818.29549   3949653.35246  23681609.645    23681619.196    23681611.175
 -14670162.06649 -11416691.19746  22461345.092    22461355.340    22461346.669
 98  5 13 16 40  0.0000000  0  8G24G 2G15G 9G27G 7G26G 4
  -4407277.00649  -3419463.61945  24530576.211    24530588.891    24530577.667
   3823117.38649   2961363.73747  22018818.968    22018828.114    22018819.799
   8337616.04249   6495763.07045  25101423.564    25101435.301    25101424.475
 -11496624.83049  -8705373.21147  22848907.276    22848917.445    22848908.507
  14974701.67249  11648550.44246  23849510.239    23849521.302    23849511.467
   1818139.82249   1421842.73547  20866847.522    20866856.197    20866848.381
   5095208.24349   4000606.49046  23694052.967    23694062.575    23694054.628
 -14756093.35749 -11483650.60047  22444992.893    22445003.172    22444994.486
 98  5 13 16 40 30.0000000  0  7G24G 2G 9G27G 7G26G 4
  -4512352.08049  -3501340.29145  24510580.684    24510593.597    24510582.317
   3863473.15149   2992809.75747  22026498.432    22026507.564    22026499.259
 -11573292.99549  -8765114.59847  22834317.770    22834327.931    22834319.008
  15091534.03149  11739588.51546  23871742.743    23871753.937    23871744.058
   1861699.23049   1455785.11247  20875136.602    20875145.304    20875137.482
   5160875.77649   4051775.93546  23706549.199    23706558.731    23706550.919
 -14841729.48549 -11550380.00547  22428697.041    22428707.153    22428698.461
 98  5 13 16 41  0.0000000  0  7G24G 2G 9G27G 7G26G 4
  -4617477.42349  -3583256.13645  24490575.795    24490589.008    24490577.595
   3904011.55349   3024398.09547  22034212.667    22034221.795    22034213.485
 -11649678.41549  -8824635.66147  22819782.096    22819792.194    22819783.314
  15208531.21749  11830755.04046  23894006.471    23894017.798    23894008.017
   1905502.51449   1489917.51647  20883472.121    20883480.829    20883472.975
   5226808.35249   4103151.89546  23719095.551    23719105.315    23719097.490
 -14927091.68349 -11616895.96247  22412452.994    22412463.230    22412454.550
 98  5 13 16 41 30.0000000  0  7G24G 2G 9G27G 7G26G 4
  -4722631.61549  -3665194.41045  24470564.974    24470578.749    24470567.331
   3944770.40549   3056158.20847  22041968.807    22041977.960    22041969.630
 -11725774.69949  -8883931.43247  22805301.496    22805311.494    22805302.648
  15325708.01549  11922061.48646  23916304.985    23916315.840    23916306.154
   1949575.32149   1524259.93947  20891858.917    20891867.591    20891859.758
   5293020.65549   4154745.82646  23731695.305    23731705.154    23731697.252
 -15012173.82649 -11683193.69247  22396262.314    22396272.576    22396263.908
 98  5 13 16 42  0.0000000  0  7G24G 2G 9G27G 7G26G 4
  -4827805.34349  -3747147.98645  24450550.964    24450564.624    24450553.227
   3985751.61849   3088091.59247  22049767.232    22049776.427    22049768.096
 -11801591.35049  -8943009.30147  22790874.097    22790883.996    22790875.230
  15443059.71749  12013504.23646  23938636.392    23938647.246    23938637.571
   1993905.70249   1558803.07147  20900294.722    20900303.438    20900295.577
   5359514.07649   4206558.81546  23744348.941    23744358.594    23744350.597
 -15096991.30249 -11749285.18747  22380121.967    22380132.307    22380123.662
 98  5 13 16 42 30.0000000  0  7G24G 2G 9G27G 7G26G 4
  -4932982.57149  -3829104.25345  24430536.833    24430550.050    24430538.641
   4026962.05349   3120203.58947  22057609.258    22057618.564    22057610.165
 -11877113.21049  -9001857.46447  22776502.685    22776512.616    22776503.883
  15560584.78949  12105082.07445  23961000.176    23961011.538    23961001.949
   2038498.33649   1593550.55047  20908780.421    20908789.163    20908781.270
   5426275.25049   4258580.44146  23757053.274    23757062.896    23757054.908
 -15181539.17249 -11815166.60847  22364033.056    22364043.365    22364034.696
 98  5 13 16 43  0.0000000  0  7G24G 2G 9G27G 7G26G 4
  -5038154.29849  -3911056.21345  24410523.327    24410536.504    24410525.220
   4068411.00549   3152501.43947  22065496.882    22065506.072    22065497.729
 -11952322.33149  -9060461.93147  22762190.746    22762200.741    22762191.963
  15678274.54549  12196788.23446  23983395.850    23983407.322    23983397.739
   2083396.17349   1628535.85447  20917324.216    20917333.005    20917325.111
   5493293.82149   4310802.64346  23769806.399    23769816.114    23769808.042
 -15265782.28949 -11880810.55547  22348001.956    22348012.399    22348003.703
 98  5 13 16 43 30.0000000  0  7G24G 2G 9G27G 7G26G 4
  -5143318.97949  -3993002.73445  24390510.954    24390524.356    24390513.101
   4110093.71349   3184981.44047  22073428.908    22073438.056    22073429.738
 -12027216.47649  -9118820.96447  22747938.762    22747948.761    22747940.046
  15796109.10349  12288607.21646  24005819.099    24005830.656    24005820.939
   2128598.78949   1663758.64847  20925925.985    20925934.777    20925926.922
   5560560.57149   4363218.24146  23782606.892    23782616.592    23782608.508
 -15349707.31849 -11946206.64147  22332031.541    22332041.922    22332033.256
 98  5 13 16 44  0.0000000  0  7G24G 2G 9G27G 7G26G 4
  -5248466.76449  -4074936.00745  24370502.268    24370515.331    24370504.094
   4152002.53349   3217637.63147  22081403.835    22081413.050    22081404.725
 -12101775.31149  -9176918.71647  22733750.699    22733760.555    22733751.908
  15914077.84049  12380530.75445  24028267.951    24028279.476    24028269.662
   2174109.43249   1699221.46447  20934586.345    20934595.142    20934587.275
   5628082.73749   4415832.84746  23795455.992    23795465.727    23795457.584
 -15433297.68049 -12011341.95447  22316124.791    22316135.136    22316126.524
 98  5 13 16 44 30.0000000  0  7G24G 2G 9G27G 7G26G 4
  -5353605.29449  -4156862.11545  24350495.447    24350508.092    24350496.910
   4194139.76049   3250471.80147  22089422.255    22089431.569    22089423.231
 -12176001.02749  -9234756.89747  22719626.049    22719635.839    22719627.167
  16032171.92249  12472551.97045  24050740.733    24050752.080    24050742.283
   2219943.58749   1734936.36047  20943308.297    20943317.059    20943309.222
   5695848.51349   4468637.29246  23808351.636    23808361.293    23808352.942
 -15516531.29049 -12076199.27347  22300286.050    22300296.272    22300287.701
 98  5 13 16 45  0.0000000  0  7G24G 2G 9G27G 7G26G 4
  -5458745.57549  -4238789.57145  24330487.784    24330500.372    24330489.184
   4236488.59149   3283470.85747  22097480.962    22097490.362    22097481.995
 -12249912.65949  -9292350.33447  22705561.157    22705571.032    22705562.282
  16150386.38149  12564666.97745  24073236.608    24073247.706    24073237.883
   2266084.25349   1770890.10347  20952088.623    20952097.350    20952089.524
   5763848.76349   4521624.43446  23821291.831    23821301.480    23821293.073
 -15599419.64049 -12140787.56747  22284512.976    22284523.118    22284514.568
 98  5 13 16 45 30.0000000  0  7G24G 2G 9G27G 7G26G 4
  -5563890.64149  -4320720.73945  24310479.192    24310491.966    24310480.760
   4279032.15749   3316621.65547  22105576.871    22105586.221    22105577.832
 -12323510.32249  -9349699.12347  22691555.890    22691565.862    22691557.082
  16268727.27749  12656880.50845  24095756.259    24095767.389    24095757.547
   2312494.16749   1807053.64647  20960920.159    20960928.872    20960921.064
   5832086.48049   4574796.62246  23834277.069    23834286.776    23834278.369
 -15681985.08449 -12205124.24647  22268801.128    22268811.362    22268802.855
 98  5 13 16 46  0.0000000  0  7G24G 2G 9G27G 7G26G 4
  -5669050.65249  -4402663.55645  24290467.920    24290480.765    24290469.443
   4321768.38949   3349922.58247  22113709.350    22113718.678    22113710.324
 -12396782.58349  -9406794.35147  22677612.386    22677622.600    22677613.799
  16387206.87449  12749202.11145  24118301.997    24118313.500    24118303.624
   2359169.65349   1843424.13047  20969802.229    20969810.933    20969803.139
   5900558.47049   4628151.35746  23847306.890    23847316.585    23847308.219
 -15764226.43249 -12269208.37347  22253150.837    22253161.314    22253152.813
 98  5 13 16 46 30.0000000  0  7G24G 2G 9G27G 7G26G 4
  -5774210.65149  -4484606.36145  24270456.636    24270469.430    24270458.253
   4364711.80249   3383384.95247  22121881.302    22121890.582    22121882.224
 -12469723.43649  -9463631.34047  22663732.367    22663742.403    22663733.594
  16505841.87249  12841644.81145  24140877.750    24140889.052    24140879.269
   2406115.19549   1880005.05047  20978735.687    20978744.382    20978736.590
   5969276.85349   4681698.09446  23860383.598    23860393.297    23860384.870
 -15846119.58949 -12333021.18947  22237566.981    22237577.537    22237569.058
 98  5 13 16 47  0.0000000  0  8G24G 2G 9G 5G27G 7G26G 4
  -5879363.80249  -4566543.82545  24250446.750    24250459.264    24250448.167
   4407868.38849   3417013.42947  22130093.796    22130103.056    22130094.666
 -12542324.12849  -9520203.26247  22649916.911    22649926.994    22649918.103
                                  25213319.530
  16624637.54549  12934212.70645  24163484.096    24163495.341    24163485.401
   2453311.49749   1916781.36447  20987716.837    20987725.574    20987717.774
   6038242.31349   4735437.34446  23873507.086    23873517.141    23873508.615
 -15927673.35149 -12396569.53747  22222047.879    22222058.311    22222049.887
 98  5 13 16 47 30.0000000  0  8G24G 2G 9G 5G27G 7G26G 4
  -5984527.65949  -4648489.63845  24230434.625    24230447.066    24230436.101
   4451234.79949   3450805.40247  22138345.990    22138355.426    22138347.013
 -12614590.99749  -9576515.06547  22636164.839    22636175.084    22636166.122
   -225718.75645                  25198322.618    25198332.605
  16743584.11549  13026898.17445  24186118.848    24186130.324    24186120.265
   2500756.50049   1953751.46947  20996745.341    20996754.111    20996746.275
   6107445.05249   4789361.49746  23886676.146    23886686.088    23886677.655
 -16008891.30249 -12459856.21447  22206592.696    22206602.999    22206594.627
 98  5 13 16 48  0.0000000  0  8G24G 2G 9G 5G27G 7G26G 4
  -6089689.11449  -4730433.56745  24210422.963    24210435.539    24210424.529
   4494828.78849   3484774.70947  22146641.708    22146651.120    22146642.682
 -12686533.32849  -9632573.97947  22622474.585    22622484.852    22622475.874
   -379824.17649   -287160.09955  25183316.706    25183330.231    25183317.144
  16862676.76049  13119697.47845  24208781.239    24208793.019    24208782.947
   2548462.91249   1990925.27347  21005823.551    21005832.390    21005824.470
   6176879.22949   4843465.98946  23899889.219    23899899.061    23899890.639
 -16089760.63049 -12522871.24147  22191203.815    22191214.061    22191205.744
 98  5 13 16 48 30.0000000  0  8G24G 2G 9G 5G27G 7G26G 4
  -6194830.13549  -4812361.58645  24190415.374    24190427.672    24190416.797
   4538657.45949   3518926.88747  22154982.141    22154991.467    22154983.038
 -12758154.88349  -9688382.94947  22608845.570    22608855.666    22608846.759
   -458690.89859   -348614.63645  25168308.758    25168321.927    25168308.974
  16981919.18049  13212613.47245  24231472.050    24231484.252    24231474.078
   2596436.09349   2028306.94347  21014952.468    21014961.423    21014953.436
   6246562.62049   4897764.66146  23913149.757    23913159.410    23913151.012
 -16170278.46849 -12585612.37947  22175882.019    22175891.989    22175883.713
 98  5 13 16 49  0.0000000  0  8G24G 2G 9G 5G27G 7G26G 4
  -6299956.60849  -4894278.23345  24170409.965    24170422.768    24170411.845
   4582723.24949   3553263.83447  22163367.580    22163376.947    22163368.454
 -12829447.05149  -9743935.24447  22595279.115    22595289.200    22595280.318
   -537583.77649   -410089.53045  25153295.864    25153308.970    25153296.533
  17101315.46649  13305649.40145  24254193.011    24254204.771    24254194.527
   2644688.48349   2065906.17947  21024134.631    21024143.543    21024135.554
   6316501.95549   4952262.78646  23926458.789    23926468.535    23926460.034
 -16250436.86849 -12648073.44147  22160628.054    22160638.313    22160630.051
 98  5 13 16 49 30.0000000  0  8G24G 2G 9G 5G27G 7G26G 4
  -6405060.37949  -4976177.21445  24150409.213    24150422.141    24150411.123
   4627014.20649   3587776.22547  22171795.927    22171805.277    22171796.792
 -12900418.91349  -9799237.96147  22581773.423    22581783.668    22581774.746
   -616507.99049   -471588.84845  25138276.884    25138290.209    25138277.718
  17220842.19649  13398786.93345  24276938.711    24276950.183    24276939.710
   2693220.03649   2103722.94547  21033369.858    21033378.787    21033370.832
   6386698.45849   5006961.30346  23939816.740    23939826.611    23939817.968
 -16330224.02749 -12710245.22747  22145445.013    22145455.281    22145447.035
 98  5 13 16 50  0.0000000  0  8G24G 2G 9G 5G27G 7G26G 4
  -6510137.85949  -5058055.72045  24130413.841    24130426.596    24130415.509
   4671530.27949   3622464.04247  22180266.929    22180276.468    22180267.941
 -12971073.14949  -9854293.17147  22568328.375    22568338.612    22568329.690
   -695469.92049   -533117.56145  25123250.820    25123264.120    25123251.719
  17340474.57449  13492006.80745  24299704.129    24299715.761    24299705.134
   2742008.75649   2141740.09947  21042654.069    21042663.024    21042655.074
   6457138.58649   5061849.64646  23953220.991    23953231.017    23953222.363
 -16409642.54849 -12772129.76147  22130332.236    22130342.405    22130334.155
 98  5 13 16 50 30.0000000  0  8G24G 2G 9G 5G27G 7G26G 4
  -6615187.89549  -5139912.84945  24110423.374    24110436.163    24110425.066
   4716271.93349   3657327.62947  22188780.967    22188790.548    22188781.982
 -13041386.04149  -9909082.39647  22554948.416    22554958.527    22554949.611
   -774472.68949   -594678.09645  25108216.887    25108230.309    25108217.996
  17460217.23649  13585312.60845  24322490.682    24322502.287    24322491.492
   2791052.64949   2179956.09447  21051986.939    21051995.786    21051987.888
   6527827.06849   5116931.52446  23966672.713    23966682.651    23966674.074
 -16488684.09849 -12833720.55347  22115291.157    22115301.296    22115292.994
 98  5 13 16 51  0.0000000  0  8G24G 2G 9G 5G27G 7G26G 4
  -6720202.24549  -5221742.13645  24090439.697    24090452.498    24090441.418
   4761248.32449   3692374.12847  22197339.690    22197349.319    22197340.708
 -13111340.69249  -9963592.48147  22541636.449    22541646.519    22541637.653
   -853524.92849   -656277.18345  25093173.682    25093187.100    25093174.757
  17580060.74349  13678697.01945  24345295.792    24345307.810    24345296.995
   2840340.25549   2218361.99747  21061366.152    21061374.917    21061367.052
   6598740.75049   5172188.88446  23980167.293    23980177.118    23980168.499
 -16567349.33649 -12895018.11847  22100321.587    22100331.773    22100323.487
 98  5 13 16 51 30.0000000  0  8G24G 2G 9G 5G27G 7G26G 4
  -6825162.14449  -5303529.06945  24070466.502    24070479.256    24070468.306
   4806464.19649   3727607.23947  22205944.047    22205953.669    22205945.045
 -13180917.01449 -10017807.76647  22528396.626    22528406.530    22528397.739
   -932626.10149   -717914.38645  25078121.176    25078134.515    25078122.275
  17700004.20749  13772159.27545  24368120.082    24368132.514    24368121.462
   2889869.59149   2256956.25647  21070791.186    21070800.054    21070792.140
   6669860.28549   5227606.64246  23993700.627    23993710.749    23993702.061
 -16645656.01049 -12956036.27847  22085420.329    22085430.475    22085422.199
 98  5 13 16 52  0.0000000  0  8G24G 2G 9G 5G27G 7G26G 4
  -6930085.38849  -5385287.35245  24050500.620    24050513.015    24050501.995
   4851914.09349   3763022.70447  22214592.812    22214602.535    22214593.875
 -13250113.60549 -10071727.14347  22515228.870    22515238.858    22515230.024
  -1011790.05149   -779600.50945  25063056.623    25063070.104    25063057.827
  17820057.78649  13865707.36345  24390965.770    24390978.115    24390967.015
   2939645.99949   2295743.04047  21080263.287    21080272.258    21080264.305
   6741173.74549   5283175.52246  24007271.217    24007281.333    24007272.634
 -16723626.11049 -13016792.17847  22070583.122    22070593.253    22070584.959
 98  5 13 16 52 30.0000000  0  8G24G 2G 9G 5G27G 7G26G 4
  -7034964.41249  -5467011.27245  24030542.522    24030555.176    24030544.284
   4897585.44449   3798610.73147  22223283.810    22223293.569    22223284.856
 -13318929.81749 -10125350.12647  22502133.507    22502143.522    22502134.744
  -1091016.30749   -841335.18545  25047980.291    25047993.829    25047981.469
  17940236.50649  13959352.95445  24413835.470    24413847.343    24413836.354
   2989681.50149   2334731.71447  21089784.852    21089793.783    21089785.777
   6812682.85949   5338896.85246  24020878.984    24020889.125    24020880.546
 -16801255.52549 -13077282.60647  22055810.866    22055820.885    22055812.535
 98  5 13 16 53  0.0000000  0  8G24G 2G 9G 5G27G 7G26G 4
  -7139799.00649  -5548700.50245  24010592.820    24010605.792    24010594.862
   4943482.48149   3834374.62047  22232017.688    22232027.541    22232018.801
 -13387377.26149 -10178685.76647  22489108.357    22489118.289    22489109.589
  -1170280.23649   -903099.21245  25032897.038    25032910.394    25032897.944
  18060533.58749  14053090.81045  24436727.469    24436739.264    24436728.353
   3039976.98749   2373922.97447  21099355.715    21099364.736    21099356.700
   6884385.76249   5394769.18446  24034523.717    24034533.866    24034525.278
 -16878535.81449 -13137500.98847  22041104.708    22041114.920    22041106.515
 98  5 13 16 53 30.0000000  0  8G24G 2G 9G 5G27G 7G26G 4
  -7244578.68049  -5630346.98445  23990653.847    23990666.775    23990655.771
   4989620.60949   3870326.36047  22240797.743    22240807.396    22240798.627
 -13455451.45849 -10231730.55547  22476154.209    22476164.128    22476155.436
  -1249553.17549   -964870.24445  25017811.670    25017825.269    25017812.845
  18180958.28049  14146928.07445  24459643.757    24459655.475    24459644.621
   3090558.75049   2413337.30647  21108981.150    21108990.193    21108982.088
   6956309.53049   5450813.61146  24048210.319    24048220.696    24048212.020
 -16955436.32849 -13197423.44747  22026470.851    22026481.214    22026472.756
 98  5 13 16 54  0.0000000  0  8G24G 2G 9G 5G27G 7G26G 4
  -7349310.78349  -5711956.35945  23970724.029    23970736.975    23970725.857
   5035994.34649   3906461.70147  22249622.121    22249632.055    22249623.241
 -13523184.21449 -10284509.29147  22463265.104    22463275.018    22463266.339
  -1328841.36649  -1026653.18245  25002723.453    25002737.177    25002724.851
  18301498.64149  14240855.47745  24482582.091    24482593.709    24482582.748
   3141400.92349   2452954.55547  21118656.106    21118665.192    21118657.074
   7028448.05949   5507025.38446  24061937.882    24061948.283    24061939.569
 -17031936.70949 -13257034.11047  22011913.337    22011923.667    22011915.195
 98  5 13 16 54 30.0000000  0  8G24G 2G 9G 5G27G 7G26G 4
  -7453961.66549  -5793502.51345  23950809.487    23950822.501    23950811.421
   5082624.06749   3942796.51247  22258495.585    22258505.445    22258496.665
 -13590555.70649 -10337006.52147  22450444.780    22450454.620    22450445.985
  -1408125.12249  -1088432.63645  24987636.065    24987649.977    24987637.517
  18422152.10049  14334871.00045  24505541.607    24505553.349    24505542.294
   3192495.63849   2492768.58947  21128379.122    21128388.197    21128380.075
   7100802.80549   5563405.65046  24075706.861    24075716.997    24075708.301
 -17108008.71549 -13316310.96647  21997437.202    21997447.627    21997439.146
 98  5 13 16 55  0.0000000  0  8G24G 2G 9G 5G27G 7G26G 4
  -7558536.55549  -5874989.37745  23930909.506    23930922.707    23930911.464
   5129510.15049   3979331.08347  22267417.834    22267427.642    22267418.878
 -13657571.25249 -10389226.39247  22437691.931    22437701.919    22437693.293
  -1487419.19449  -1150220.14245  24972546.767    24972560.869    24972548.348
  18542889.14249  14428951.64145  24528516.929    24528529.066    24528517.871
   3243821.88249   2532763.04147  21138146.206    21138155.244    21138147.141
   7173351.93349   5619937.38346  24089512.644    24089522.795    24089514.075
 -17183661.47549 -13375261.14747  21983040.935    21983051.399    21983042.889
 98  5 13 16 55 30.0000000  0  8G24G 2G 9G 5G27G 7G26G 4
  -7663036.19749  -5956417.66745  23911024.113    23911036.994    23911025.856
   5176626.32949   4016044.95447  22276383.781    22276393.570    22276384.879
 -13724229.40949 -10441167.77647  22425007.218    22425017.216    22425008.633
  -1566755.18149  -1212040.29945  24957449.691    24957463.824    24957451.138
  18663694.10849  14523085.22745  24551506.134    24551517.534    24551506.496
   3295374.83749   2572934.15147  21147956.419    21147965.464    21147957.373
   7246062.40149   5676594.83446  24103349.201    24103359.118    24103350.511
 -17258916.37149 -13433901.29447  21968720.444    21968730.843    21968722.297
 98  5 13 16 56  0.0000000  0  8G24G 2G 9G 5G27G 7G26G 4
  -7767460.25449  -6037787.02145  23891152.928    23891165.776    23891154.664
   5223949.63149   4052920.21147  22285389.306    22285398.952    22285390.305
 -13790523.99849 -10492825.86247  22412391.917    22412401.745    22412393.198
  -1646146.55749  -1273903.62645  24942341.934    24942356.147    24942343.412
  18784565.64349  14617270.67045  24574507.669    24574518.859    24574507.907
   3347138.00449   2613269.05947  21157806.606    21157815.681    21157807.589
   7318920.06449   5733366.97246  24117213.615    24117223.486    24117214.917
 -17333785.48149 -13492240.84047  21954473.271    21954483.717    21954475.113
 98  5 13 16 56 30.0000000  0  8G24G 2G 9G 5G27G 7G26G 4
  -7871803.17949  -6119093.17445  23871296.958    23871309.899    23871298.841
   5271474.69749   4089952.69647  22294433.010    22294442.702    22294434.061
 -13856423.01049 -10544175.69947  22399851.774    22399861.560    22399853.031
  -1725580.05149  -1335799.76645  24927226.414    24927240.271    24927227.646
  18905508.96849  14711512.05945  24597522.254    24597533.880    24597522.818
   3399135.10449   2653786.25147  21167701.374    21167710.396    21167702.334
   7391938.48749   5790264.39746  24131108.584    24131118.557    24131109.909
 -17408266.66449 -13550278.10647  21940299.965    21940310.396    21940301.787
 98  5 13 16 57  0.0000000  0  8G24G 2G 9G 5G27G 7G26G 4
  -7976084.43849  -6200351.26745  23851452.860    23851465.768    23851454.674
   5319179.63849   4127125.33747  22303511.110    22303520.669    22303512.101
 -13921935.16349 -10595224.09347  22387385.205    22387394.992    22387386.501
  -1805059.82849  -1397731.97245  24912101.797    24912115.612    24912103.012
  19026526.57049  14805811.29245  24620551.143    24620562.892    24620551.836
   3451373.34349   2694491.34347  21177641.924    21177650.962    21177642.915
   7465121.78049   5847290.27746  24145034.799    24145045.009    24145036.225
 -17482361.83749 -13608014.58747  21926200.058    21926210.503    21926201.952
 98  5 13 16 57 30.0000000  0  8G24G 2G 9G 5G27G 7G26G 4
  -8080306.15449  -6281562.96945  23831620.287    23831632.885    23831621.884
   5367068.12349   4164441.00147  22312624.043    22312633.529    22312624.996
 -13987050.56649 -10645963.33447  22374994.150    22375003.919    22374995.438
  -1884563.69849  -1459682.95345  24896972.556    24896986.381    24896973.836
  19147651.51749  14900194.18945  24643601.023    24643612.221    24643601.477
   3503860.41849   2735390.33447  21187629.942    21187638.897    21187630.922
   7538497.55549   5904466.13846  24158997.668    24159008.076    24158999.215
 -17556057.10349 -13665439.44247  21912176.394    21912186.706    21912178.196
 98  5 13 16 58  0.0000000  0  8G24G 2G 9G 5G27G 7G26G 4
  -8184462.94449  -6362724.08245  23811799.758    23811812.379    23811801.569
   5415154.75549   4201911.06647  22321774.581    22321784.151    22321775.616
 -14051788.72849 -10696408.61447  22362674.793    22362684.628    22362676.103
  -1964083.23149  -1521646.12745  24881840.479    24881854.212    24881841.708
  19268896.79849  14994670.86545  24666673.303    24666684.624    24666674.036
   3556581.43849   2776471.61947  21197662.374    21197671.378    21197663.400
   7612094.66349   5961814.46946  24173002.923    24173013.239    24173004.324
 -17629342.11149 -13722544.62747  21898230.724    21898240.960    21898232.518
 98  5 13 16 58 30.0000000  0  8G24G 2G 9G 5G27G 7G26G 4
  -8288562.51649  -6443840.56745  23791989.855    23792002.786    23791992.095
   5463452.31049   4239545.48847  22330965.315    22330974.879    22330966.352
 -14116178.35149 -10746582.30647  22350421.890    22350431.666    22350423.136
  -2043627.14749  -1583628.33345  24866703.644    24866717.405    24866704.910
  19390251.41849  15089232.73245  24689766.225    24689777.973    24689767.186
   3609527.82649   2817728.51747  21207737.778    21207746.750    21207738.771
   7685892.53749   6019319.24946  24187046.303    24187056.602    24187047.727
 -17702228.33949 -13779339.07347  21884360.905    21884371.083    21884362.731
 98  5 13 16 59  0.0000000  0  8G24G 2G 9G 5G27G 7G26G 4
  -8392588.24749  -6524899.54445  23772194.429    23772207.289    23772196.718
   5511994.23549   4277370.32647  22340202.595    22340212.091    22340203.601
 -14180222.10049 -10796486.49547  22338234.780    22338244.499    22338236.031
  -2123181.79549  -1645618.88945  24851565.132    24851578.477    24851566.119
  19511735.69649  15183895.62945  24712883.844    24712895.859    24712885.009
   3662702.01949   2859162.92447  21217856.501    21217865.526    21217857.544
   7759896.88549   6076984.91346  24201128.930    24201139.173    24201130.288
 -17774709.33049 -13835817.74747  21870568.302    21870578.398    21870570.060
 98  5 13 16 59 30.0000000  0  8G24G 2G 9G 5G27G 7G26G 4
  -8496519.06049  -6605884.52245  23752417.756    23752429.948    23752419.398
   5560814.89049   4315412.35847  22349492.916    22349502.377    22349493.877
 -14243911.72649 -10846114.73747  22326114.970    22326124.656    22326116.239
  -2202744.00749  -1707615.33445  24836424.599    24836438.144    24836425.822
  19633350.46349  15278660.23345  24736026.022    24736038.319    24736027.689
   3716106.34549   2900776.65247  21228019.173    21228028.121    21228020.098
   7834102.24849   6134807.21746  24215249.563    24215260.114    24215251.102
 -17846778.03249 -13891975.15947  21856854.070    21856864.155    21856855.867
 98  5 13 17  0  0.0000000  0  8G24G 2G 9G 5G27G 7G26G 4
  -8600344.97849  -6686787.76845  23732660.805    23732672.500    23732661.966
   5609908.29049   4353666.92547  22358835.109    22358844.547    22358836.047
 -14307248.26149 -10895467.84147  22314062.392    22314072.091    22314063.683
  -2282332.83749  -1769632.52145  24821279.223    24821292.687    24821280.527
  19755052.78249  15373493.05045  24759185.805    24759197.602    24759186.970
   3769736.71249   2942566.51947  21238224.705    21238233.711    21238225.679
   7908466.30949   6192753.20046  24229400.369    24229411.232    24229401.969
 -17918447.01349 -13947821.09647  21843215.810    21843225.949    21843217.716
 98  5 13 17  0 30.0000000  0  8G24G 2G 9G 5G27G 7G26G 4
  -8704064.23049  -6767607.89445  23712923.463    23712935.239    23712924.708
   5659292.01949   4392147.72047  22368232.601    22368241.983    22368233.496
 -14370183.35049 -10944508.13347  22302086.143    22302095.859    22302087.464
  -2361929.52749  -1831655.81145  24806132.573    24806145.867    24806133.753
  19876834.38649  15468387.64145  24782361.098    24782372.058    24782361.330
   3823619.04249   2984552.72147  21248478.193    21248487.269    21248479.183
   7982974.31749   6250811.32646  24243578.727    24243589.794    24243580.239
 -17989702.93749 -14003345.17047  21829656.148    21829666.330    21829658.129
 98  5 13 17  1  0.0000000  0  8G24G 2G 9G 5G27G 7G26G 4
  -8807683.95249  -6848350.43545  23693205.113    23693217.109    23693206.499
   5708951.09549   4430843.06747  22377682.310    22377691.826    22377683.279
 -14432690.52849 -10993214.98647  22290191.356    22290201.033    22290192.727
  -2441529.74449  -1893681.85445  24790984.950    24790998.297    24790986.363
  19998685.52149  15563336.43445  24805548.936    24805559.553    24805548.983
   3877755.33249   3026736.81747  21258779.986    21258789.126    21258781.028
   8057630.77249   6308985.11146  24257785.253    24257796.524    24257786.843
 -18060532.86849 -14058537.29647  21816177.651    21816187.837    21816179.630
 98  5 13 17  1 30.0000000  0  8G24G 2G 9G 5G27G 7G26G 4
  -8911178.82749  -6928995.74845  23673510.809    23673522.497    23673511.998
   5758887.96049   4469754.86847  22387184.858    22387194.573    22387185.936
 -14494736.45849 -11041562.42647  22278384.293    22278393.989    22278385.704
  -2521125.55749  -1955704.46045  24775838.389    24775851.688    24775839.700
  20120607.82149  15658340.67745  24828750.165    24828760.929    24828750.232
   3932162.37249   3069131.88047  21269133.364    21269142.512    21269134.348
   8132452.58449   6367287.77646  24272023.232    24272034.785    24272024.928
 -18130905.18049 -14113372.84647  21802786.137    21802796.413    21802788.201
 98  5 13 17  2  0.0000000  0  8G24G 2G 9G 5G27G 7G26G 4
  -9014598.38849  -7009582.33345  23653830.257    23653842.387    23653831.963
   5809045.54249   4508838.66147  22396729.533    22396739.260    22396730.617
 -14556349.07749 -11089572.21947  22266659.726    22266669.391    22266661.140
  -2600756.34649  -2017754.33545  24760685.005    24760698.414    24760686.279
  20242566.94649  15753373.60845  24851957.644    24851969.051    24851958.399
   3986784.99249   3111694.93247  21279527.698    21279536.897    21279528.699
   8207400.69449   6425688.83246  24286285.594    24286296.867    24286287.128
 -18200854.46249 -14167878.76147  21789475.278    21789485.517    21789477.334
 98  5 13 17  2 30.0000000  0  8G24G 2G 9G 5G27G 7G26G 4
  -9117954.41949  -7090119.42645  23634162.123    23634174.270    23634163.934
   5859431.73549   4548100.58647  22406317.772    22406327.446    22406318.819
 -14617532.16749 -11137247.31647  22255017.037    22255026.572    22255018.386
  -2680414.52549  -2079825.55246  24745526.378    24745539.979    24745527.733
  20364590.71049  15848456.90245  24875177.337    24875189.597    24875178.813
   4041616.36749   3154420.65747  21289961.730    21289970.945    21289962.785
   8282501.10149   6484208.57846  24300576.788    24300587.952    24300578.371
 -18270362.99349 -14222041.22947  21776248.354    21776258.482    21776250.302
 98  5 13 17  3  0.0000000  0  8G24G 2G 9G 5G27G 7G26G 4
  -9221235.45149  -7170598.08846  23614508.618    23614520.514    23614510.178
   5910027.59249   4587525.87947  22415945.971    22415955.543    22415946.878
 -14678299.77749 -11184598.66147  22243453.359    22243462.881    22243454.674
  -2760109.73149  -2141925.64145  24730360.929    24730374.526    24730362.144
  20486688.29149  15943597.70345  24898411.536    24898424.269    24898413.509
   4096640.63749   3197296.68847  21300432.476    21300441.718    21300433.531
   8357762.09149   6542853.45546  24314898.402    24314909.656    24314900.075
 -18339434.13449 -14275862.87047  21763104.457    21763114.684    21763106.524
 98  5 13 17  3 30.0000000  0  8G24G 2G 9G 5G27G 7G26G 4
  -9324425.02349  -7251005.47846  23594872.577    23594884.171    23594873.823
   5960844.61849   4627123.52847  22425615.976    22425625.746    22425617.038
 -14738662.33049 -11231634.37747  22231966.614    22231976.274    22231968.013
  -2839850.88549  -2204061.53145  24715186.767    24715200.284    24715187.779
  20608858.24449  16038794.87545  24921659.826    24921672.742    24921661.959
   4151849.95449   3240316.91347  21310938.425    21310947.727    21310939.533
   8433185.70049   6601625.03646  24329251.229    24329262.345    24329252.782
 -18408076.66749 -14329350.53747  21750042.287    21750052.463    21750044.287
 98  5 13 17  4  0.0000000  0  8G24G 2G 9G 5G27G 7G26G 4
  -9427520.41749  -7331339.47446  23575254.089    23575265.743    23575255.399
   6011902.36149   4666908.73247  22435331.811    22435341.761    22435333.016
 -14798621.62849 -11278355.88047  22220556.516    22220566.330    22220558.049
  -2919618.66049  -2266218.17645  24700007.467    24700020.920    24700008.480
  20731109.07149  16134055.12545  24944923.184    24944936.530    24944925.616
   4207256.49049   3283490.81247  21321481.893    21321491.236    21321482.994
   8508771.87749   6660523.30046  24343634.752    24343645.912    24343636.400
 -18476289.73949 -14382503.55547  21737061.581    21737071.967    21737063.722
 98  5 13 17  4 30.0000000  0  8G24G 2G 9G 5G27G 7G26G 4
  -9530499.67949  -7411583.01446  23555657.704    23555669.349    23555659.073
   6063213.22749   4706891.18247  22445095.895    22445105.980    22445097.165
 -14858188.98549 -11324771.97247  22209221.120    22209230.995    22209222.694
  -2999405.29849  -2328389.53245  24684824.369    24684837.869    24684825.523
  20853424.75049  16229365.90345  24968199.375    24968212.649    24968201.629
   4262887.77249   3326839.84247  21332068.117    21332077.581    21332069.291
   8584515.22649   6719544.04146  24358048.152    24358059.514    24358049.892
 -18544068.02449 -14435317.76647  21724163.886    21724174.228    21724165.901
 98  5 13 17  5  0.0000000  0  8G24G 2G 9G 5G27G 7G26G 4
  -9633333.87249  -7491713.49546  23536089.004    23536100.637    23536090.419
   6114780.25649   4747073.23447  22454908.858    22454918.892    22454910.081
 -14917349.95649 -11370871.40047  22197963.072    22197973.027    22197964.667
  -3079203.68749  -2390570.00745  24669639.081    24669652.786    24669640.216
  20975791.80449  16324716.70845  24991485.718    24991498.559    24991487.324
   4318754.53049   3370372.36047  21342699.205    21342708.710    21342700.369
   8660416.71149   6778688.00346  24372491.776    24372503.024    24372493.484
 -18611404.24549 -14487787.52147  21711350.064    21711360.567    21711352.208
 98  5 13 17  5 30.0000000  0  8G24G 2G 9G 5G27G 7G26G 4
  -9736036.92349  -7571741.79546  23516545.128    23516556.881    23516546.598
   6166603.91049   4787455.25147  22464770.621    22464780.639    22464771.853
 -14976116.54749 -11416663.51847  22186780.050    22186790.088    22186781.727
  -3159016.93749  -2452762.06745  24654450.583    24654464.732    24654452.166
  21098198.34149  16420098.25145  25014779.454    25014791.866    25014780.781
   4374850.85449   3414083.75847  21353373.922    21353383.526    21353375.157
   8736464.62149   6837946.06846  24386963.037    24386974.460    24386964.852
 -18678290.57949 -14539906.71047  21698622.014    21698632.518    21698624.140
 98  5 13 17  6  0.0000000  0  8G24G 2G 9G 5G27G 7G26G 4
  -9838612.55949  -7651670.83746  23497025.194    23497037.333    23497027.065
   6218665.31949   4828022.52647  22474677.943    22474687.651    22474678.892
 -15034485.34649 -11462145.67047  22175672.834    22175682.899    22175674.487
  -3238832.06849  -2514955.55945  24639262.094    24639276.205    24639263.717
  21220647.68649  16515513.16745  25038081.220    25038093.318    25038082.152
   4431178.90149   3457975.72047  21364092.877    21364102.417    21364094.049
   8812644.57449   6897307.01546  24401459.694    24401471.016    24401461.416
 -18744713.91149 -14591665.11547  21685981.901    21685992.571    21685984.151
 98  5 13 17  6 30.0000000  0  8G24G 2G 9G 5G27G 7G26G 4
  -9941060.74949  -7731500.55246  23477530.006    23477541.996    23477531.719
   6270940.84549   4868756.65247  22484625.496    22484635.392    22484626.607
 -15092451.64849 -11507314.19247  22164642.162    22164652.249    22164643.854
  -3318657.58149  -2577157.15245  24624071.743    24624085.751    24624073.401
  21343129.66349  16610953.50545  25061388.659    25061401.156    25061389.708
   4487722.08049   3502035.31247  21374852.568    21374862.271    21374853.859
   8888946.61849   6956763.10246  24415979.227    24415990.827    24415981.178
 -18810675.37149 -14643063.62247  21673429.879    21673440.541    21673432.047
 98  5 13 17  7  0.0000000  0  9G24G 2G 9G 5G27G 7G26G 4G 8
 -10043376.61049  -7811227.15346  23458060.111    23458071.900    23458061.634
   6323433.96949   4909660.33647  22494614.459    22494624.522    22494615.684
 -15149979.03349 -11552140.69547  22153695.064    22153705.077    22153696.722
  -3398485.92949  -2639360.96146  24608881.007    24608894.783    24608882.557
  21465670.84249  16706439.95845  25084707.021    25084720.141    25084708.626
   4544477.03349   3546259.92947  21385652.600    21385662.419    21385653.985
   8965384.66949   7016325.17346  24430524.998    24430536.598    24430526.908
 -18876157.58649 -14694088.68847  21660968.861    21660979.635    21660971.117
                                  24838384.390
 98  5 13 17  7 30.0000000  0  9G24G 2G 9G 5G27G 7G26G 4G 8
 -10145577.44249  -7890864.14846  23438611.489    23438623.633    23438613.448
   6376140.11049   4950730.00347  22504643.926    22504654.222    22504645.356
 -15207068.97249 -11596626.33447  22142831.290    22142841.252    22142832.893
  -3478323.48749  -2701571.94246  24593688.380    24593702.105    24593689.798
  21588270.49149  16801971.97145  25108036.587    25108050.125    25108038.597
   4601438.58449   3590645.53047  21396492.128    21396501.876    21396493.430
   9041939.42949   7075978.17746  24445092.887    24445104.624    24445094.791
 -18941169.53549 -14744747.31547  21648597.397    21648608.223    21648599.710
   -270294.13645                  24818273.747    24818287.778
 98  5 13 17  8  0.0000000  0  9G24G 2G 9G 5G27G 7G26G 4G 8
 -10247644.47949  -7970396.86746  23419188.535    23419200.934    23419190.711
   6429071.91349   4991975.51247  22514716.545    22514726.851    22514717.985
 -15263714.35949 -11640765.56847  22132051.878    22132062.006    22132053.559
  -3558170.89149  -2763790.60446  24578494.121    24578507.462    24578495.368
  21710921.12349  16897543.71845  25131376.277    25131389.979    25131378.436
   4658612.92149   3635196.93547  21407372.023    21407381.816    21407373.384
   9118602.85949   7135715.86846  24459681.318    24459693.316    24459683.309
 -19005715.49149 -14795042.82747  21636314.786    21636325.453    21636316.952
   -471462.65349   -352533.02255  24798189.093    24798204.327    24798190.070
 98  5 13 17  8 30.0000000  0  9G24G 2G 9G 5G27G 7G26G 4G 8
 -10349573.79449  -8049822.27946  23399792.164    23399804.438    23399794.127
   6482255.96549   5033417.57347  22524837.060    22524847.469    22524838.599
 -15319906.74549 -11684551.81647  22121358.759    22121368.971    22121360.462
  -3638039.40249  -2826025.70846  24563295.606    24563308.832    24563296.916
  21833616.61249  16993150.42845  25154724.789    25154738.179    25154726.636
   4715997.57949   3679912.22247  21418291.975    21418301.760    21418293.335
   9195383.82749   7195545.12746  24474292.122    24474304.321    24474294.300
 -19069795.98349 -14844975.63847  21624120.710    21624131.295    21624122.776
   -576873.76059   -434671.49645  24778129.466    24778144.318    24778130.735
 98  5 13 17  9  0.0000000  0  9G24G 2G 9G 5G27G 7G26G 4G 8
 -10451361.23649  -8129137.15646  23380422.517    23380434.828    23380424.534
   6535710.29449   5075070.24247  22535009.082    22535019.541    22535010.615
 -15375647.20549 -11727985.91347  22110751.733    22110761.873    22110753.400
  -3717935.87349  -2888282.59846  24548091.726    24548104.920    24548093.135
  21956349.96449  17088786.61145  25178080.625    25178093.839    25178082.053
   4773593.66549   3724792.26147  21429252.070    21429261.891    21429253.500
   9272295.49949   7255476.26446  24488927.984    24488940.272    24488930.239
 -19133416.44249 -14894549.98347  21612013.970    21612024.684    21612016.151
   -682169.21549   -516719.84545  24758092.542    24758107.258    24758093.528
 98  5 13 17  9 30.0000000  0  9G24G 2G 9G 5G27G 7G26G 4G 8
 -10553002.76149  -8208338.31246  23361080.750    23361093.083    23361082.782
   6589435.48849   5116933.98047  22545232.746    22545243.205    22545234.223
 -15430953.64949 -11771081.81247  22100227.266    22100237.365    22100228.881
  -3797861.74249  -2950562.40046  24532882.212    24532895.427    24532883.706
  22079096.16249  17184432.81445  25201438.525    25201451.934    25201439.844
   4831397.76749   3769834.39247  21440251.894    21440261.651    21440253.303
   9349337.07849   7315508.61646  24503588.472    24503600.894    24503590.768
 -19196585.74749 -14943772.78247  21599993.010    21600003.890    21599995.347
   -787355.27849   -598682.96545  24738076.522    24738091.014    24738077.521
 98  5 13 17 10  0.0000000  0  8G24G 2G 9G 5G 7G26G 4G 8
 -10654482.54149  -8287413.44246  23341769.822    23341782.057    23341771.717
   6643432.23349   5159009.31447  22555508.037    22555518.501    22555509.465
 -15485817.61549 -11813832.93347  22089786.947    22089797.066    22089788.619
  -3877814.41949  -3012863.10746  24517667.587    24517680.851    24517669.149
   4889405.78649   3815035.41247  21451290.561    21451300.284    21451291.939
   9426516.20649   7375648.14846  24518275.129    24518287.645    24518277.431
 -19259297.70249 -14992639.19847  21588059.299    21588070.108    21588061.601
   -892420.84449   -680552.16245  24718083.352    24718097.530    24718084.291
 98  5 13 17 10 30.0000000  0  8G24G 2G 9G 5G 7G26G 4G 8
 -10755803.36049  -8366364.69846  23322488.916    23322501.329    23322490.940
   6697693.32949   5201290.63647  22565833.646    22565844.128    22565835.025
 -15540224.98049 -11856228.25347  22079433.592    22079443.721    22079435.242
  -3957786.06449  -3075178.58245  24502449.380    24502462.663    24502450.930
   4947617.45349   3860395.12047  21462367.905    21462377.625    21462369.273
   9503839.92049   7435900.32846  24532989.849    24533001.939    24532991.777
 -19321544.37449 -15041143.05447  21576214.146    21576224.904    21576216.397
   -997343.98649   -762310.39645  24698117.116    24698131.334    24698118.123
 98  5 13 17 11  0.0000000  0  8G24G 2G 9G 5G 7G26G 4G 8
 -10856981.41649  -8445204.70146  23303235.494    23303247.776    23303237.366
   6752183.38749   5243750.36147  22576202.777    22576213.316    22576204.193
 -15594184.56549 -11898274.65247  22069165.400    22069175.587    22069167.047
  -4037780.07249  -3137511.47445  24487226.837    24487240.292    24487228.473
   5006018.72049   3905902.56947  21473481.317    21473491.066    21473482.669
   9581289.47249   7496250.57746  24547728.134    24547740.218    24547730.056
 -19383332.19149 -15089289.36747  21564456.155    21564467.040    21564458.523
  -1102126.34749   -843958.93045  24678177.989    24678191.671    24678178.678
 98  5 13 17 11 30.0000000  0  8G24G 2G 9G 5G 7G26G 4G 8
 -10958014.78149  -8523931.98746  23284009.701    23284021.715    23284011.350
   6806890.19949   5286378.99547  22586613.193    22586623.718    22586614.574
 -15647701.88549 -11939976.44047  22058981.547    22058991.520    22058983.015
  -4117791.26449  -3199857.75245  24472000.964    24472014.582    24472002.602
   5064606.30149   3951555.19847  21484630.074    21484639.961    21484631.530
   9658842.21949   7556681.24646  24562485.820    24562498.033    24562487.904
 -19444645.74749 -15137066.12247  21552788.595    21552799.385    21552790.895
  -1206758.80049   -925490.66445  24658267.369    24658280.652    24658267.965
 98  5 13 17 12  0.0000000  0  8G24G 2G 9G 5G 7G26G 4G 8
 -11058899.57349  -8602543.48146  23264811.862    23264824.004    23264813.566
   6861822.58749   5329183.39847  22597066.442    22597077.027    22597067.883
 -15700770.11749 -11981328.27847  22048882.892    22048892.931    22048884.437
  -4197804.46649  -3262205.60346  24456775.012    24456788.592    24456776.467
   5123372.13749   3997346.72647  21495812.902    21495822.793    21495814.327
   9736496.05449   7617190.68446  24577262.920    24577275.137    24577264.989
 -19505465.31549 -15184457.95347  21541215.079    21541225.766    21541217.285
  -1311225.00949  -1006892.83445  24638387.926    24638401.346    24638388.810
 98  5 13 17 12 30.0000000  0  8G24G 2G 9G 5G 7G26G 4G 8
 -11159647.90549  -8681048.63046  23245639.850    23245652.168    23245641.776
   6916981.11749   5372164.00847  22607562.703    22607573.441    22607564.319
 -15753401.07249 -12022339.39247  22038867.617    22038877.596    22038869.120
  -4277815.35449  -3324551.65346  24441549.379    24441562.991    24441550.898
   5182311.46749   4043273.44447  21507028.718    21507038.592    21507030.125
   9814245.76849   7677774.82646  24592058.258    24592070.501    24592060.333
 -19565790.45949 -15231464.52747  21529735.525    21529746.260    21529737.773
  -1415538.09549  -1088175.68545  24618537.605    24618551.101    24618538.739
 98  5 13 17 13  0.0000000  0  8G24G 2G 9G 5G 7G26G 4G 8
 -11260239.84849  -8759431.92546  23226497.918    23226510.154    23226499.738
   6972382.73249   5415334.03847  22618105.348    22618116.079    22618106.953
 -15805588.03049 -12063004.52947  22028936.688    22028946.710    22028938.246
  -4357807.23149  -3386882.88146  24426327.407    24426341.001    24426328.873
   5241418.99249   4089331.22447  21518276.485    21518286.395    21518277.943
   9892095.70449   7738437.05946  24606872.613    24606884.977    24606874.739
 -19625607.86049 -15278075.44947  21518352.691    21518363.372    21518354.886
  -1519698.17749  -1169339.30745  24598716.245    24598730.024    24598717.672
 98  5 13 17 13 30.0000000  0  8G24G 2G 9G 5G 7G26G 4G 8
 -11360658.65649  -8837680.29646  23207388.644    23207401.051    23207390.579
   7028043.55349   5458706.04747  22628697.293    22628708.004    22628698.917
 -15857334.06249 -12103326.08747  22019089.761    22019099.721    22019091.284
  -4437778.26249  -3449197.87846  24411109.348    24411122.883    24411110.833
   5300699.72349   4135523.97247  21529557.222    21529567.153    21529558.684
   9970041.10149   7799173.68446  24621705.168    24621717.500    24621707.327
 -19684915.05949 -15324288.82147  21507066.816    21507077.573    21507069.085
  -1623696.53249  -1250376.89145  24578925.834    24578939.863    24578927.346
 98  5 13 17 14  0.0000000  0  8G24G 2G 9G 5G 7G26G 4G 8
 -11460908.34249  -8915796.87546  23188311.660    23188324.145    23188313.648
   7083971.90149   5502286.51847  22639340.318    22639350.875    22639341.809
 -15908628.85349 -12143296.03547  22009328.610    22009338.590    22009330.217
  -4517725.47649  -3511494.32146  24395895.934    24395909.253    24395897.414
   5360154.67149   4181852.47047  21540871.216    21540881.116    21540872.648
  10048084.19449   7859986.42546  24636556.401    24636568.636    24636558.428
 -19743724.30349 -15370114.17147  21495875.801    21495886.523    21495878.054
  -1727535.28149  -1331290.09845  24559165.733    24559179.884    24559167.386
 98  5 13 17 14 30.0000000  0  8G24G 2G 9G 5G 7G26G 4G 8
 -11560973.81449  -8993769.91946  23169270.082    23169282.262    23169271.829
   7140171.39249   5546078.27047  22650034.622    22650045.331    22650036.244
 -15959460.77749 -12182905.30147  21999655.630    21999665.525    21999657.196
  -4597656.62549  -3573778.23046  24380685.539    24380698.742    24380687.033
   5419803.15449   4228331.77247  21552221.973    21552231.873    21552223.366
  10126224.02749   7920874.55146  24651425.962    24651438.276    24651427.923
 -19802047.41649 -15415560.71947  21484777.370    21484787.973    21484779.507
  -1831200.69249  -1412068.22945  24539438.488    24539452.939    24539440.385
 98  5 13 17 15  0.0000000  0  8G24G 2G 9G 5G 7G26G 4G 8
 -11660847.07649  -9071593.19046  23150264.552    23150276.974    23150266.620
   7196631.28549   5590072.93847  22660778.626    22660789.398    22660780.203
 -16009835.82649 -12222158.55947  21990069.434    21990079.386    21990071.109
  -4677597.93049  -3636070.03145  24365473.379    24365486.249    24365474.618
   5479634.10449   4274953.26547  21563607.453    21563617.372    21563608.897
  10204435.55949   7981818.55546  24666309.173    24666321.501    24666311.062
 -19859892.45549 -15460634.74447  21473769.677    21473780.373    21473771.989
  -1934673.42849  -1492696.24345  24519748.127    24519762.602    24519750.040
 98  5 13 17 15 30.0000000  0  8G24G 2G 9G 5G 7G26G 4G 8
 -11760541.40849  -9149277.02046  23131293.473    23131305.828    23131295.452
   7253347.97549   5634267.70647  22671571.498    22671582.240    22671573.062
 -16059759.18549 -12261059.85147  21980569.295    21980579.293    21980571.077
  -4757564.49849  -3698381.53745  24350256.036    24350268.964    24350257.424
   5539654.76649   4321722.57947  21575029.171    21575038.931    21575030.538
  10282713.30649   8042814.16246  24681205.185    24681217.319    24681206.919
 -19917268.54449 -15505343.35547  21462851.422    21462862.009    21462853.733
  -2037938.63349  -1573162.53145  24500097.431    24500111.757    24500099.208
 98  5 13 17 16  0.0000000  0  8G24G 2G 9G 5G 7G26G 4G 8
 -11860045.16149  -9226812.34746  23112358.724    23112370.827    23112360.506
   7310332.07449   5678670.83847  22682415.250    22682426.055    22682416.840
 -16109215.83849 -12299597.48147  21971158.219    21971167.975    21971159.905
  -4837556.77749  -3760713.09145  24335033.936    24335046.769    24335035.414
   5599871.87749   4368644.97347  21586488.166    21586497.871    21586489.551
  10361064.51049   8103866.99646  24696115.134    24696127.185    24696116.765
 -19974169.78749 -15549681.96447  21452023.431    21452034.036    21452025.822
  -2140984.67249  -1653458.04345  24480488.464    24480502.661    24480490.207
 98  5 13 17 16 30.0000000  0  8G24G 2G 9G 5G 7G26G 4G 8
 -11959347.49149  -9304190.73746  23093462.062    23093474.169    23093463.887
   7367576.29649   5723276.66747  22693308.682    22693319.395    22693310.205
 -16158199.40349 -12337766.46847  21961837.083    21961846.691    21961838.738
  -4917586.97149  -3823074.21145  24319804.910    24319817.349    24319806.156
   5660285.87049   4415720.78447  21597984.687    21597994.284    21597986.043
  10439485.47949   8164974.18946  24711038.248    24711050.296    24711039.778
 -20030581.81349 -15593639.36347  21441288.704    21441299.133    21441291.035
  -2243807.70049  -1733579.78545  24460922.071    24460936.132    24460923.655
 98  5 13 17 17  0.0000000  0  8G24G 2G 9G 5G 7G26G 4G 8
 -12058465.50649  -9381425.49446  23074600.512    23074612.587    23074602.322
   7425071.71649   5768078.23647  22704249.809    22704260.508    22704251.296
 -16206711.78449 -12375568.30447  21952605.531    21952615.074    21952607.212
  -4997651.58549  -3885462.12345  24304568.803    24304581.467    24304570.306
   5720890.01749   4462944.76847  21609517.373    21609526.855    21609518.681
  10517980.95449   8226139.45146  24725975.638    24725987.582    24725977.022
 -20086486.90249 -15637201.75547  21430650.298    21430660.714    21430652.701
  -2346426.96649  -1813542.74445  24441394.304    24441408.283    24441395.883
 98  5 13 17 17 30.0000000  0  8G24G 2G 9G 5G 7G26G 4G 8
 -12157408.19049  -9458523.63746  23055772.535    23055784.363    23055774.101
   7482817.02649   5813074.51947  22715238.465    22715249.159    22715239.876
 -16254742.81149 -12412995.05547  21943465.622    21943475.095    21943467.184
  -5077730.60449  -3947861.24645  24289330.069    24289342.920    24289331.549
   5781694.91049   4510325.17447  21621088.255    21621097.669    21621089.461
  10596567.92949   8287375.99746  24740930.109    24740942.205    24740931.556
 -20141870.56049 -15680357.83947  21420111.112    21420121.558    21420113.537
  -2448873.74449  -1893371.30045  24421899.392    24421913.105    24421900.795
 98  5 13 17 18  0.0000000  0  8G24G 2G 9G 5G 7G26G 4G 8
 -12256159.71249  -9535472.82146  23036980.484    23036992.498    23036982.200
   7540815.34449   5858267.96347  22726275.143    22726285.932    22726276.592
 -16302279.51349 -12450036.61947  21934419.699    21934429.154    21934421.224
  -5157803.79549  -4010255.82645  24274092.491    24274105.498    24274093.951
   5842703.85449   4557864.58247  21632697.887    21632707.306    21632699.021
  10675247.65249   8348684.80946  24755901.897    24755914.461    24755903.773
 -20196703.67149 -15723084.92447  21409676.767    21409687.106    21409679.061
  -2551157.27049  -1973072.64445  24402435.222    24402449.080    24402436.744
 98  5 13 17 18 30.0000000  0  8G24G 2G 9G 5G 7G26G 4G 8
 -12354736.40649  -9612285.78046  23018221.739    23018233.868    23018223.610
   7599048.30849   5903644.24447  22737356.448    22737367.345    22737357.948
 -16349334.21749 -12486702.60047  21925465.428    21925474.920    21925466.950
  -5237865.69249  -4072641.62546  24258857.079    24258870.183    24258858.606
   5903894.15649   4605545.30847  21644341.893    21644351.489    21644343.140
  10754012.24349   8410059.76946  24770890.573    24770902.939    24770892.228
 -20250981.53349 -15765379.34347  21399348.009    21399358.317    21399350.278
  -2653297.34649  -2052662.21545  24382998.702    24383012.262    24382999.967
 98  5 13 17 19  0.0000000  0  8G24G 2G 9G 5G 7G26G 4G 8
 -12453125.01849  -9688952.17946  22999498.920    22999511.087    22999500.805
   7657524.89849   5949210.36447  22748484.281    22748495.138    22748485.736
 -16395911.02749 -12522996.19647  21916602.052    21916611.581    21916603.597
  -5317897.21949  -4135003.76946  24243627.390    24243640.576    24243629.007
   5965263.09349   4653365.23147  21656020.001    21656029.634    21656021.259
  10832854.86449   8471495.53946  24785893.770    24785906.237    24785895.470
 -20304695.14849 -15807234.09347  21389126.769    21389136.943    21389128.893
  -2755293.61549  -2132139.73045  24363589.492    24363602.859    24363590.563
 98  5 13 17 19 30.0000000  0  8G24G 2G 9G 5G 7G26G 4G 8
 -12551306.14349  -9765456.90046  22980815.516    22980827.881    22980817.525
   7716256.27449   5994975.01947  22759660.526    22759671.397    22759661.931
 -16442010.01949 -12558917.47147  21907829.600    21907839.243    21907831.209
  -5397898.99749  -4197342.73645  24228403.588    24228416.601    24228405.071
   6026808.19249   4701322.42547  21667731.543    21667741.281    21667732.863
  10911753.98249   8532975.32446  24800907.686    24800920.271    24800909.521
 -20357856.46649 -15848658.48447  21379010.537    21379020.635    21379012.579
  -2857129.89549  -2211492.56745  24344210.593    24344224.027    24344211.708
 98  5 13 17 20  0.0000000  0  8G24G 2G 9G 5G 7G26G 4G 8
 -12649256.68349  -9841781.93846  22962175.968    22962188.488    22962178.103
   7775245.18749   6040940.35247  22770885.690    22770896.694    22770887.157
 -16487634.64349 -12594469.10647  21899147.395    21899157.126    21899149.096
  -5477885.27449  -4259669.62045  24213182.707    24213195.590    24213184.157
   6088520.35949   4749409.79947  21679474.920    21679484.760    21679476.260
  10990690.78549   8594484.47946  24815928.952    24815941.422    24815930.707
 -20410484.28449 -15889667.16047  21368995.754    21369005.829    21368997.789
  -2958775.61149  -2290696.92045  24324868.312    24324881.401    24324869.101
 98  5 13 17 20 30.0000000  0  8G24G 2G 9G 5G 7G26G 4G 8
 -12746968.60349  -9917921.05846  22943582.164    22943594.478    22943584.113
   7834485.94149   6087101.92147  22782158.848    22782169.882    22782160.356
 -16532786.22749 -12629652.13847  21890555.359    21890565.046    21890557.021
  -5557871.48949  -4321996.44046  24197961.733    24197974.617    24197963.226
   6150388.91249   4797619.03047  21691248.176    21691258.045    21691249.519
  11069661.59149   8656020.13346  24830956.377    24830969.128    24830958.337
 -20462605.45249 -15930281.04447  21359077.363    21359087.456    21359079.420
  -3060219.86149  -2369744.29045  24305564.229    24305577.136    24305564.844
 98  5 13 17 21  0.0000000  0  8G24G 2G 9G 5G 7G26G 4G 8
 -12844429.97549  -9993864.95246  22925035.765    22925048.133    22925037.816
   7893992.59749   6133470.69247  22793482.699    22793493.688    22793484.170
 -16577452.42949 -12664456.95247  21882055.676    21882065.381    21882057.314
  -5637856.70149  -4384322.47045  24182741.020    24182753.837    24182742.516
   6212428.83549   4845961.79947  21703054.121    21703063.926    21703055.366
  11148672.46249   8717586.99846  24845991.596    24846004.394    24845993.627
 -20514227.58149 -15970506.07047  21349254.147    21349264.089    21349256.025
  -3161426.32449  -2448606.35545  24286305.336    24286318.089    24286305.883
 98  5 13 17 21 30.0000000  0  8G24G 2G 9G 5G 7G26G 4G 8
 -12941657.50549 -10069626.62446  22906534.166    22906546.328    22906536.001
   7953759.59049   6180042.31847  22804856.001    22804866.993    22804857.455
 -16621629.25049 -12698880.42947  21873649.145    21873658.850    21873650.720
  -5717846.00349  -4446651.70445  24167519.497    24167532.290    24167520.965
   6274641.18949   4894438.92747  21714892.792    21714902.575    21714893.999
  11227738.13749   8779196.56646  24861037.313    24861050.079    24861039.338
 -20565370.98049 -16010358.05747  21339521.882    21339531.795    21339523.750
  -3262385.29849  -2527275.56346  24267093.428    24267106.284    24267093.962
 98  5 13 17 22  0.0000000  0  8G24G 2G 9G 5G 7G26G 4G 8
 -13038659.23749 -10145212.35046  22888075.206    22888087.530    22888077.100
   8013775.26349   6226807.72947  22816276.597    22816287.608    22816278.104
 -16665317.61949 -12732923.29547  21865335.550    21865345.240    21865337.113
  -5797835.67649  -4508981.25245  24152297.656    24152310.590    24152299.466
   6337008.91049   4943037.12947  21726761.040    21726770.760    21726762.226
  11306870.41849   8840858.06046  24876095.776    24876108.461    24876097.733
 -20616033.72949 -16049835.51647  21329880.992    21329890.965    21329882.903
  -3363096.93349  -2605752.04845  24247928.114    24247941.413    24247929.076
 98  5 13 17 22 30.0010000  0  8G24G 2G 9G 5G 7G26G 4G 8
 -13135470.72549 -10220649.83146  22869652.442    22869664.912    22869654.457
   8074047.32149   6273772.90247  22827746.078    22827757.034    22827747.560
 -16708523.31449 -12766590.05247  21857113.643    21857123.464    21857115.265
  -5877818.68049  -4571305.60345  24137077.494    24137090.234    24137079.084
   6399530.49849   4991755.22047  21738658.510    21738668.257    21738659.699
  11386076.18849   8902576.79746  24891168.150    24891180.839    24891170.061
 -20666205.47149 -16088930.37047  21320333.584    21320343.605    21320335.556
  -3463565.30149  -2684038.96345  24228809.662    24228822.782    24228810.540
 98  5 13 17 23  0.0010000  0  8G24G 2G 9G 5G 7G26G 4G 8
 -13232108.84649 -10295952.23846  22851263.000    22851275.303    22851264.792
   8134578.37249   6320939.89647  22839264.804    22839275.793    22839266.315
 -16751251.82349 -12799884.97847  21848982.638    21848992.521    21848984.251
  -5957781.28449  -4633614.04145  24121861.150    24121873.770    24121862.549
   6462207.52449   5040594.42647  21750585.514    21750595.329    21750586.756
  11465343.70549   8964343.66546  24906252.326    24906264.942    24906254.192
 -20715866.12749 -16127626.97547  21310883.452    21310893.502    21310885.428
  -3563788.26349  -2762134.65246  24209738.070    24209750.867    24209738.666
 98  5 13 17 23 30.0010000  0  8G24G 2G 9G 5G 7G26G 4G 8
 -13328566.57849 -10371114.06946  22832907.557    22832919.953    22832909.471
   8195376.53649   6368315.02747  22850834.440    22850845.338    22850835.885
 -16793494.67649 -12832801.46847  21840944.075    21840953.998    21840945.695
  -6037714.89149  -4695899.86946  24106650.306    24106662.851    24106651.603
   6525037.46049   5089552.78147  21762541.701    21762551.470    21762542.924
  11544665.58249   9026152.89046  24921346.656    24921359.411    24921348.697
 -20764992.89449 -16165907.55947  21301534.861    21301544.986    21301536.917
  -3663783.62849  -2840052.99146  24190709.430    24190722.314    24190710.128
 98  5 13 17 24  0.0010000  0  8G24G 2G 9G 5G 7G26G 4G 8
 -13424842.95849 -10446134.57646  22814586.545    22814599.194    22814588.656
   8256430.07549   6415889.14547  22862452.554    22862463.454    22862454.009
 -16835258.48649 -12865344.68147  21832996.670    21833006.603    21832998.261
  -6117636.97849  -4758176.72846  24091441.547    24091454.151    24091442.924
   6588004.74749   5138618.16647  21774523.948    21774533.792    21774525.240
  11624009.13749   9087978.99646  24936445.330    24936457.954    24936447.323
 -20813574.25849 -16203763.16047  21292290.204    21292300.242    21292292.197
  -3763561.29549  -2917801.67146  24171722.007    24171735.105    24171722.940
 98  5 13 17 24 30.0010000  0  8G24G 2G 9G 5G 7G26G 4G 8
 -13520931.32349 -10521008.58446  22796301.450    22796314.204    22796303.607
   8317743.71749   6463665.94347  22874120.201    22874131.098    22874121.688
 -16876525.56949 -12897500.82647  21825143.721    21825153.732    21825145.329
  -6197549.89349  -4820446.42946  24076234.401    24076247.169    24076235.889
   6651126.56949   5187803.96347  21786535.669    21786545.551    21786536.982
  11703368.33849   9149817.31045  24951546.758    24951559.528    24951548.935
 -20861601.02449 -16241186.60147  21283151.020    21283161.072    21283153.015
  -3863126.40849  -2995384.75746  24152775.402    24152788.277    24152776.193
 98  5 13 17 25  0.0010000  0  8G24G 2G 9G 5G 7G26G 4G 8
 -13616790.15049 -10595703.72546  22778060.196    22778072.911    22778062.261
   8379311.77949   6511640.99947  22885836.320    22885847.172    22885837.750
 -16917272.24349 -12929251.46147  21817389.862    21817399.891    21817391.447
  -6277448.27549  -4882704.82545  24061030.408    24061042.950    24061031.753
   6714416.20949   5237120.53147  21798579.387    21798589.177    21798580.634
  11782747.73749   9211671.33946  24966652.097    24966664.899    24966654.294
 -20909069.75249 -16278175.20747  21274118.093    21274128.052    21274120.016
  -3962483.34349  -3072805.60546  24133868.415    24133881.132    24133869.175
 98  5 13 17 25 30.0010000  0  8G24G 2G 9G 5G 7G26G 4G 8
 -13712389.27249 -10670196.49546  22759868.141    22759880.994    22759870.347
   8441128.25249   6559809.60547  22897599.617    22897610.522    22897601.071
 -16957488.38149 -12960588.69447  21809736.862    21809746.973    21809738.507
  -6357344.37649  -4944961.43245  24045826.832    24045839.116    24045827.992
   6777881.22649   5286573.74747  21810656.496    21810666.190    21810657.704
  11862149.32849   9273542.66446  24981761.573    24981774.553    24981763.959
 -20955982.03549 -16314730.22547  21265190.924    21265200.898    21265192.884
  -4061620.76249  -3150055.40346  24115003.316    24115015.785    24115003.837
 98  5 13 17 26  0.0010000  0  8G24G 2G 9G 5G 7G26G 4G 8
 -13807732.83849 -10744490.13946  22741724.862    22741737.714    22741727.095
   8503192.52449   6608171.29646  22909409.997    22909421.014    22909411.512
 -16997188.67949 -12991523.97247  21802182.157    21802192.295    21802183.780
  -6437249.90249  -5007225.39145  24030621.260    24030633.527    24030622.413
   6841529.15949   5336169.49547  21822768.379    21822778.067    21822769.581
  11941579.85249   9335436.52946  24996876.977    24996889.693    24996879.138
 -21002345.72649 -16350857.76647  21256368.206    21256378.147    21256370.130
  -4160528.61649  -3227126.34346  24096181.582    24096194.097    24096182.237
 98  5 13 17 26 30.0010000  0  8G24G 2G 9G 5G 7G26G 4G 8
 -13902822.24149 -10818585.71946  22723630.381    22723642.823    22723632.154
   8565515.32749   6656734.44647  22921269.666    22921280.717    22921271.169
 -17036391.60849 -13022071.68747  21794722.086    21794732.204    21794723.672
  -6517157.78349  -5069491.19146  24015415.198    24015427.399    24015416.380
   6905364.36049   5385911.17047  21834915.918    21834925.572    21834917.063
  12021056.10349   9397366.03346  25012001.073    25012013.557    25012003.007
 -21048163.38949 -16386559.82847  21247649.298    21247659.338    21247651.284
  -4259202.41949  -3304014.90346  24077404.398    24077416.969    24077405.139
 98  5 13 17 27  0.0010000  0  8G24G 2G 9G 5G 7G26G 4G 8
 -13997646.06149 -10892474.35846  22705586.466    22705598.381    22705587.749
   8628097.07949   6705499.38047  22933178.489    22933189.710    22933180.144
 -17075115.35649 -13052246.01947  21787353.121    21787363.238    21787354.722
  -6597074.23849  -5131763.66046  24000207.336    24000219.684    24000208.720
   6969379.16649   5435792.79347  21847097.524    21847107.186    21847098.701
  12100572.90149   9459327.12646  25027132.594    25027145.206    25027134.615
 -21093431.13649 -16421833.38647  21239035.108    21239045.184    21239037.123
  -4357635.12149  -3380715.59246  24058673.010    24058685.784    24058673.822
 98  5 13 17 27 30.0010000  0  8G24G 2G 9G 5G 7G26G 4G 8
 -14092210.59049 -10966160.95046  22687591.280    22687603.268    22687592.690
   8690951.03849   6754476.41847  22945139.612    22945150.467    22945140.966
 -17113370.17449 -13082054.94647  21780073.476    21780083.574    21780075.029
  -6676997.45949  -5194041.40545  23984998.366    23985010.695    23984999.755
   7033566.97849   5485809.23147  21859312.165    21859321.746    21859313.307
  12180124.70149   9521315.50646  25042270.944    25042283.575    25042272.908
 -21138140.96849 -16456672.20347  21230527.119    21230537.201    21230529.152
  -4455811.14049  -3457216.28046  24039990.670    24040003.420    24039991.416
 98  5 13 17 28  0.0010000  0  8G24G 2G 9G 5G 7G26G 4G 8
 -14186530.57249 -11039656.98946  22669642.664    22669654.705    22669644.155
   8754071.54549   6803661.15646  22957150.962    22957162.013    22957152.432
 -17151155.59949 -13111498.11347  21772883.041    21772893.234    21772884.672
  -6756915.21949  -5256314.91745  23969790.474    23969802.798    23969791.717
   7097904.22949   5535942.10947  21871555.095    21871564.733    21871556.268
  12259696.17249   9583319.20346  25057413.112    25057425.631    25057414.898
 -21182303.87749 -16491084.84847  21222123.188    21222133.269    21222125.203
  -4553739.11049  -3533523.68546  24021355.552    24021368.188    24021356.283
 98  5 13 17 28 30.0010000  0  8G24G 2G 9G 5G 7G26G 4G 8
 -14280595.91749 -11112954.59846  22651742.279    22651754.585    22651744.023
   8817439.58149   6853038.76747  22969209.761    22969220.602    22969211.072
 -17188449.59049 -13140558.34947  21765786.338    21765796.350    21765787.840
  -6836822.56649  -5318580.31346  23954584.438    23954596.837    23954585.835
   7162374.98449   5586179.01547  21883823.552    21883833.128    21883824.654
  12339266.64749   9645322.11446  25072554.906    25072567.482    25072556.669
 -21225931.54149 -16525080.41847  21213821.102    21213831.202    21213823.141
  -4651426.94049  -3609643.96746  24002766.042    24002778.626    24002766.859
 98  5 13 17 29  0.0010000  0  8G24G 2G 9G 5G 7G26G 4G 8
 -14374387.91549 -11186039.21746  22633894.026    22633906.495    22633895.938
   8881053.57549   6902608.04346  22981315.088    22981326.063    22981316.445
 -17225209.47949 -13169202.39847  21758791.031    21758801.193    21758792.656
  -6916702.37849  -5380824.25246  23939383.892    23939396.215    23939385.175
   7226975.74649   5636517.22847  21896116.527    21896126.251    21896117.727
  12418822.15649   9707313.35746  25087693.821    25087706.414    25087695.532
 -21269026.36949 -16558660.79347  21205620.499    21205630.539    21205622.483
  -4748859.82549  -3685565.59846  23984225.206    23984237.625    23984225.997
 98  5 13 17 29 30.0010000  0  8G24G 2G 9G 5G 7G26G 4G 8
 -14467912.95049 -11258915.80546  22616096.720    22616109.163    22616098.623
   8944917.99749   6952372.44947  22993468.183    22993479.183    22993469.523
 -17261416.99649 -13197416.02947  21751900.986    21751911.077    21751902.566
  -6996538.61249  -5443034.21046  23924191.364    23924203.881    23924192.717
   7291701.62149   5686952.92547  21908433.321    21908443.249    21908434.613
  12498364.03749   9769293.97946  25102830.215    25102842.794    25102831.843
 -21311588.32049 -16591825.93447  21197521.242    21197531.254    21197523.220
  -4846030.22849  -3761282.68846  23965734.056    23965746.541    23965734.991
 98  5 13 17 30  0.0010000  0  8G24G 2G 9G 5G 7G26G 4G 8
 -14561171.92249 -11331585.08046  22598350.128    22598362.456    22598351.970
   9009026.28749   7002326.88346  23005667.575    23005678.638    23005668.973
 -17297063.99249 -13225192.89347  21745117.687    21745127.624    21745119.208
  -7076326.56349  -5505206.55846  23909008.219    23909020.709    23909009.478
   7356548.23049   5737482.70847  21920773.245    21920783.208    21920774.554
  12577890.07049   9831262.24546  25117963.337    25117976.166    25117965.164
 -21353611.26649 -16624571.07247  21189524.560    21189534.552    21189526.518
  -4942940.35349  -3836796.96846  23947292.602    23947305.023    23947293.440
 98  5 13 17 30 30.0010000  0  8G24G 2G 9G 5G 7G26G 4G 8
 -14654156.27249 -11404040.36146  22580655.502    22580668.013    22580657.622
   9073384.16049   7052475.79446  23017914.590    23017925.566    23017915.864
 -17332154.66249 -13252536.25747  21738440.245    21738450.108    21738441.718
  -7156074.68249  -5567347.88046  23893832.496    23893845.090    23893833.952
   7421525.66749   5788114.42947  21933138.154    21933148.017    21933139.390
  12657405.22949   9893222.03846  25133094.942    25133107.428    25133096.466
 -21395081.74149 -16656885.71047  21181632.949    21181642.975    21181634.981
  -5039584.30349  -3912103.83146  23928901.979    23928914.132    23928902.634
 98  5 13 17 31  0.0010000  0  8G24G 2G 9G 5G 7G26G 4G 8
 -14746872.39949 -11476286.63246  22563012.671    22563024.615    22563014.317
   9138001.59749   7102826.96346  23030210.798    23030221.908    23030212.207
 -17366703.14049 -13279457.14047  21731865.797    21731875.707    21731867.351
  -7235787.77649  -5629461.91346  23878663.548    23878676.181    23878665.007
   7486645.39549   5838857.02847  21945530.044    21945539.891    21945531.284
  12736916.20349   9955178.56246  25148225.400    25148237.908    25148226.945
 -21435982.10849 -16688756.10847  21173849.849    21173859.894    21173851.892
  -5135955.04149  -3987197.81746  23910563.125    23910575.276    23910563.814
 98  5 13 17 31 30.0010000  0  8G24G 2G 9G 5G 7G26G 4G 8
 -14839331.14549 -11548332.34246  22545418.307    22545430.274    22545419.952
   9202875.82249   7153378.22546  23042556.175    23042567.127    23042557.419
 -17400738.37649 -13305978.08947  21725389.159    21725399.010    21725390.657
  -7315483.09549  -5691562.07446  23863497.880    23863510.588    23863499.388
   7551908.92449   5889711.68347  21957949.431    21957959.206    21957950.572
  12816421.50849  10017130.66445  25163354.780    25163367.284    25163356.357
 -21476296.31949 -16720169.76047  21166178.230    21166188.346    21166180.391
  -5232056.54949  -4062082.01046  23892275.636    23892287.569    23892276.243
 98  5 13 17 32  0.0010000  0  8G24G 2G 9G 5G 7G26G 4G 8
 -14931520.42249 -11620168.07646  22527875.074    22527887.148    22527876.928
   9268011.74549   7204133.41846  23054951.250    23054962.156    23054952.474
 -17434260.29449 -13332099.05547  21719010.091    21719019.964    21719011.636
  -7395150.03449  -5753640.13846  23848337.478    23848350.318    23848339.224
   7617331.95649   5940690.62447  21970399.115    21970408.852    21970400.211
  12895932.08049  10079086.85445  25178485.156    25178497.674    25178486.705
 -21516012.59949 -16751117.48847  21158620.662    21158630.584    21158622.633
  -5327875.56849  -4136746.08746  23874041.618    23874053.631    23874042.384
 98  5 13 17 32 30.0010000  0  9G24G 2G16G 9G 5G 7G26G 4G 8
 -15023440.89949 -11691794.35346  22510382.966    22510395.168    22510384.982
   9333402.77849   7255087.38146  23067394.788    23067405.781    23067396.004
  -1759789.35358  -1363863.47555  25445191.274    25445204.036    25445191.557
 -17467279.57349 -13357828.35747  21712726.760    21712736.590    21712728.298
  -7474794.78449  -5815700.91346  23833181.676    23833194.249    23833183.361
   7682904.82049   5991786.31647  21982877.138    21982887.026    21982878.327
  12975449.27749  10141048.21145  25193616.848    25193629.244    25193618.352
 -21555140.92649 -16781607.07847  21151174.712    21151184.712    21151176.738
  -5423416.39949  -4211193.36546  23855860.631    23855872.674    23855861.479
 98  5 13 17 33  0.0010000  0  9G24G 2G16G 9G 5G 7G26G 4G 8
 -15115094.23649 -11763212.47846  22492942.034    22492954.024    22492943.876
   9399055.87549   7306245.55146  23079888.276    23079899.179    23079889.432
  -1807809.54148  -1401281.79045  25436052.648    25436066.489    25436053.607
 -17499802.24149 -13383170.68547  21706537.866    21706547.704    21706539.423
  -7554408.73949  -5877737.69646  23818031.666    23818044.064    23818033.235
   7748616.01449   6042989.80147  21995381.546    21995391.507    21995382.773
  13054978.80549  10203019.16445  25208751.021    25208763.355    25208752.400
 -21593686.79849 -16811642.80647  21143839.727    21143849.716    21143841.702
  -5518679.61649  -4285424.32346  23837732.597    23837744.525    23837733.442
 98  5 13 17 33 30.0010000  0  9G24G 2G16G 9G 5G 7G26G 4G 8
 -15206481.26549 -11834423.08246  22475551.590    22475563.597    22475553.444
   9464975.87949   7357611.70146  23092432.566    23092443.438    23092433.658
  -1855575.12548  -1438501.70945  25426963.302    25426976.865    25426963.842
 -17531840.17649 -13408135.30747  21700441.218    21700451.043    21700442.840
  -7633996.66649  -5939754.17546  23802886.412    23802898.833    23802888.047
   7814442.41849   6094283.05847  22007907.983    22007917.895    22007909.142
  13134515.08449  10264995.36845  25223886.014    25223898.720    25223887.694
 -21631671.44149 -16841241.21347  21136611.457    21136621.462    21136613.417
  -5613674.52849  -4359446.20746  23819655.656    23819667.436    23819656.442
 98  5 13 17 34  0.0010000  0  9G24G 2G16G 9G 5G 7G26G 4G 8
 -15297586.79349 -11905414.34046  22458214.672    22458226.692    22458216.572
   9531176.78949   7409196.73546  23105030.443    23105041.134    23105031.311
  -1903073.14548  -1475513.15645  25417924.920    25417938.303    25417925.351
 -17563374.76849 -13432707.70547  21694440.455    21694450.240    21694442.048
  -7713550.31449  -6001743.95346  23787747.999    23787760.122    23787749.426
   7880383.16949   6145665.41847  22020456.043    22020466.046    22020457.258
  13214071.92649  10326987.58045  25239024.967    25239037.993    25239026.833
 -21669099.67849 -16870406.06247  21129489.054    21129499.086    21129491.031
  -5708393.53949  -4433253.10446  23801631.112    23801642.926    23801631.935
 98  5 13 17 34 30.0010000  0  9G24G 2G16G 9G 5G 7G26G 4G 8
 -15388412.69049 -11976187.71246  22440931.147    22440943.078    22440932.953
   9597655.13449   7460997.93946  23117680.711    23117691.617    23117681.712
  -1950298.87248  -1512312.42145  25408937.903    25408951.747    25408938.437
 -17594405.32449 -13456887.35547  21688535.582    21688545.281    21688537.172
  -7793094.86249  -6063726.63546  23772611.119    23772623.130    23772612.502
   7946431.96649   6197131.96947  22033024.897    22033034.798    22033026.005
  13293637.31749  10388986.45845  25254165.747    25254178.847    25254167.676
 -21705985.69349 -16899148.40347  21122469.910    21122479.911    21122471.848
  -5802832.82749  -4506842.03746  23783659.982    23783671.664    23783660.662
 98  5 13 17 35  0.0010000  0  9G24G 2G16G 9G 5G 7G26G 4G 8
 -15478962.42549 -12046745.87747  22423699.939    22423712.020    22423701.870
   9664410.85649   7513015.29746  23130383.857    23130394.912    23130385.029
  -1997247.49849  -1548895.76645  25400003.759    25400017.319    25400004.562
 -17624922.21149 -13480666.73847  21682728.502    21682738.066    21682730.019
  -7872641.01149  -6125710.54346  23757474.012    23757485.899    23757475.283
   8012590.69949   6248684.18747  22045614.487    22045624.485    22045615.672
  13373186.86949  10450972.97545  25269303.809    25269316.837    25269305.541
 -21742328.43449 -16927467.41047  21115554.157    21115564.108    21115556.026
  -5896984.21749  -4580206.62846  23765743.510    23765755.126    23765744.101
 98  5 13 17 35 30.0010000  0  9G24G 2G16G 9G 5G 7G26G 4G 8
 -15569230.20449 -12117084.35147  22406522.458    22406534.613    22406524.400
   9731418.74149   7565229.15346  23143134.937    23143146.189    23143136.307
  -2043897.18149  -1585246.16345  25391127.103    25391140.178    25391127.450
 -17654903.85649 -13504029.05547  21677023.132    21677032.792    21677024.706
  -7952187.89549  -6187695.05746  23742336.889    23742348.560    23742338.041
   8078868.83949   6300329.44947  22058226.786    22058236.834    22058228.007
  13452706.72249  10512936.34245  25284435.816    25284449.121    25284437.779
 -21778114.19549 -16955352.41147  21108744.290    21108754.331    21108746.204
  -5990832.00749  -4653334.67746  23747884.705    23747896.351    23747885.362
 98  5 13 17 36  0.0010000  0  9G24G 2G16G 9G 5G 7G26G 4G 8
 -15659210.89049 -12187199.11847  22389399.413    22389411.798    22389401.548
   9798661.14549   7617625.74146  23155930.817    23155942.133    23155932.196
  -2090255.27949  -1621369.38545  25382305.473    25382318.287    25382305.927
 -17684327.62549 -13526956.66147  21671423.935    21671433.668    21671425.534
  -8031726.78249  -6249673.33946  23727201.030    23727212.821    23727202.255
   8145279.44949   6352077.93747  22070864.321    22070874.387    22070865.578
  13532186.14949  10574868.19945  25299560.299    25299573.770    25299562.292
 -21813330.14049 -16982793.39547  21102043.058    21102052.965    21102044.816
  -6084378.20949  -4726227.70546  23730083.268    23730095.069    23730083.994
 98  5 13 17 36 30.0010000  0  9G24G 2G16G 9G 5G 7G26G 4G 8
 -15748889.78049 -12257078.72147  22372333.989    22372346.419    22372336.142
   9866141.70749   7670207.91546  23168771.994    23168783.349    23168773.458
  -2136303.66449  -1657251.23845  25373542.492    25373555.870    25373543.220
 -17713173.86149 -13549434.24147  21665934.695    21665944.371    21665936.248
  -8111231.44649  -6311624.93346  23712071.709    23712083.593    23712072.959
   8211838.90049   6403942.39847  22083530.369    22083540.288    22083531.461
  13611609.56249  10636756.40745  25314674.287    25314687.801    25314676.154
 -21847953.40649 -17009772.55447  21095454.383    21095464.392    21095456.236
  -6177614.12549  -4798878.96846  23712340.823    23712352.842    23712341.746
 98  5 13 17 37  0.0010000  0  9G24G 2G16G 9G 5G 7G26G 4G 8
 -15838266.00549 -12326722.47747  22355326.404    22355338.685    22355328.355
   9933849.36149   7722967.03646  23181656.563    23181667.760    23181657.898
  -2182040.27249  -1692890.16545  25364839.082    25364852.408    25364839.705
 -17741451.50849 -13571468.76347  21660553.611    21660563.297    21660555.165
  -8190686.30049  -6373537.71046  23696951.794    23696963.872    23696953.113
   8278538.09049   6455915.74747  22096222.781    22096232.738    22096223.940
  13690958.64749  10698586.69245  25329774.386    25329787.578    25329776.045
 -21881970.31149 -17036279.22647  21088981.119    21088991.195    21088983.078
  -6270558.67149  -4871303.18146  23694653.978    23694665.989    23694654.898
 98  5 13 17 37 30.0010000  0  9G24G 2G16G 9G 5G 7G26G 4G 8
 -15927336.68449 -12396128.14847  22338376.809    22338389.062    22338378.685
  10001792.02249   7775909.27846  23194585.566    23194596.882    23194587.028
  -2227456.83049  -1728279.71145  25356196.855    25356209.969    25356197.378
 -17769168.50949 -13593066.42547  21655279.259    21655288.922    21655280.774
  -8270075.31349  -6435399.19946  23681844.451    23681856.557    23681845.772
   8345386.70349   6508005.53247  22108943.874    22108953.650    22108944.872
  13770239.83549  10760364.06645  25344861.155    25344874.433    25344862.954
 -21915380.99349 -17062313.51247  21082623.250    21082633.364    21082625.222
  -6363219.01049  -4943505.94346  23677021.094    23677033.197    23677022.176
 98  5 13 17 38  0.0010000  0  9G24G 2G16G 9G 5G 7G26G 4G 8
 -16016109.54349 -12465301.75547  22321483.902    22321496.127    22321485.765
  10069997.31549   7829056.17446  23207564.557    23207575.982    23207566.127
  -2272570.24349  -1763433.02645  25347611.655    25347625.225    25347612.578
 -17796344.87949 -13614242.81547  21650107.651    21650117.441    21650109.237
  -8349405.80249  -6497215.08146  23666748.283    23666760.470    23666749.658
   8412386.76849   6560213.33047  22121693.581    22121703.368    22121694.610
  13849449.67249  10822085.85745  25359934.112    25359947.721    25359936.270
 -21948206.58349 -17087891.88347  21076376.799    21076386.864    21076378.742
  -6455594.15049  -5015486.45546  23659442.711    23659454.687    23659443.597
 98  5 13 17 38 30.0010000  0  9G24G 2G16G 9G 5G 7G26G 4G 8
 -16104587.90249 -12534245.88047  22304647.079    22304659.217    22304648.890
  10138468.06149   7882409.91946  23220594.232    23220605.664    23220595.769
  -2317376.42949  -1798346.92045  25339084.990    25339098.829    25339086.137
 -17822998.60149 -13635011.93947  21645035.620    21645045.425    21645037.198
  -8428687.14949  -6558992.66546  23651661.408    23651673.696    23651662.861
   8479524.75549   6612528.60747  22134469.476    22134479.321    22134470.603
  13928588.05749  10883751.96345  25374994.259    25375007.431    25374996.022
 -21980454.40649 -17113020.04647  21070240.209    21070250.314    21070242.208
  -6547659.31249  -5087225.42746  23641923.383    23641935.165    23641924.028
 98  5 13 17 39  0.0010000  0  9G24G 2G16G 9G 5G 7G26G 4G 8
 -16192754.64749 -12602947.19147  22287869.455    22287881.587    22287871.294
  10207229.26149   7935989.98946  23233679.100    23233690.591    23233680.636
  -2361868.98149  -1833016.43445  25330618.398    25330632.285    25330619.320
 -17849122.17349 -13655367.96047  21640064.504    21640074.276    21640066.044
  -8507916.44749  -6620729.70346  23636584.567    23636596.779    23636585.990
   8546809.26549   6664958.05047  22147273.281    22147283.214    22147274.427
  14007700.05549  10945397.49245  25390048.732    25390062.163    25390050.779
 -22012123.30049 -17137697.09047  21064213.853    21064223.922    21064215.851
  -6639389.14549  -5158703.10646  23624467.703    23624479.538    23624468.371
 98  5 13 17 39 30.0010000  0  9G24G 2G16G 9G 5G 7G26G 4G 8
 -16280614.70549 -12671409.51947  22271150.100    22271162.371    22271152.087
  10276288.85949   7989802.58246  23246820.938    23246832.275    23246822.305
  -2406054.86449  -1867446.98645  25322209.883    25322223.808    25322210.918
 -17874718.06849 -13675312.80947  21635193.722    21635203.511    21635195.296
  -8587109.28049  -6682438.33646  23621514.566    23621526.830    23621516.023
   8614218.67549   6717484.81647  22160100.628    22160110.802    22160101.958
  14086792.82949  11007028.03645  25405099.669    25405113.120    25405101.778
 -22043238.59449 -17161942.76247  21058292.735    21058302.827    21058294.772
  -6730776.86249  -5229914.23246  23607077.175    23607088.936    23607077.805
 98  5 13 17 40  0.0010000  0  9G24G 2G16G 9G 5G 7G26G 4G 8
 -16368146.65749 -12739616.18747  22254493.467    22254505.564    22254495.304
  10345639.12049   8043841.64846  23260018.229    23260029.221    23260019.234
  -2449928.05549  -1901633.86045  25313861.155    25313874.958    25313862.003
 -17899772.75049 -13694835.93547  21630425.978    21630435.772    21630427.552
  -8666281.08249  -6744130.57046  23606448.640    23606460.854    23606450.065
   8681727.92949   6770089.38547  22172947.158    22172957.435    22172948.565
  14165874.48149  11068649.92945  25420148.336    25420161.970    25420150.661
 -22073786.61849 -17185746.40547  21052479.566    21052489.696    21052481.661
  -6821812.26349  -5300850.79746  23589753.507    23589765.407    23589754.314
 98  5 13 17 40 30.0010000  0  9G24G 2G16G 9G 5G 7G26G 4G 8
 -16455347.02649 -12807564.46947  22237899.794    22237911.847    22237901.593
  10415242.08149   8098077.64846  23273263.208    23273274.314    23273264.215
  -2493484.49249  -1935573.91945  25305572.557    25305586.358    25305573.568
 -17924298.75649 -13713947.09947  21625758.875    21625768.618    21625760.386
  -8745443.22749  -6805815.27546  23591384.656    23591396.716    23591386.049
   8749311.45549   6822751.83447  22185807.921    22185818.187    22185809.311
  14244936.01349  11130256.14645  25435193.749    25435207.023    25435195.664
 -22103759.60149 -17209101.95647  21046775.905    21046786.034    21046777.976
  -6912517.78449  -5371530.32446  23572492.511    23572504.692    23572493.515
 98  5 13 17 41  0.0010000  0  9G24G 2G16G 9G 5G 7G26G 4G 8
 -16542213.28349 -12875252.41247  22221369.612    22221381.719    22221371.469
  10485099.25849   8152511.73246  23286556.518    23286567.828    23286557.636
  -2536718.30249  -1969262.57645  25297345.341    25297359.268    25297346.569
 -17948292.00549 -13732643.13647  21621193.097    21621202.853    21621194.603
  -8824591.72249  -6867489.35446  23576323.127    23576335.170    23576324.599
   8816982.86549   6875482.76247  22198685.357    22198695.688    22198686.779
  14323978.12149  11191847.21445  25450235.172    25450248.309    25450237.089
 -22133156.55349 -17232008.65947  21041181.806    21041191.983    21041183.881
  -7002912.97449  -5441968.02146  23555290.693    23555303.050    23555291.770
 98  5 13 17 41 30.0010000  0  9G24G 2G16G 9G 5G 7G26G 4G 8
 -16628746.78749 -12942681.06447  22204902.977    22204914.868    22204904.648
  10555195.71849   8207132.26446  23299895.530    23299906.844    23299896.630
  -2579613.24149  -2002687.19345  25289182.751    25289196.717    25289183.742
 -17971742.84449 -13750916.51147  21616730.412    21616740.321    21616732.004
  -8903717.45449  -6929145.68546  23561265.924    23561277.919    23561267.390
   8884764.51949   6928299.59147  22211583.877    22211594.150    22211585.192
  14402978.72449  11253405.95645  25465268.929    25465281.825    25465270.529
 -22161954.71949 -17254448.77347  21035701.734    21035711.866    21035703.761
  -7092991.80949  -5512159.20746  23538149.233    23538161.598    23538150.216
 98  5 13 17 42  0.0010000  0  9G24G 2G16G 9G 5G 7G26G 4G 8
 -16714957.48849 -13009858.18347  22188497.569    22188509.425    22188499.250
  10625519.13749   8261929.64646  23313277.766    23313289.039    23313278.795
  -2622172.25749  -2035850.04045  25281083.964    25281098.036    25281085.007
 -17994660.25049 -13768774.23347  21612369.328    21612379.327    21612370.950
  -8982806.55449  -6990773.48346  23546215.819    23546227.701    23546217.206
   8952683.01749   6981223.05247  22224508.247    22224518.630    22224509.607
  14481925.51749  11314922.78645  25480292.254    25480305.153    25480293.589
 -22190140.18449 -17276411.46247  21030338.172    21030348.365    21030340.233
  -7182751.37749  -5582101.63646  23521068.399    23521080.832    23521069.394
 98  5 13 17 42 30.0010000  0  9G24G 2G16G 9G 5G 7G26G 4G 8
 -16800856.24849 -13076792.23247  22172151.516    22172163.394    22172153.199
  10696075.42049   8316908.48146  23326704.234    23326715.588    23326705.270
  -2664407.25649  -2068760.40745  25273047.062    25273060.941    25273047.972
 -18017048.48049 -13786219.60447  21608108.855    21608118.993    21608110.571
  -9061838.13949  -7052356.45946  23531176.547    23531188.412    23531177.944
   9020764.72849   7034273.69247  22237463.847    22237474.220    22237465.144
  14560804.93649  11376387.09945  25495302.591    25495315.438    25495303.930
 -22217718.17649 -17297900.79547  21025090.132    21025100.409    21025092.329
  -7272195.71449  -5651798.44446  23504048.154    23504060.207    23504048.824
 98  5 13 17 43  0.0010000  0  9G24G 2G16G 9G 5G 7G26G 4G 8
 -16886455.78249 -13143493.12347  22155862.177    22155874.282    22155864.130
  10766886.74049   8372086.05046  23340179.295    23340190.639    23340180.298
  -2706330.36749  -2101427.74645  25265069.210    25265083.188    25265070.304
 -18038885.05149 -13803235.11047  21603953.568    21603963.594    21603955.203
  -9140806.70749  -7113890.33346  23516149.360    23516161.121    23516150.656
   9088997.73049   7087442.22347  22250448.356    22250458.561    22250449.522
  14639600.79149  11437786.30045  25510296.938    25510309.855    25510298.390
 -22244701.65649 -17318926.87547  21019955.444    21019965.589    21019957.558
  -7361323.80949  -5721248.80646  23487087.279    23487099.625    23487088.276
 98  5 13 17 43 30.0010000  0  9G24G 2G16G 9G 5G 7G26G 4G 8
 -16971747.48749 -13209954.15047  22139631.643    22139643.761    22139633.598
  10837955.38649   8427464.12246  23353703.101    23353714.627    23353704.286
  -2747940.69049  -2133851.34545  25257151.045    25257165.109    25257152.228
 -18060170.41149 -13819821.10347  21599903.088    21599913.127    21599904.711
  -9219705.80749  -7175370.08946  23501135.043    23501146.995    23501136.569
   9157353.07549   7140706.08747  22263456.025    22263466.183    22263457.190
  14718294.69849  11499106.03845  25525272.224    25525284.945    25525273.441
 -22271090.06649 -17339489.26147  21014933.953    21014944.032    21014935.997
  -7450124.59549  -5790444.13946  23470189.088    23470201.260    23470190.056
 98  5 13 17 44  0.0010000  0  9G24G 2G16G 9G 5G 7G26G 4G 8
 -17056706.18249 -13276155.68047  22123464.439    22123476.568    22123466.424
  10909299.52149   8483056.86146  23367279.645    23367291.040    23367280.665
  -2789231.49049  -2166025.96945  25249294.222    25249307.700    25249294.919
 -18080902.12749 -13835975.68647  21595958.017    21595968.031    21595959.623
  -9298524.50249  -7236787.17946  23486136.357    23486148.191    23486137.788
   9225810.05749   7194049.14947  22276482.907    22276493.177    22276484.190
  14796901.82349  11560358.17745  25540230.700    25540243.488    25540232.104
 -22296887.98549 -17359591.52747  21010024.817    21010034.824    21010026.835
  -7538585.40949  -5859374.55646  23453355.499    23453367.570    23453356.395
 98  5 13 17 44 30.0010000  0  9G24G 2G16G 9G 5G 7G26G 4G 8
 -17141313.89849 -13342083.73647  22107364.176    22107376.147    22107366.099
  10980921.96349   8538866.46146  23380909.117    23380920.454    23380909.965
  -2830196.26949  -2197946.57045  25241498.545    25241512.347    25241499.667
 -18101063.10749 -13851685.53747  21592121.580    21592131.563    21592123.128
  -9377273.02549  -7298149.59846  23471151.049    23471162.790    23471152.432
   9294340.63249   7247449.55247  22289523.843    22289534.153    22289525.142
  14875427.28649  11621546.65345  25555173.353    25555186.453    25555175.212
 -22322106.87849 -17379242.60847  21005225.866    21005235.847    21005227.852
  -7626707.77849  -5928041.23246  23436586.333    23436598.361    23436587.265
 98  5 13 17 45  0.0010000  0  9G24G 2G16G 9G 5G 7G26G 4G 8
 -17225553.12449 -13407724.65747  22091334.010    22091345.856    22091335.890
  11052831.11549   8594899.47946  23394592.866    23394604.417    23394593.931
  -2870794.69049  -2229581.69045  25233772.673    25233786.714    25233774.104
 -18120636.85749 -13866937.80947  21588396.789    21588406.801    21588398.361
  -9455939.95549  -7359448.42846  23456180.994    23456192.866    23456182.492
   9362943.84449   7300906.56147  22302578.695    22302588.959    22302579.949
  14953889.60949  11682685.94145  25570104.384    25570117.401    25570106.067
 -22346738.32949 -17398435.94147  21000538.706    21000548.657    21000540.648
  -7714462.52949  -5996421.45146  23419887.141    23419899.062    23419888.012
 98  5 13 17 45 30.0010000  0  9G24G 2G16G 9G 5G 7G26G 4G 8
 -17309424.22749 -13473078.73047  22075373.802    22075385.635    22075375.764
  11124994.43549   8651130.53246  23408325.411    23408336.747    23408326.253
  -2911026.51549  -2260931.18545  25226117.071    25226130.809    25226118.228
 -18139661.45449 -13881762.16947  21584776.585    21584786.472    21584778.121
  -9534549.39349  -7420702.47446  23441222.103    23441233.901    23441223.591
   9431626.23649   7354425.27147  22315648.541    22315658.848    22315649.853
  15032286.66649  11743774.39145  25585022.947    25585036.105    25585024.756
 -22370790.15849 -17417177.62547  20995961.759    20995971.768    20995963.749
  -7801863.64849  -6064526.13146  23403254.901    23403266.948    23403255.935
 98  5 13 17 46  0.0010000  0  9G24G 2G16G 9G 5G 7G26G 4G 8
 -17392945.29249 -13538160.04047  22059480.572    22059492.083    22059482.246
  11197402.44649   8707552.25946  23422104.198    23422115.609    23422105.165
  -2950907.25049  -2292007.07845  25218527.735    25218541.771    25218529.160
 -18158143.84349 -13896164.03147  21581259.436    21581269.297    21581260.993
  -9613128.86149  -7481933.16246  23426268.918    23426280.696    23426270.399
   9500394.90349   7408011.20347  22328734.810    22328745.107    22328736.128
  15110625.87049  11804817.72645  25599930.274    25599943.626    25599932.278
 -22394265.12449 -17435469.81147  20991494.619    20991504.626    20991496.600
  -7888922.38849  -6132364.02446  23386688.099    23386700.033    23386689.113
 98  5 13 17 46 30.0010000  0  9G24G 2G16G 9G 5G 7G26G 4G 8
 -17476105.43249 -13602960.11247  22043655.731    22043667.217    22043657.378
  11270071.76649   8764177.61146  23435932.875    23435944.236    23435933.762
  -2990408.80149  -2322787.50645  25211010.630    25211024.800    25211012.095
 -18176062.88449 -13910126.91847  21577849.621    21577859.382    21577851.133
  -9691658.28249  -7543124.84746  23411324.876    23411336.944    23411326.639
   9569279.75849   7461687.67547  22341843.290    22341853.529    22341844.531
  15188912.79149  11865820.35645  25614827.721    25614841.316    25614830.053
 -22417139.13949 -17453293.72347  20987141.851    20987151.817    20987143.830
  -7975621.12549  -6199921.40346  23370189.786    23370201.619    23370190.806
 98  5 13 17 47  0.0010000  0  9G24G 2G16G 9G 5G 7G26G 4G 8
 -17558926.89449 -13667496.28447  22027895.274    22027906.820    22027896.958
  11342985.72349   8820993.58046  23449808.240    23449819.397    23449808.957
  -3029539.58449  -2353279.02445  25203564.245    25203578.577    25203565.528
 -18193442.83449 -13923669.74147  21574542.359    21574552.131    21574543.863
  -9770153.01849  -7604289.51446  23396387.902    23396399.799    23396389.475
   9638273.50649   7515448.99447  22354972.563    22354982.704    22354973.661
  15267114.24349  11926756.37545  25629709.211    25629722.884    25629711.472
 -22439406.38049 -17470644.83147  20982904.440    20982914.482    20982906.460
  -8061975.45849  -6267210.41246  23353756.943    23353768.762    23353758.008
 98  5 13 17 47 30.0010000  0  9G24G 2G16G 9G 5G 7G26G 4G 8
 -17641408.44849 -13731767.58747  22012199.724    22012211.089    22012201.201
  11416152.93349   8878006.88746  23463731.604    23463742.690    23463732.283
  -3068306.76549  -2383487.19145  25196187.485    25196201.325    25196188.352
 -18210286.88049 -13936794.97147  21571337.070    21571346.782    21571338.558
  -9848607.86249  -7665423.07646  23381458.379    23381470.309    23381459.931
   9707382.29549   7569299.96047  22368123.615    22368133.747    22368124.695
  15345224.57949  11987621.37745  25644573.464    25644586.964    25644575.633
 -22461055.82749 -17487514.53747  20978784.605    20978794.702    20978786.707
  -8147970.76449  -6334219.63846  23337392.437    23337404.220    23337393.497
 98  5 13 17 48  0.0010000  0  9G24G 2G16G 9G 5G 7G26G 4G 8
 -17723571.74149 -13795790.90047  21996564.628    21996575.958    21996566.063
  11489569.06649   8935214.17246  23477702.086    23477713.357    23477702.964
  -3106721.44649  -2413420.67845  25188877.021    25188891.318    25188878.225
 -18226591.16449 -13949499.61347  21568234.471    21568244.131    21568235.974
  -9927019.20949  -7726522.76146  23366537.161    23366549.111    23366538.744
   9776583.45349   7623222.89447  22381292.128    22381302.353    22381293.304
  15423223.93649  12048399.94745  25659416.363    25659429.902    25659418.698
 -22482103.51549 -17503915.33747  20974779.491    20974789.458    20974781.440
  -8233598.83449  -6400942.71046  23321097.760    23321109.671    23321098.858
 98  5 13 17 48 30.0010000  0  9G24G 2G16G 9G 5G 7G26G 4G 8
 -17805414.03349 -13859564.07547  21980990.362    21981001.860    21980991.982
  11563217.39149   8992602.37846  23491716.928    23491728.232    23491717.916
  -3144779.40649  -2443076.19945  25181634.757    25181649.046    25181635.972
 -18242350.82349 -13961779.86847  21565235.489    21565245.188    21565237.036
 -10005372.64049  -7787577.32346  23351627.060    23351638.886    23351628.605
   9845864.46949   7677208.06147  22394475.924    22394486.139    22394477.075
  15501094.36849  12109078.03245  25674235.069    25674248.358    25674237.126
 -22502559.33549 -17519854.94747  20970886.817    20970896.850    20970888.840
  -8318868.31549  -6467386.37646  23304871.584    23304883.305    23304872.583
 98  5 13 17 49  0.0010000  0  9G24G 2G16G 9G 5G 7G26G 4G 8
 -17886914.62349 -13923070.98747  21965481.314    21965492.787    21965482.866
  11637117.43649   9050186.72446  23505779.590    23505790.999    23505780.707
  -3182481.16849  -2472454.15645  25174459.966    25174474.796    25174461.617
 -18257548.10749 -13973621.91147  21562343.538    21562353.233    21562345.108
 -10083660.03949  -7848580.42146  23336729.468    23336741.236    23336730.970
   9915240.24649   7731267.06847  22407677.610    22407687.974    22407678.848
  15578863.25149  12169677.01845  25689034.078    25689047.395    25689036.236
 -22522413.75649 -17535325.93347  20967108.627    20967118.693    20967110.679
  -8403757.90549  -6533534.02346  23288717.609    23288729.256    23288718.554
 98  5 13 17 49 30.0010000  0  9G24G 2G16G 9G 5G 7G26G 4G 8
 -17968077.46849 -13986314.72247  21950036.388    21950047.981    21950038.021
  11711263.52149   9107962.79546  23519889.248    23519900.665    23519890.254
  -3219838.43449  -2501563.65445  25167351.596    25167365.949    25167352.809
 -18272185.52849 -13985027.69347  21559558.053    21559567.820    21559559.695
 -10161896.03649  -7909543.48246  23321841.572    23321853.364    23321843.162
   9984702.90649   7785393.77047  22420895.869    22420906.284    22420897.108
  15656537.04849  12230201.91945  25703814.759    25703828.449    25703817.267
 -22541681.51149 -17550339.77747  20963442.194    20963452.137    20963444.136
  -8488259.68349  -6599379.48746  23272637.407    23272648.936    23272638.385
 98  5 13 17 50  0.0010000  0  9G24G 2G16G 9G 5G 7G26G 4G 8
 -18048884.85449 -14049281.48147  21934659.273    21934670.793    21934660.869
  11785651.04649   9165927.00246  23534045.061    23534056.270    23534045.794
  -3256858.86549  -2530410.69945  25160307.169    25160321.251    25160308.086
 -18286253.81649 -13995990.00447  21556880.987    21556890.647    21556882.591
 -10240093.24449  -7970476.30146  23306961.083    23306972.860    23306962.655
  10054247.14749   7839584.04447  22434129.846    22434140.179    22434131.020
  15734118.92749  12290655.20145  25718578.446    25718592.103    25718580.762
 -22560350.37649 -17564886.95447  20959889.576    20959899.553    20959891.577
  -8572397.14749  -6664941.07046  23256626.531    23256637.912    23256627.446
 98  5 13 17 50 30.0010000  0  9G24G 2G16G 9G 5G 7G26G 4G 8
 -18129310.45349 -14111950.73947  21919354.891    21919366.302    21919356.367
  11860287.72749   9224085.35546  23548247.894    23548259.256    23548248.702
  -3293540.63849  -2558993.85345  25153326.589    25153340.786    25153327.787
 -18299742.36449 -14006500.56247  21554314.134    21554323.852    21554315.755
 -10318254.01349  -8031380.73646  23292087.574    23292099.322    23292089.120
  10123885.94649   7893847.99847  22447381.709    22447392.051    22447382.876
  15811614.19749  12351040.99845  25733325.547    25733339.314    25733327.802
 -22578398.59449 -17578950.50647  20956455.035    20956465.073    20956457.097
  -8656165.76249  -6730215.23146  23240685.796    23240697.160    23240686.752
 98  5 13 17 51  0.0010000  0  9G24G 2G16G 9G 5G 7G26G 4G 8
 -18209356.86649 -14174324.52247  21904122.464    21904133.918    21904124.008
  11935181.71249   9282444.20146  23562499.626    23562511.235    23562500.604
  -3329882.74749  -2587312.33345  25146410.758    25146425.070    25146412.137
 -18312661.03349 -14016567.06147  21551855.776    21551865.507    21551857.367
 -10396384.27649  -8092261.40046  23277219.806    23277231.533    23277221.328
  10193621.48349   7948187.33947  22460651.914    22460662.296    22460653.066
  15889024.57549  12411360.61945  25748056.011    25748070.146    25748058.397
 -22595824.77649 -17592529.35247  20953138.924    20953148.968    20953140.985
  -8739553.08349  -6795192.28646  23224817.782    23224829.050    23224818.701
 98  5 13 17 51 30.0010000  0  9G24G 2G16G 9G 5G 7G26G 4G 8
 -18289030.49749 -14236407.83547  21888960.944    21888972.443    21888962.555
  12010314.07049   9340988.79246  23576796.680    23576808.610    23576797.928
  -3365885.53749  -2615366.41445  25139559.629    25139573.926    25139561.028
 -18325027.74449 -14026203.46547  21549502.493    21549512.180    21549504.053
 -10474484.32049  -8153118.50846  23262357.591    23262369.495    23262359.272
  10263436.35349   8002588.49147  22473937.212    22473947.669    22473938.390
  15966325.72049  12471595.19245  25762765.671    25762780.339    25762768.236
 -22612642.23749 -17605633.87247  20949938.680    20949948.727    20949940.752
  -8822579.78949  -6859888.33846  23209018.587    23209029.458    23209019.207
 98  5 13 17 52  0.0010000  0  8G24G 2G16G 9G 5G 7G 4G 8
 -18368297.44549 -14298174.24747  21873876.772    21873888.349    21873878.496
  12085700.94149   9399731.70146  23591142.118    23591154.387    23591143.620
  -3401521.74849  -2643134.85645  25132778.415    25132792.602    25132779.738
 -18336829.89549 -14035399.94747  21547256.626    21547266.329    21547258.168
 -10552517.87049  -8213923.81146  23247508.361    23247520.101    23247509.866
  10333352.49849   8057068.56347  22487241.877    22487252.289    22487243.017
 -22628851.12049 -17618264.17847  20946854.272    20946864.245    20946856.306
  -8905240.65849  -6924299.33046  23193288.523    23193299.472    23193289.361
 98  5 13 17 52 30.0010000  0  8G24G 2G16G 9G 5G 7G 4G 8
 -18447179.18149 -14359640.49947  21858866.031    21858877.574    21858867.719
  12161335.76849   9458667.81246  23605534.976    23605547.373    23605536.450
  -3436780.02849  -2670608.81645  25126069.086    25126083.131    25126070.205
 -18348078.12749 -14044164.80747  21545116.085    21545125.847    21545117.671
 -10630479.13649  -8274672.79246  23232672.651    23232684.420    23232674.257
  10403363.33449   8111622.42247  22500564.369    22500574.941    22500565.596
 -22644489.64749 -17630450.05147  20943878.454    20943888.341    20943880.450
  -8987520.90549  -6988413.74046  23177631.157    23177642.026    23177631.930
 98  5 13 17 53  0.0010000  0  8G24G 2G16G 9G 5G 7G 4G 8
 -18525665.67149 -14420798.76047  21843930.530    21843942.008    21843932.181
  12237239.40049   9517813.39446  23619979.058    23619991.432    23619980.496
  -3471623.84849  -2697759.81045  25119438.422    25119452.616    25119439.679
 -18358771.00049 -14052496.91747  21543081.255    21543091.097    21543082.929
 -10708338.82949  -8335342.62646  23217856.598    23217868.098    23217857.983
  10473481.78749   8166260.13347  22513907.502    22513918.073    22513908.702
 -22659554.22149 -17642188.68647  20941011.759    20941021.673    20941013.770
  -9069402.35949  -7052217.40646  23162049.489    23162060.437    23162050.367
 98  5 13 17 53 30.0010000  0  8G24G 2G16G 9G 5G 7G 4G 8
 -18603750.85149 -14481644.32247  21829071.267    21829082.798    21829073.002
  12313410.37349   9577167.28546  23634473.870    23634486.333    23634475.417
  -3506050.52949  -2724585.79145  25112887.008    25112901.422    25112888.419
 -18368906.42649 -14060394.65947  21541152.627    21541162.457    21541154.245
 -10786099.07949  -8395934.97246  23203059.078    23203070.711    23203060.600
  10543701.10349   8220976.43247  22527269.813    22527280.418    22527271.056
 -22674044.99349 -17653480.20247  20938254.230    20938264.176    20938256.281
  -9150886.01349  -7115711.09846  23146543.568    23146554.484    23146544.463
 98  5 13 17 54  0.0010000  0  8G24G 2G16G 9G 5G 7G 4G 8
 -18681462.01949 -14542198.44047  21814283.328    21814294.799    21814285.000
  12389843.20149   9636725.21746  23649018.956    23649031.150    23649020.262
  -3540070.12149  -2751094.56345  25106413.257    25106427.807    25106414.616
 -18378484.59049 -14067858.16947  21539329.926    21539339.840    21539331.614
 -10863775.24749  -8456461.79946  23188277.623    23188289.325    23188279.234
  10614013.37449   8275765.16847  22540649.884    22540660.461    22540651.100
 -22687969.41949 -17664330.40947  20935604.589    20935614.465    20935606.555
  -9231966.73349  -7178890.80546  23131114.319    23131125.293    23131115.276
 98  5 13 17 54 30.0010000  0  8G24G 2G16G 9G 5G 7G 4G 8
 -18758802.43449 -14602463.66247  21799565.948    21799577.361    21799567.557
  12466557.98249   9696502.84846  23663617.638    23663629.587    23663618.628
  -3573670.25549  -2777276.46545  25100019.115    25100033.794    25100020.752
 -18387482.93449 -14074869.87047  21537617.602    21537627.543    21537619.282
 -10941356.96949  -8516915.03446  23173514.156    23173526.021    23173515.841
  10684428.65649   8330634.16647  22554049.487    22554060.073    22554050.696
 -22701289.61249 -17674709.77947  20933069.793    20933079.724    20933071.791
  -9312617.85449  -7241735.76546  23115767.005    23115777.865    23115767.850
 98  5 13 17 55  0.0010000  0  8G24G 2G16G 9G 5G 7G 4G 8
 -18835768.22349 -14662436.96347  21784919.691    21784931.149    21784921.389
  12543550.33649   9756496.77146  23678268.828    23678280.868    23678269.816
  -3606859.24549  -2803137.98345  25093703.840    25093718.056    25093704.889
 -18395903.89249 -14081431.66447  21536015.136    21536025.141    21536016.810
 -11018849.47149  -8577298.74246  23158767.767    23158779.692    23158769.396
  10754943.09849   8385580.43647  22567467.955    22567478.575    22567469.175
 -22713982.13749 -17684600.06547  20930654.309    20930664.433    20930656.478
  -9392849.94849  -7304254.21546  23100499.168    23100510.196    23100500.021
 98  5 13 17 55 30.0010000  0  8G24G 2G16G 9G 5G 7G 4G 8
 -18912369.95049 -14722126.58447  21770342.842    21770354.228    21770344.515
  12620804.40549   9816694.62746  23692969.701    23692981.954    23692970.876
  -3639661.42449  -2828698.06245  25087461.489    25087475.938    25087462.786
 -18403740.98749 -14087538.50147  21534523.767    21534533.844    21534525.452
 -11096263.75949  -8637621.50946  23144036.230    23144048.191    23144037.913
  10825546.57749   8440596.08047  22580903.332    22580914.067    22580904.536
 -22726053.79349 -17694006.55947  20928357.205    20928367.298    20928359.296
  -9472667.97149  -7366450.01546  23085310.068    23085321.247    23085310.962
 98  5 13 17 56  0.0010000  0  8G24G 2G16G 9G 5G 7G 4G 8
 -18988616.76349 -14781539.64447  21755833.522    21755844.897    21755835.152
  12698305.50949   9877084.98046  23707717.531    23707730.014    23707718.941
  -3672088.52149  -2853965.89945  25081290.321    25081305.155    25081292.004
 -18411014.14349 -14093205.90347  21533139.746    21533149.831    21533141.429
 -11173607.79949  -8697889.53046  23129318.150    23129330.075    23129319.765
  10896241.50149   8495682.98347  22594356.111    22594366.881    22594357.341
 -22737508.69349 -17702932.46347  20926177.394    20926187.530    20926179.504
  -9552073.75049  -7428324.59446  23070199.636    23070210.804    23070200.482
 98  5 13 17 56 30.0010000  0  8G24G 2G16G 9G 5G 7G 4G 8
 -19064484.98849 -14840657.69447  21741396.252    21741407.651    21741397.869
  12776051.95949   9937666.50746  23722512.297    23722524.812    23722513.743
  -3704131.52149  -2878934.39545  25075192.653    25075207.559    25075194.456
 -18417723.36649 -14098433.87947  21531862.995    21531873.127    21531864.709
 -11250875.37549  -8758097.98546  23114614.471    23114626.435    23114616.194
  10967027.30249   8550840.69447  22607826.283    22607836.993    22607827.453
 -22748331.64849 -17711365.94147  20924117.923    20924128.020    20924119.981
  -9631065.02949  -7489876.17846  23055168.048    23055179.207    23055168.917
 98  5 13 17 57  0.0010000  0  8G24G 2G16G 9G 5G 7G 4G 8
 -19139950.44049 -14899461.90247  21727035.408    21727046.985    21727037.228
  12854045.53349   9998440.59546  23737354.003    23737366.599    23737355.558
  -3735780.63949  -2903595.98845  25069169.906    25069184.935    25069171.787
 -18423862.97949 -14103217.99647  21530694.626    21530704.873    21530696.383
 -11328055.71449  -8818238.45046  23099927.644    23099939.473    23099929.242
  11037903.84649   8606069.11847  22621313.662    22621324.392    22621314.880
 -22758524.52149 -17719308.44347  20922178.283    20922188.390    20922180.332
  -9709632.81349  -7551097.74746  23040217.039    23040228.287    23040217.919
 98  5 13 17 57 30.0010000  0  8G24G 2G16G 9G 5G 7G 4G 8
 -19214990.23749 -14957934.42747  21712755.553    21712767.373    21712757.566
  12932304.91749  10059421.81746  23752246.520    23752259.023    23752247.977
  -3767030.57349  -2927946.52345  25063223.217    25063238.188    25063225.152
 -18429415.44049 -14107544.59947  21529638.056    21529648.331    21529639.791
 -11405139.95349  -8878304.03246  23085258.897    23085270.805    23085260.578
  11108876.37349   8661372.32447  22634819.389    22634830.054    22634820.584
 -22768079.80449 -17726754.12347  20920359.843    20920370.082    20920361.981
  -9787762.21849  -7611977.73746  23025349.185    23025360.705    23025350.361
 98  5 13 17 58  0.0010000  0  8G24G 2G16G 9G 5G 7G 4G 8
 -19289611.48249 -15016080.80147  21698555.423    21698567.436    21698557.564
  13010810.49249  10120594.87746  23767185.592    23767198.332    23767187.184
  -3797883.60849  -2951987.78845  25057352.434    25057367.053    25057354.041
 -18434413.22949 -14111438.98847  21528686.989    21528697.316    21528688.769
 -11482160.59949  -8938320.05946  23070602.489    23070614.217    23070604.019
  11179908.74049   8716722.16547  22648336.381    22648347.102    22648337.610
 -22777012.13949 -17733714.38947  20918660.126    20918670.315    20918662.163
  -9865480.76949  -7672537.57346  23010560.023    23010571.312    23010560.970
 98  5 13 17 58 30.0010000  0  8G24G 2G16G 9G 5G 7G 4G 8
 -19363812.85649 -15073900.00847  21684435.312    21684447.381    21684437.476
  13089570.97149  10181966.56046  23782173.391    23782186.082    23782174.902
  -3828334.70849  -2975715.83945  25051558.074    25051572.286    25051559.407
 -18438840.41749 -14114888.75147  21527844.603    21527854.872    21527846.341
 -11559115.56049  -8998284.90146  23055958.440    23055970.113    23055959.968
  11250982.46049   8772104.22947  22661861.257    22661872.041    22661862.492
 -22785327.22549 -17740193.68247  20917077.770    20917088.022    20917079.811
  -9942794.33949  -7732781.85746  22995847.735    22995858.968    22995848.653
 98  5 13 17 59  0.0010000  0  8G24G 2G16G 9G 5G 7G 4G 8
 -19437596.67649 -15131393.85147  21670394.763    21670406.763    21670396.839
  13168582.07649  10243533.52646  23797209.184    23797221.512    23797210.317
  -3858391.32749  -2999136.52445  25045838.451    25045852.595    25045839.875
 -18442696.69849 -14117893.65647  21527110.772    21527121.069    21527112.532
 -11636011.56649  -9058203.80846  23041325.652    23041337.197    23041327.132
  11322094.59649   8827516.22947  22675393.460    22675404.297    22675394.732
 -22793037.17349 -17746201.44047  20915610.565    20915620.851    20915612.651
 -10019708.34649  -7792714.79546  22981211.398    22981222.651    22981212.358
 98  5 13 17 59 30.0010000  0  8G24G 2G16G 9G 5G 7G 4G 8
 -19510968.95649 -15188567.00747  21656432.337    21656444.480    21656434.541
  13247839.79049  10305292.66146  23812291.672    23812303.868    23812292.607
  -3888053.71749  -3022250.01345  25040194.163    25040207.872    25040195.342
 -18445987.74949 -14120458.12047  21526484.536    21526494.765    21526486.254
 -11712851.44149  -9118078.98446  23026703.423    23026714.926    23026704.998
  11393260.35849   8882970.01147  22688935.922    22688946.752    22688937.146
 -22800136.00749 -17751733.00747  20914259.650    20914269.988    20914261.764
 -10096216.71249  -7852331.63746  22966652.316    22966663.537    22966653.278
 98  5 13 18  0  0.0010000  0  8G24G 2G16G 9G 5G 7G 4G 8
 -19583936.90649 -15245425.10147  21642547.011    21642559.131    21642549.174
  13327342.43049  10367242.64246  23827420.349    23827432.838    23827421.457
  -3917296.10349  -3045036.23345  25034629.335    25034643.103    25034630.686
 -18448706.08149 -14122576.30747  21525967.259    21525977.412    21525968.958
 -11789617.19949  -9177896.39746  23012095.359    23012106.780    23012096.948
  11464499.93349   8938481.31147  22702492.349    22702503.266    22702493.654
 -22806615.71749 -17756782.13147  20913026.464    20913036.925    20913028.716
 -10172301.41949  -7911618.34146  22952173.886    22952185.060    22952174.745
 98  5 13 18  0 30.0010000  0  8G24G 2G16G 9G 5G 7G 4G 8
 -19656511.09549 -15301976.36247  21628736.551    21628748.678    21628738.718
  13407084.34649  10429379.07646  23842594.775    23842607.391    23842595.943
  -3946127.08649  -3067501.86245  25029142.788    25029156.660    25029144.272
 -18450837.01349 -14124236.77647  21525561.701    21525571.880    21525563.450
 -11866292.14449  -9237643.04846  22997504.546    22997515.922    22997506.232
  11535833.55349   8994065.89547  22716066.882    22716077.614    22716068.055
 -22812488.98749 -17761358.70347  20911908.886    20911919.246    20911911.063
 -10247961.14249  -7970573.89146  22937776.351    22937787.466    22937777.139
 98  5 13 18  1  0.0010000  0  8G24G 2G16G 9G 5G 7G 4G 8
 -19728671.01249 -15358204.81347  21615004.984    21615017.090    21615007.140
  13487070.93449  10491706.16346  23857815.776    23857828.489    23857817.038
  -3974523.24649  -3089628.68645  25023738.963    25023752.856    25023740.561
 -18452367.05949 -14125429.03447  21525270.554    21525280.670    21525272.299
 -11942847.52649  -9297296.53646  22982936.654    22982947.875    22982938.234
  11607301.57449   9049755.20847  22729666.888    22729677.578    22729668.031
 -22817735.81649 -17765447.13647  20910910.489    20910920.801    20910912.631
 -10323168.12949  -8029176.67446  22923464.888    22923475.946    22923465.678
 98  5 13 18  1 30.0010000  0  8G24G 2G16G 9G 5G 7G 4G 8
 -19800423.83749 -15414116.05547  21601350.980    21601362.953    21601353.049
  13567305.79449  10554226.71746  23873083.752    23873096.796    23873085.280
  -4002481.78949  -3111414.51545  25018418.476    25018432.404    25018420.185
 -18453310.08849 -14126163.86447  21525091.117    21525101.175    21525092.832
 -12019275.68749  -9356850.88646  22968392.861    22968404.055    22968394.403
  11678898.99549   9105545.34947  22743291.467    22743302.187    22743292.652
 -22822362.82049 -17769052.58747  20910029.931    20910040.303    20910032.161
 -10397927.55249  -8087430.70446  22909238.575    22909249.679    22909239.408
 98  5 13 18  2  0.0010000  0  8G24G 2G16G 9G 5G 7G 4G 8
 -19871765.09049 -15469706.58747  21587775.356    21587787.158    21587777.263
  13647784.97149  10616937.63546  23888398.588    23888411.620    23888400.070
  -4030000.11049  -3132857.30345  25013181.941    25013195.753    25013183.522
 -18453670.21649 -14126444.49247  21525022.526    21525032.617    21525024.305
 -12095582.84449  -9416310.95046  22953871.935    22953883.233    22953873.562
  11750601.65049   9161417.49047  22756936.079    22756946.798    22756937.275
 -22826392.03549 -17772192.22947  20909263.171    20909273.545    20909265.378
 -10472250.97749  -8145344.98146  22895095.052    22895106.390    22895096.017
 98  5 13 18  2 30.0010000  0  8G24G 2G16G 9G 5G 7G 4G 8
 -19942678.17349 -15524963.47947  21574280.951    21574292.820    21574282.966
  13728509.29949  10679839.58546  23903760.297    23903773.115    23903761.540
  -4057091.99249  -3153967.81445  25008026.692    25008040.253    25008028.039
 -18453453.02149 -14126275.25847  21525063.886    21525073.914    21525065.674
 -12171773.91649  -9475680.57046  22939373.111    22939384.456    22939374.819
  11822399.25849   9217363.62947  22770598.819    22770609.474    22770599.966
 -22829832.00249 -17774872.71547  20908608.522    20908618.930    20908610.768
 -10546134.26249  -8202916.30346  22881035.639    22881046.843    22881036.414
 98  5 13 18  3  0.0010000  0  8G24G 2G16G 9G 5G 7G 4G 8
 -20013156.52249 -15579881.61747  21560869.382    21560881.193    21560871.375
  13809473.58249  10742928.50646  23919167.441    23919180.231    23919168.655
  -4083770.85249  -3174756.50645  25002949.868    25002963.265    25002951.103
 -18452675.73249 -14125669.58847  21525211.838    21525221.811    21525213.612
 -12247866.34449  -9534973.32146  22924893.190    22924904.468    22924894.834
  11894268.16849   9273365.32047  22784275.073    22784285.710    22784276.201
 -22832684.22849 -17777095.22047  20908065.742    20908076.215    20908067.993
 -10619573.09049  -8260141.29246  22867060.354    22867071.853    22867061.358
 98  5 13 18  3 30.0010000  0  8G24G 2G16G 9G 5G 7G 4G 8
 -20083185.99149 -15634449.98147  21547543.322    21547554.992    21547545.242
  13890689.23249  10806213.31246  23934622.302    23934635.175    23934623.562
  -4110030.15149  -3195218.26845  24997952.709    24997966.232    24997954.138
 -18451337.15849 -14124626.55447  21525466.643    21525476.495    21525468.359
 -12323868.54249  -9594195.77046  22910430.328    22910441.658    22910432.024
  11966191.81749   9329409.66247  22797961.718    22797972.387    22797962.874
 -22834947.55849 -17778858.84747  20907634.975    20907645.504    20907637.293
 -10692562.50449  -8317016.10146  22853170.958    22853182.342    22853171.920
 98  5 13 18  4  0.0010000  0  8G24G 2G16G 9G 5G 7G 4G 8
 -20152758.52549 -15688662.29347  21534304.118    21534315.760    21534306.068
  13972146.23349  10869686.16646  23950122.983    23950136.103    23950124.449
  -4135863.67249  -3215348.24545  24993036.701    24993050.353    24993038.105
 -18449429.35649 -14123139.96747  21525829.633    21525839.523    21525831.379
 -12399780.51749  -9653347.91246  22895984.776    22895995.988    22895986.410
  12038174.54249   9385500.04047  22811659.740    22811670.325    22811660.791
 -22836611.48149 -17780155.40647  20907318.423    20907328.890    20907320.666
 -10765079.80449  -8373523.01846  22839371.404    22839382.731    22839372.302
 98  5 13 18  4 30.0010000  0  8G24G 2G16G 9G 5G 7G 4G 8
 -20221867.67949 -15742513.52847  21521153.105    21521164.691    21521155.036
  14053855.28249  10933355.42246  23965671.964    23965684.933    23965673.254
  -4161259.73949  -3235137.35045  24988203.742    24988217.629    24988205.254
 -18446942.31649 -14121202.02447  21526302.839    21526312.748    21526304.637
 -12475589.85249  -9712420.08046  22881558.836    22881569.917    22881560.401
  12110235.87449   9441651.66647  22825372.465    22825383.230    22825373.658
 -22837656.91449 -17780970.02047  20907119.548    20907129.983    20907121.744
 -10837120.29949  -8429658.41646  22825662.486    22825673.765    22825663.447
 98  5 13 18  5  0.0010000  0  8G24G 2G16G 9G 5G 7G 4G 8
 -20290536.65149 -15796021.76647  21508085.720    21508097.360    21508087.725
  14135802.56949  10997210.32046  23981266.579    23981279.050    23981267.373
  -4186220.10049  -3254586.96445  24983453.895    24983467.896    24983455.394
 -18443889.35649 -14118823.10647  21526883.776    21526893.666    21526885.577
 -12551323.74349  -9771433.45646  22867147.213    22867158.228    22867148.706
  12182358.71149   9497851.22447  22839096.999    22839107.795    22839098.202
 -22838094.09049 -17781310.67047  20907036.335    20907046.794    20907038.562
 -10908709.54349  -8485442.18346  22812039.594    22812050.713    22812040.432
 98  5 13 18  5 30.0010000  0  8G24G 2G16G 9G 5G 7G 4G 8
 -20358773.48649 -15849193.27747  21495100.559    21495112.259    21495102.634
  14218001.28349  11061261.13546  23996908.530    23996921.016    23996909.363
  -4210713.61449  -3273672.79645  24978793.040    24978806.854    24978794.390
 -18440253.44249 -14115989.93647  21527575.669    21527585.547    21527577.454
 -12626970.24749  -9830378.73946  22852752.238    22852763.086    22852753.612
  12254556.22849   9554108.97347  22852835.602    22852846.555    22852836.962
 -22837918.05049 -17781173.48847  20907069.873    20907080.311    20907072.083
 -10979831.65449  -8540861.96646  22798505.621    22798516.568    22798506.367
 98  5 13 18  6  0.0010000  0  8G24G 2G16G 9G 5G 7G 4G 8
 -20426595.52349 -15902041.57247  21482194.495    21482206.080    21482196.447
  14300454.67449  11125510.40346  24012598.629    24012611.512    24012599.771
  -4234738.44049  -3292393.40745  24974221.069    24974235.088    24974222.478
 -18436023.36149 -14112693.77847  21528380.545    21528390.461    21528382.328
 -12702524.32649  -9889252.00846  22838374.708    22838385.552    22838376.129
  12326827.23049   9610423.98747  22866588.305    22866599.307    22866589.715
 -22837134.32649 -17780562.78847  20907218.916    20907229.412    20907221.230
 -11050485.26949  -8595916.67846  22785060.684    22785071.573    22785061.388
 98  5 13 18  6 30.0010000  0  8G24G 2G16G 9G 5G 7G 4G 8
 -20494007.52349 -15954570.36447  21469366.341    21469377.916    21469368.290
  14383173.56849  11189966.53546  24028339.714    24028352.527    24028340.821
  -4258296.24949  -3310750.12145  24969738.189    24969752.275    24969739.617
 -18431196.23149 -14108932.39347  21529298.995    21529309.064    21529300.880
 -12777984.14349  -9948051.82847  22824015.124    22824026.000    22824016.573
  12399157.54949   9666785.22147  22880352.339    22880363.335    22880353.747
 -22835740.59849 -17779476.76547  20907484.180    20907494.619    20907486.476
 -11120676.16249  -8650610.83546  22771703.651    22771714.595    22771704.482
 98  5 13 18  7  0.0010000  0  8G24G 2G16G 9G 5G 7G 4G 8
 -20561028.05249 -16006794.10647  21456612.665    21456624.266    21456614.634
  14466144.86749  11254619.35646  24044128.250    24044141.555    24044129.813
  -4281409.19949  -3328760.18145  24965340.240    24965353.883    24965341.420
 -18425788.17349 -14104718.33047  21530328.211    21530338.241    21530329.986
 -12853343.10849 -10006773.05647  22809674.808    22809685.657    22809676.210
  12471532.51149   9723181.25047  22894124.806    22894135.878    22894126.262
 -22833745.64649 -17777922.24747  20907863.761    20907874.224    20907866.100
 -11190390.23849  -8704933.44546  22758437.335    22758448.401    22758438.275
 98  5 13 18  7 30.0010000  0  8G24G 2G16G 9G 5G 7G 4G 8
 -20627654.71649 -16058710.94747  21443933.944    21443945.593    21443935.912
  14549371.44849  11319471.11246  24059966.058    24059979.125    24059967.364
  -4304089.74949  -3346433.32245  24961024.213    24961038.034    24961025.524
 -18419816.83849 -14100065.35247  21531464.506    21531474.611    21531466.341
 -12928574.48249 -10065394.84947  22795358.484    22795369.607    22795360.067
  12543950.98449   9779611.16847  22907905.866    22907916.717    22907907.089
 -22831142.35549 -17775893.70347  20908359.194    20908369.586    20908361.483
 -11259623.16949  -8758881.13746  22745262.742    22745273.768    22745263.661
 98  5 13 18  8  0.0010000  0  8G24G 2G16G 9G 5G 7G 4G 8
 -20693846.02549 -16110288.55247  21431338.014    21431349.745    21431340.005
  14632868.91249  11384533.92946  24075855.218    24075868.238    24075856.500
  -4326340.63149  -3363771.65945  24956790.423    24956803.743    24956791.294
 -18413285.01049 -14094975.62747  21532707.564    21532717.649    21532709.326
 -13003647.56349 -10123893.30746  22781072.508    22781083.674    22781074.073
  12616422.66549   9836082.55447  22921696.769    22921707.673    22921698.043
 -22827900.52749 -17773367.60247  20908976.126    20908986.466    20908978.419
 -11328367.50849  -8812448.10946  22732180.930    22732192.090    22732181.960
 98  5 13 18  8 30.0010000  0  8G24G 2G16G 9G 5G 7G 4G 8
 -20759577.57449 -16161507.90847  21418829.737    21418841.393    21418831.619
  14716619.91749  11449794.32546  24091792.704    24091805.638    24091793.922
  -4348174.22749  -3380784.82545  24952634.973    24952648.862    24952636.482
 -18406209.95149 -14089462.60947  21534053.984    21534064.016    21534055.744
 -13078560.86049 -10182267.25847  22766817.028    22766828.144    22766818.512
  12688965.58449   9892609.44846  22935500.928    22935512.153    22935502.491
 -22824003.77949 -17770331.16747  20909717.653    20909727.934    20909719.925
 -11396621.56649  -8865633.04446  22719192.731    22719203.712    22719193.613
 98  5 13 18  9  0.0010000  0  8G24G 2G16G 9G 5G 7G 4G 8
 -20824825.97949 -16212350.79047  21406413.238    21406424.988    21406415.206
  14800625.02149  11515252.70846  24107778.298    24107791.384    24107779.657
  -4369566.96749  -3397454.46945  24948564.094    24948577.991    24948565.657
 -18398579.54049 -14083516.84847  21535506.030    21535516.101    21535507.807
 -13153313.45749 -10240515.99647  22752592.029    22752603.176    22752593.532
  12761606.08449   9949212.37547  22949324.063    22949335.178    22949325.552
 -22819452.39849 -17766784.63547  20910583.719    20910593.993    20910586.008
 -11464370.73749  -8918424.56046  22706300.350    22706311.446    22706301.309
 98  5 13 18  9 30.0010000  0  8G24G 2G16G 9G 5G 7G 4G 8
 -20889591.20649 -16262817.16847  21394088.765    21394100.571    21394090.763
  14884868.82649  11580897.08946  24123809.292    24123822.621    24123810.769
  -4390515.15849  -3413777.71045  24944577.469    24944591.671    24944579.232
 -18390384.44449 -14077131.07347  21537065.537    21537075.593    21537067.318
 -13227941.64849 -10298667.77947  22738390.637    22738401.914    22738392.197
  12834328.07649  10005878.80547  22963162.637    22963173.734    22963164.109
 -22814265.13249 -17762742.61047  20911570.765    20911581.030    20911573.042
 -11531639.73049  -8970841.91746  22693499.444    22693510.476    22693500.384
 98  5 13 18 10  0.0010000  0  8G24G 2G16G 9G 5G 7G 4G 8
 -20953875.44649 -16312908.75747  21381855.704    21381867.660    21381857.841
  14969329.64649  11646710.57446  24139881.583    24139895.215    24139883.256
  -4411004.54449  -3429743.44745  24940678.316    24940692.679    24940680.154
 -18381607.32649 -14070291.77447  21538735.885    21538745.865    21538737.626
 -13302471.76549 -10356743.14547  22724207.871    22724219.304    22724209.488
  12907129.19749  10062606.90047  22977016.214    22977027.334    22977017.723
 -22808464.20249 -17758222.40547  20912674.556    20912684.896    20912676.898
 -11598427.91449  -9022884.61346  22680790.035    22680801.018    22680790.951
 98  5 13 18 10 30.0010000  0  8G24G 2G16G 9G 5G 7G 4G 8
 -21017683.80649 -16362629.52147  21369713.396    21369725.328    21369715.513
  15054010.92349  11712695.82846  24155995.828    24156009.644    24155997.662
  -4431004.52849  -3445327.81245  24936872.438    24936886.780    24936874.251
 -18372227.04949 -14062982.48347  21540520.858    21540530.931    21540522.670
 -13376910.98349 -10414747.67547  22710042.420    22710053.929    22710044.091
  12980025.84749  10119409.42847  22990888.014    22990899.201    22990889.542
 -22802062.63849 -17753234.17047  20913892.755    20913903.044    20913895.030
 -11664721.80549  -9074542.14146  22668174.659    22668185.657    22668175.590
 98  5 13 18 11  0.0010000  0  8G24G 2G16G 9G 5G 7G 4G 8
 -21081032.01549 -16411991.73347  21357658.559    21357670.511    21357660.718
  15138930.75349  11778866.97246  24172155.821    24172169.455    24172157.483
  -4450498.69349  -3460518.02945  24933162.815    24933177.146    24933164.551
 -18362233.18049 -14055195.06947  21542422.677    21542432.774    21542424.513
 -13451249.23049 -10472673.52747  22695896.190    22695907.749    22695897.917
  13052993.47149  10176267.25746  23004773.393    23004784.586    23004774.900
 -22795086.41849 -17747798.15747  20915220.393    20915230.596    20915222.575
 -11730520.10949  -9125813.49546  22655653.574    22655664.614    22655654.566
 98  5 13 18 11 30.0010000  0  8G24G 2G16G 9G 5G 7G 4G 8
 -21143927.63949 -16461001.28647  21345689.969    21345701.873    21345692.108
  15224097.99249  11845230.90146  24188362.586    24188376.471    24188364.416
  -4469498.72749  -3475323.21045  24929547.307    24929561.597    24929548.906
 -18351635.78349 -14046937.37347  21544439.416    21544449.440    21544441.163
 -13525478.43649 -10530514.42547  22681770.615    22681782.249    22681772.483
  13126016.99349  10233168.65546  23018669.355    23018680.564    23018670.835
 -22787529.05149 -17741909.30147  20916658.489    20916668.734    20916660.697
 -11795829.39749  -9176703.79546  22643225.586    22643236.608    22643226.610
 98  5 13 18 12  0.0010000  0  8G24G 2G16G 9G 5G 7G 4G 8
 -21206354.78949 -16509645.79147  21333810.573    21333822.359    21333812.619
  15309519.09449  11911792.63446  24204617.579    24204631.734    24204619.611
  -4488003.06649  -3489742.12545  24926026.251    24926040.278    24926027.701
 -18340451.65549 -14038222.48147  21546567.683    21546577.757    21546569.471
 -13599568.13149 -10588246.59147  22667671.973    22667683.336    22667673.640
  13199100.70949  10290116.95146  23032576.774    23032588.017    23032578.248
 -22779379.48649 -17735558.99647  20918209.371    20918219.593    20918211.535
 -11860633.89149  -9227200.74946  22630893.650    22630904.593    22630894.739
 98  5 13 18 12 30.0010000  0  8G24G 2G16G 9G 5G 7G 4G 8
 -21268311.98949 -16557924.10547  21322020.506    21322032.245    21322022.561
  15395197.95449  11978555.22646  24220922.448    24220935.971    24220923.929
  -4506033.26149  -3503791.56545  24922595.073    24922609.276    24922596.600
 -18328687.78149 -14029055.84047  21548806.332    21548816.384    21548808.063
 -13673507.47549 -10645861.60947  22653601.845    22653613.057    22653603.420
  13272230.35849  10347101.03246  23046493.109    23046504.220    23046494.464
 -22770633.42549 -17728743.88647  20919873.756    20919883.907    20919875.893
 -11924933.90349  -9277304.60647  22618658.020    22618668.648    22618658.926
 98  5 13 18 13  0.0010000  0  8G24G 2G16G 9G 5G 7G 4G 8
 -21329808.17049 -16605843.18347  21310318.137    21310329.862    21310320.221
  15481118.50749  12045506.13646  24237272.901    24237286.250    24237274.292
  -4523617.20949  -3517493.29145  24919248.794    24919263.091    24919250.535
 -18316352.03349 -14019443.58447  21551153.742    21551163.859    21551155.508
 -13747296.46249 -10703359.46847  22639560.273    22639571.424    22639561.816
  13345387.32249  10404106.39946  23060414.580    23060425.611    23060415.856
 -22761285.85349 -17721460.07347  20921652.525    20921662.766    20921654.722
 -11988740.94449  -9327024.33247  22606516.037    22606526.543    22606516.928
 98  5 13 18 13 30.0010000  0  8G24G 2G16G 9G 5G 7G 4G 8
 -21390827.66849 -16653390.82347  21298706.485    21298718.211    21298708.596
  15567275.26649  12112641.10946  24253667.917    24253681.438    24253669.606
  -4540754.25449  -3530846.76945  24915987.838    24916001.994    24915989.376
 -18303446.45449 -14009387.30247  21553609.506    21553619.768    21553611.357
 -13820933.71349 -10760739.09447  22625547.471    22625558.684    22625549.108
  13418589.76549  10461147.20046  23074344.535    23074355.662    23074345.873
 -22751307.24149 -17713684.53847  20923551.422    20923561.669    20923553.633
 -12052050.95949  -9376356.76446  22594468.601    22594479.038    22594469.498
 98  5 13 18 14  0.0010000  0  8G24G 2G16G 9G 5G 7G 4G 8
 -21451372.71649 -16700568.76347  21287185.172    21287196.839    21287187.258
  15653654.69049  12179949.58245  24270105.158    24270118.941    24270107.220
  -4557440.87449  -3543849.29145  24912812.248    24912826.538    24912813.956
 -18289975.00149 -13998890.08047  21556173.169    21556183.338    21556174.896
 -13894419.68949 -10818000.84247  22611563.578    22611574.718    22611565.230
  13491841.94349  10518226.75546  23088283.965    23088295.138    23088285.353
 -22740710.62549 -17705427.44247  20925567.932    20925578.134    20925570.152
 -12114854.49749  -9425294.52746  22582517.422    22582527.896    22582518.339
 98  5 13 18 14 30.0010000  0  8G24G 2G16G 9G 5G 7G 4G 8
 -21511459.88249 -16747389.91647  21275750.953    21275762.628    21275753.039
  15740259.56349  12247433.73145  24286585.415    24286599.366    24286587.603
  -4573680.15949  -3556503.22145  24909722.132    24909736.196    24909723.617
 -18275931.74149 -13987947.30247  21558845.418    21558855.667    21558847.170
 -13967770.99049 -10875157.65847  22597605.257    22597616.358    22597606.900
  13565152.03649  10575351.43546  23102234.615    23102245.620    23102235.848
 -22729506.32449 -17696696.83347  20927700.013    20927710.224    20927702.279
 -12177161.31949  -9473845.26246  22570660.778    22570671.265    22570661.666
 98  5 13 18 15  0.0010000  0  8G24G 2G16G 9G 5G 7G 4G 8
 -21571094.32949 -16793858.29747  21264402.828    21264414.539    21264404.949
  15827094.56349  12315097.20845  24303109.878    24303123.674    24303111.884
  -4589455.69849  -3568795.79645  24906720.228    24906734.211    24906721.492
 -18261325.17549 -13976565.57947  21561624.758    21561635.201    21561626.622
 -14040987.28749 -10932209.26947  22583672.584    22583683.694    22583674.257
  13638534.95449  10632532.87646  23116198.952    23116209.895    23116200.154
 -22717695.91349 -17687493.92147  20929947.428    20929957.652    20929949.737
 -12238974.74449  -9522011.51946  22558898.038    22558908.532    22558898.895
 98  5 13 18 15 30.0010000  0  8G24G 2G16G 9G 5G 7G 4G 8
 -21630255.62249 -16839957.98147  21253144.837    21253156.475    21253146.911
  15914187.70849  12382961.81745  24319683.532    24319697.142    24319685.295
  -4604734.10349  -3580701.00945  24903812.945    24903826.743    24903814.137
 -18246139.80149 -13964732.83247  21564514.342    21564524.875    21564516.254
 -14114063.11049 -10989151.42147  22569766.735    22569777.788    22569768.373
  13712009.28949  10689785.54246  23130180.251    23130191.663    23130181.750
 -22705277.90849 -17677817.56347  20932310.478    20932320.689    20932312.778
 -12300269.90649  -9569773.93646  22547233.926    22547244.412    22547234.758
 98  5 13 18 16  0.0010000  0  8G24G 2G16G 9G 5G 7G 4G 8
 -21688950.29949 -16885694.07647  21241975.625    21241987.218    21241977.646
  16001535.89949  12451025.17945  24336305.236    24336319.133    24336307.169
  -4619528.30849  -3592228.92945  24900997.287    24901011.346    24900998.792
 -18230374.24849 -13952448.00347  21567514.409    21567524.970    21567516.303
 -14187006.97549 -11045990.75947  22555885.809    22555897.034    22555887.586
  13785564.69549  10747101.38446  23144177.464    23144188.843    23144178.875
 -22692277.14249 -17667687.10647  20934784.392    20934794.630    20934786.758
 -12361045.49949  -9617131.49846  22535668.557    22535679.122    22535669.470
 98  5 13 18 16 30.0010000  0  8G24G 2G16G 9G 5G 7G 4G 8
 -21747171.05149 -16931060.87247  21230896.494    21230908.160    21230898.585
  16089153.57449  12519298.51845  24352978.909    24352992.415    24352980.390
  -4633839.01549  -3603380.08845  24898274.004    24898288.020    24898275.514
 -18214011.32549 -13939697.68847  21570628.157    21570638.726    21570630.027
 -14259815.00649 -11102724.24947  22542030.989    22542042.138    22542032.691
  13859201.43049  10804480.59346  23158190.190    23158201.511    23158191.517
 -22678674.60549 -17657087.73647  20937372.979    20937383.095    20937375.273
 -12421302.66149  -9664085.09546  22524201.992    22524212.493    22524202.845
 98  5 13 18 17  0.0010000  0  8G24G 2G16G 9G 5G 7G 4G 8
 -21804907.62849 -16976050.38947  21219909.757    21219921.248    21219911.701
  16177043.69349  12587784.15945  24369703.911    24369717.381    24369705.421
  -4647650.73949  -3614142.46845  24895645.482    24895659.663    24895647.226
 -18197052.55349 -13926483.07547  21573855.273    21573865.862    21573857.166
 -14332484.47549 -11159349.76447  22528202.582    22528213.606    22528204.124
  13932902.98149  10861910.31046  23172215.251    23172226.540    23172216.515
 -22664452.62849 -17646005.68647  20940079.327    20940089.435    20940081.653
 -12481028.59349  -9710624.74946  22512836.427    22512846.962    22512837.325
 98  5 13 18 17 30.0010000  0  8G24G 2G16G 9G 5G 7G 4G 8
 -21862145.79849 -17020651.53847  21209017.595    21209029.151    21209019.625
  16265201.30049  12656478.23445  24386479.955    24386493.380    24386481.394
  -4660970.48749  -3624521.48746  24893110.883    24893125.020    24893112.579
 -18179507.49049 -13912811.61647  21577193.918    21577204.539    21577195.820
 -14405016.25549 -11215868.00447  22514400.290    22514411.243    22514401.802
  14006660.35349  10919383.51646  23186250.816    23186262.187    23186252.107
 -22649599.90349 -17634432.14547  20942905.861    20942915.817    20942908.064
 -12540219.25349  -9756747.31146  22501572.724    22501583.274    22501573.602
 98  5 13 18 18  0.0010000  0  8G24G 2G16G 9G 5G 7G 4G 8
 -21918889.80249 -17064867.61747  21198219.534    21198231.110    21198221.611
  16353596.72949  12725357.64045  24403301.100    24403314.664    24403302.591
  -4673823.49849  -3634536.82946  24890664.913    24890679.100    24890666.673
 -18161406.47449 -13898706.94347  21580638.493    21580648.998    21580640.315
 -14477417.54649 -11272284.55647  22500622.727    22500633.654    22500624.280
  14080466.88049  10976895.02346  23200295.634    23200307.144    23200297.111
 -22634122.22449 -17622371.62447  20945851.137    20945861.110    20945853.358
 -12598890.16749  -9802464.86946  22490407.907    22490418.527    22490408.815
 98  5 13 18 18 30.0010000  0  8G24G 2G16G 9G 5G 7G 4G 8
 -21975137.46549 -17108696.94447  21187516.002    21187527.471    21187517.995
  16442220.62249  12794415.05045  24420165.828    24420179.425    24420167.233
  -4686189.43649  -3644172.64745  24888311.703    24888325.940    24888313.492
 -18142757.71949 -13884175.46247  21584187.139    21584197.711    21584189.006
 -14549687.57349 -11328598.83547  22486870.120    22486881.033    22486871.689
  14154322.76249  11034444.99346  23214349.907    23214361.540    23214351.492
 -22618006.85049 -17609814.20047  20948917.801    20948927.731    20948920.004
 -12657043.28049  -9847778.95847  22479341.619    22479352.322    22479342.609
 98  5 13 18 19  0.0010000  0  8G24G 2G16G 9G 5G 7G 4G 8
 -22030874.24149 -17152128.17847  21176909.616    21176921.084    21176911.591
  16531065.98649  12863645.02545  24437072.639    24437086.316    24437074.028
  -4698049.13849  -3653414.00145  24886055.188    24886069.179    24886056.686
 -18123567.14849 -13869221.79047  21587838.871    21587849.492    21587840.848
 -14621805.51449 -11384794.59547  22473146.499    22473157.393    22473148.042
  14228234.97149  11092038.85046  23228414.877    23228426.656    23228416.589
 -22601259.97649 -17596764.69847  20952104.618    20952114.575    20952106.816
 -12714659.67649  -9892674.80947  22468377.666    22468388.240    22468378.543
 98  5 13 18 19 30.0010000  0  8G24G 2G16G 9G 5G 7G 4G 8
 -22086102.95949 -17195163.51147  21166399.867    21166411.376    21166401.860
  16620117.78349  12933035.87845  24454018.589    24454032.559    24454020.200
  -4709421.74349  -3662275.80145  24883891.181    24883905.010    24883892.579
 -18103833.97849 -13853845.30947  21591594.009    21591604.538    21591595.951
 -14693756.35849 -11440860.15447  22459454.769    22459465.523    22459456.236
  14302217.35349  11149687.39746  23242493.421    23242505.118    23242494.998
 -22583912.16449 -17583246.92447  20955405.750    20955415.749    20955407.943
 -12771730.79549  -9937145.77747  22457517.385    22457527.919    22457518.297
 98  5 13 18 20  0.0010000  0  8G24G 2G16G 9G 5G 7G 4G 8
 -22140820.45049 -17237800.49647  21155987.501    21155998.996    21155989.463
  16709379.80649  13002590.53745  24471004.630    24471018.820    24471006.265
  -4720287.62149  -3670742.73245  24881823.737    24881837.235    24881824.940
 -18083513.69849 -13838011.34047  21595461.007    21595471.334    21595462.890
 -14765519.65349 -11496779.57347  22445798.581    22445809.350    22445800.106
  14376276.22449  11207395.53346  23256586.384    23256598.105    23256587.953
 -22565973.40749 -17569268.67847  20958819.348    20958829.393    20958821.544
 -12828231.47849  -9981172.25247  22446765.607    22446776.140    22446766.554
 98  5 13 18 20 30.0010000  0  8G24G 2G16G 9G 5G 7G 4G 8
 -22195057.64949 -17280063.21747  21145666.515    21145678.013    21145668.477
  16798847.52449  13072305.47245  24488030.024    24488044.107    24488031.591
  -4730653.97949  -3678820.45245  24879850.861    24879864.573    24879852.296
 -18062608.64849 -13821721.70747  21599439.270    21599449.400    21599441.075
 -14837097.96849 -11552554.84447  22432177.736    22432188.408    22432179.172
  14450373.98649  11265133.97346  23270686.923    23270698.553    23270688.444
 -22547462.07449 -17554844.26547  20962341.941    20962351.981    20962344.106
 -12884173.02049 -10024763.02947  22436120.280    22436130.796    22436121.228
 98  5 13 18 21  0.0010000  0  8G24G 2G16G 9G 5G 7G 4G 8
 -22248802.36249 -17321942.18747  21135439.166    21135450.729    21135441.167
  16888535.32949  13142191.90745  24505097.188    24505111.267    24505098.791
  -4740530.48949  -3686516.45745  24877971.370    24877985.043    24877972.978
 -18041117.73249 -13804975.55947  21603528.907    21603538.969    21603530.712
 -14908481.35049 -11608178.23047  22418593.876    22418604.535    22418595.316
  14524511.44849  11322903.35746  23284795.106    23284806.543    23284796.435
 -22528388.48949 -17539981.73647  20965971.493    20965981.549    20965973.693
 -12939546.49049 -10067911.15547  22425582.996    22425593.557    22425584.004
 98  5 13 18 21 30.0010000  0  8G24G 2G16G 9G 5G 7G 4G 8
 -22302053.02049 -17363436.16947  21125305.860    21125317.446    21125307.892
  16978456.75349  13212260.37545  24522208.691    24522222.984    24522210.262
  -4749915.00149  -3693829.08445  24876185.802    24876199.223    24876187.208
 -18019030.60949 -13787764.83247  21607732.029    21607741.985    21607733.807
 -14979683.46949 -11663660.36347  22405044.680    22405055.182    22405045.982
  14598701.02149  11380713.35646  23298913.226    23298924.436    23298914.330
 -22508743.84949 -17524674.22347  20969709.750    20969719.827    20969711.926
 -12994365.25049 -10110627.03947  22415151.324    22415161.832    22415152.319
 98  5 13 18 22  0.0010000  0  8G24G 2G16G 9G 5G 7G 4G 8
 -22354808.72149 -17404544.48347  21115266.746    21115278.345    21115268.778
  17068621.52649  13282518.46745  24539366.775    24539380.905    24539368.246
  -4758799.16149  -3700751.83346  24874495.200    24874508.697    24874496.552
 -17996358.70049 -13770098.43947  21612046.438    21612056.330    21612048.207
 -15050732.84449 -11719023.48147  22391524.303    22391534.876    22391525.701
  14672924.69249  11438549.91746  23313037.355    23313048.802    23313038.664
 -22488506.14549 -17508904.59047  20973560.756    20973570.932    20973563.026
 -13048656.79649 -10152932.11247  22404820.098    22404830.473    22404821.009
 98  5 13 18 22 30.0010000  0  8G24G 2G16G 9G 5G 7G 4G 8
 -22407071.06449 -17445268.35447  21105321.461    21105333.125    21105323.567
  17159042.45349  13352976.16245  24556573.277    24556587.588    24556574.888
  -4767189.88849  -3707290.05445  24872898.567    24872911.932    24872899.926
 -17973132.37649 -13752000.02547  21616466.315    21616476.168    21616468.093
 -15121634.85649 -11774271.76247  22378031.994    22378042.635    22378033.434
  14747193.15149  11496421.37146  23327170.221    23327181.661    23327171.480
 -22467666.82449 -17492666.15947  20977526.275    20977536.511    20977528.594
 -13102434.70649 -10194836.94247  22394586.531    22394596.865    22394587.435
